     2              OBSERVATION DATA    GPS                 RINEX VERSION / TYPE
teqc 1999Jul19 19991123 03:12:46UTC                         PGM / RUN BY / DATE
                                                            COMMENT
Original Marker Name: HPGN-CA-1007                          COMMENT
Campaign Name: HPGN 1991                                    COMMENT
4-Character Station Name: 1007                              COMMENT
6-Character Antenna Code: TRMSST                            COMMENT
Vertical Measurement Point: TGP                             COMMENT
Vertical Offset to Rinex Ref. Point: 0.0629                 COMMENT
Radial Measurement Point: NGP                               COMMENT
Radial Offset to Rinex Ref. Point: 0.2334                   COMMENT
Antenna Height from Field Measurement: 1.7460 m             COMMENT
                                                            COMMENT
Original XYZ: -2641861.5195 -4305546.6855 3881045.1486      COMMENT
New XYZ position is based on association with SCEC monument COMMENT
E1F8I8T3+0101. Position of that monument is believed to be  COMMENT
valid to within 1 m horizontally; vertical accuracy         COMMENT
should be no worse than 3-times this value.                 COMMENT
                                                            COMMENT
Revised Rinex header created by UCSD GPS archive for        COMMENT
GSAC on 10-Mar-2000 (2000:070) 17:27:23 GMT                 COMMENT
For assistance contact dagnew@ucsd.edu or hjohnson@ucsd.edu COMMENT
                                                            COMMENT
HPGN-CA-1007                                                MARKER NAME
1007                                                        MARKER NUMBER
-Unknown- CALIF DEPT TRANSPORTATION                         OBSERVER / AGENCY
457 TRIMBLE 4000 SST NP 4.30 / SP 4.20                      REC # / TYPE / VERS
140 TR 4000SST L1/L2 GEO                                    ANT # / TYPE
 -2641864.0403 -4305548.4923  3881040.5427                  APPROX POSITION XYZ
        1.6674        0.0000        0.0000                  ANTENNA: DELTA H/E/N
     1     1     0                                          WAVELENGTH FACT L1/2
     5    C1    L1    L2    S1    S2                        # / TYPES OF OBSERV
     0                                                      INTERVAL
  1991     5    21    17    47   30.000000                  TIME OF FIRST OBS
  1991     5    21    23    52   30.000000                  TIME OF LAST OBS
                                                            END OF HEADER
 91  5 21 17 47 30.0000000  0  4G18G 2G11G19
  20671825.625          -0.21618                        28.000
  24380633.797          -0.05015                         9.250
  24506397.852          -0.54615                         8.500
  20781315.070          -0.63317                        21.250
 91  5 21 17 47 45.0000000  0  4G18G 2G11G19
  20670848.977       -5138.346 8                        28.000
  24366769.055      -72874.459 5                         9.500
  24494817.594      -60866.295 5                         8.750
  20776503.125      -25283.791 7                        21.500
 91  5 21 17 48  0.0000000  0  4G18G 2G11G19
  20669883.477      -10213.563 8        -0.35133        28.250           3.031
  24352896.133     -145762.186 5                         9.250
  24483238.945     -121711.921 5                         8.750
  20771693.297      -50555.727 7                        21.250
 91  5 21 17 48 15.0000000  0  4G18G 2G11G19
  20668929.156      -15229.407 8     -3908.81723        28.250           3.094
  24339025.469     -218666.505 5        -0.03931         9.250           0.469
  24471661.172     -182540.550 5        -0.04531         8.750           0.313
  20766885.711      -75820.067 7        -0.26932        21.250           2.063
 91  5 21 17 48 30.0000000  0  4G18G 2G11G19
  20667987.039      -20183.436 8     -7769.11623        28.250           3.000
  24325147.945     -291584.943 5    -56819.48821         9.250           0.438
  24460091.266     -243349.506 5    -47383.56021         8.500           0.313
  20762078.898     -101074.544 7    -19679.08422        21.500           2.031
 91  5 21 17 48 45.0000000  0  4G18G 2G11G19
  20667055.680      -25076.957 8    -11582.27123        28.500           3.031
  24311267.703     -364518.745 5   -113650.88821         8.750           0.438
  24448522.820     -304139.720 5    -94752.46121         9.250           0.281
  20757276.961     -126320.499 7    -39351.26622        21.250           1.969
 91  5 21 17 49  0.0000000  0  4G18G 2G11G19
  20666133.883      -29912.333 7    -15350.11423        27.750           3.125
  24297387.000     -437469.762 5   -170495.70221         8.750           0.406
  24436960.086     -364912.794 5   -142108.04321         9.500           0.313
  20752472.195     -151559.942 7    -59018.36722        22.250           2.000
 91  5 21 17 49 15.0000000  0  4G18G 2G11G19
  20665226.781      -34681.215 8    -19066.14823        28.000           3.094
  24283501.703     -510429.714 5   -227347.50221         8.500           0.438
  24425398.023     -425660.298 5   -189443.66621         9.500           0.281
  20747672.570     -176784.823 7    -78674.12722        21.500           1.938
 91  5 21 17 49 30.0000000  0  4G18G 2G11G19
  20664332.180      -39384.939 8    -22731.40223        28.250           3.156
  24269615.594     -583399.565 5   -284206.97921         8.250           0.406
  24413839.898     -486383.129 5   -236760.06621         9.250           0.281
  20742873.742     -201996.521 7    -98319.60522        21.750           1.969
 91  5 21 17 49 45.0000000  0  4G18G 2G11G19
  20663449.891      -44021.325 8    -26344.19323        28.000           3.094
  24255730.203     -656376.891 5   -341072.30521         8.000           0.438
  24402297.297     -547078.501 5   -284055.07521         9.750           0.313
  20738081.375     -227192.885 7   -117953.14222        21.250           2.031
 91  5 21 17 50  0.0000000  0  4G18G 2G11G19
  20662580.563      -48590.361 8    -29904.50023        28.250           3.094
  24241838.445     -729361.550 5   -397943.33221         8.000           0.375
  24390748.828     -607745.989 5   -331328.37321         9.500           0.313
  20733287.234     -252373.929 7   -137574.73822        21.500           2.063
 91  5 21 17 50 15.0000000  0  4G18G 2G11G19
  20661723.719      -53094.036 8    -33413.88123        28.500           3.094
  24227948.336     -802355.324 5   -454821.46921         7.750           0.406
  24379209.063     -668387.343 5   -378581.27721         9.500           0.219
  20728499.961     -277541.722 7   -157186.01222        21.000           2.000
 91  5 21 17 50 30.0000000  0  4G18G 2G11G19
  20660880.695      -57523.898 8    -36865.74023        28.250           3.125
  24214056.961     -875349.360 5   -511699.81121         8.000           0.281
  24367675.469     -728993.456 5   -425806.73521         9.250           0.313
  20723712.281     -302687.760 7   -176780.33022        21.250           1.969
 91  5 21 17 50 45.0000000  0  4G18G 2G11G19
  20660050.758      -61883.924 8    -40263.18123        28.000           3.219
  24200168.656     -948347.505 5   -568581.34721         8.500           0.281
  24356149.477     -789568.064 5   -473007.65721        10.000           0.313
  20718934.484     -327816.217 7   -196360.94722        21.000           2.000
 91  5 21 17 51  0.0000000  0  4G18G 2G11G19
  20659243.898      -66126.263 8    -43568.92923        28.250           3.188
  24186287.648    -1021301.629 5   -625428.59421         8.500           0.313
  24344636.914     -850062.760 5   -520146.29521         9.750           0.281
  20714164.883     -352879.047 7   -215890.43522        20.500           1.906
 91  5 21 17 51 15.0000000  0  4G18G 2G11G19
  20658453.320      -70280.847 8    -46806.28723        28.250           3.219
  24172406.336    -1094241.578 5   -682264.78621         8.500           0.344
  24333134.016     -910507.145 5   -567245.73221         9.750           0.219
  20709401.367     -377906.292 7   -235392.18522        20.750           2.000
 91  5 21 17 51 30.0000000  0  4G18G 2G11G19
  20657677.953      -74358.826 8    -49983.95523        28.000           3.250
  24158528.313    -1167178.028 5   -739098.26721         8.750           0.344
  24321639.852     -970911.779 5   -614314.19021        10.000           0.250
  20704640.828     -402908.923 7   -254874.76522        21.750           2.063
 91  5 21 17 51 45.0000000  0  4G18G 2G11G19
  20656914.484      -78363.029 8    -53104.13923        28.000           3.188
  24144648.945    -1240113.949 5   -795931.32621         8.750           0.313
  24310149.914    -1031279.189 5   -661353.64421         9.750           0.188
  20699890.750     -427890.100 7   -274340.62622        20.750           2.063
 91  5 21 17 52  0.0000000  0  4G18G 2G11G19
  20656165.555      -82299.516 7    -56171.56123        27.750           3.156
  24130766.750    -1313054.792 5   -852768.24521         9.250           0.281
  24298671.047    -1091614.919 5   -708368.41621        10.000           0.281
  20695136.586     -452855.684 7   -293794.33822        21.000           2.125
 91  5 21 17 52 15.0000000  0  4G18G 2G11G19
  20655431.398      -86163.743 8    -59182.66823        28.000           3.094
  24116884.242    -1385996.057 5   -909605.46521         9.250           0.469
  24287196.641    -1151914.097 5   -755354.71121        10.000           0.250
  20690392.047     -477801.388 7   -313232.55022        21.000           2.031
 91  5 21 17 52 30.0000000  0  4G18G 2G11G19
  20654709.250      -89955.833 7    -62137.56223        27.750           3.188
  24103006.148    -1458937.622 5   -966442.93121         9.500           0.406
  24275730.195    -1212176.529 5   -802312.35821        10.250           0.281
  20685647.219     -502727.334 7   -332655.37122        21.250           2.063
 91  5 21 17 52 45.0000000  0  4G18G 2G11G19
  20653999.164      -93683.781 7    -65042.48723        27.500           3.250
  24089125.766    -1531886.989 5  -1023286.47021         9.500           0.406
  24264265.906    -1272409.501 5   -849247.04221        10.500           0.281
  20680908.383     -527641.172 7   -352068.75222        20.750           2.063
 91  5 21 17 53  0.0000000  0  4G18G 2G11G19
  20653301.313      -97351.804 7    -67900.71123        27.250           3.313
  24075240.000    -1604848.426 5  -1080139.44321         9.500           0.469
  24252810.359    -1332617.123 5   -896161.99921        10.250           0.250
  20676166.281     -552547.436 7   -371476.25022        21.500           1.969
 91  5 21 17 53 15.0000000  0  4G18G 2G11G19
  20652617.367     -100953.292 7    -70707.08823        27.250           3.281
  24061355.094    -1677814.982 5  -1136996.36821        10.250           0.406
  24241360.430    -1392792.139 5   -943051.51721        10.500           0.250
  20671431.281     -577439.565 7   -390872.71822        21.000           2.063
 91  5 21 17 53 30.0000000  0  4G18G 2G11G19
  20651942.852     -104496.028 7    -73467.68123        27.000           3.219
  24047467.070    -1750793.999 5  -1193863.01921        11.000           0.375
  24229912.875    -1452941.739 5   -989921.25021        10.250           0.344
  20666693.797     -602325.176 7   -410264.10622        21.250           1.969
 91  5 21 17 53 45.0000000  0  4G18G 2G11G19
  20651278.258     -107989.518 7    -76189.90723        27.000           3.219
  24033575.547    -1823795.089 5  -1250746.88921        11.250           0.438
  24218471.258    -1513075.139 5  -1036778.35821        10.500           0.250
  20661959.375     -627213.804 7   -429657.84922        20.750           1.938
 91  5 21 17 54  0.0000000  0  4G18G 2G11G19
  20650623.742     -111423.053 7    -78865.41623        27.000           3.313
  24019682.961    -1896807.666 5  -1307639.71721        11.250           0.406
  24207032.773    -1573181.616 5  -1083614.49221        10.500           0.219
  20657223.539     -652095.266 7   -449046.01122        21.250           1.969
 91  5 21 17 54 15.0000000  0  4G18G 2G11G19
  20649980.414     -114807.946 7    -81503.02023        27.000           3.188
  24005786.055    -1969842.384 5  -1364549.76821        11.250           0.438
  24195599.789    -1633271.659 5  -1130437.80021        10.250           0.250
  20652489.430     -676980.438 7   -468437.05422        20.750           1.938
 91  5 21 17 54 30.0000000  0  4G18G 2G11G19
  20649345.625     -118143.204 7    -84101.94223        27.000           3.281
  23991882.391    -2042897.909 5  -1421476.04521        11.250           0.469
  24184169.625    -1693343.735 5  -1177247.13621        10.500           0.313
  20647753.578     -701868.310 7   -487830.20922        21.500           1.906
 91  5 21 17 54 45.0000000  0  4G18G 2G11G19
  20648721.938     -121423.286 7    -86657.87623        27.000           3.156
  23977978.375    -2115968.386 5  -1478413.96821        11.250           0.594
  24172737.734    -1753391.899 5  -1224037.83621        10.000           0.281
  20643018.070     -726753.121 7   -507221.47522        20.750           1.969
 91  5 21 17 55  0.0000000  0  4G18G 2G11G19
  20648108.133     -124644.671 7    -89168.07423        26.750           3.281
  23964071.969    -2189050.352 5  -1535360.84221        11.500           0.500
  24161318.164    -1813412.267 5  -1270806.87121        10.000           0.344
  20638283.313     -751631.698 7   -526607.38422        21.250           2.000
 91  5 21 17 55 15.0000000  0  5G18G 2G11G19G16
  20647506.313     -127813.452 7    -91637.28123        27.000           3.281
  23950161.453    -2262149.641 5  -1592321.23221        11.500           0.563
  24149901.352    -1873410.629 5  -1317558.76021         9.750           0.438
  20633549.922     -776510.251 7   -545993.28122        20.750           1.813
  24234759.297          -0.56215                         9.250
 91  5 21 17 55 30.0000000  0  5G18G 2G11G19G16
  20646913.328     -130924.889 7    -94061.80523        26.750           3.281
  23936245.336    -2335261.299 5  -1649291.25721        11.500           0.563
  24138489.633    -1933381.855 5  -1364289.49921        10.000           0.438
  20628814.453     -801384.002 7   -565375.42822        21.500           1.844
  24223727.469      -57979.297 5                        10.000
 91  5 21 17 55 45.0000000  0  5G18G 2G11G19G16
  20646333.070     -133978.841 7    -96441.53323        26.750           3.219
  23922333.828    -2408384.817 5  -1706270.51721        11.750           0.531
  24127078.609    -1993325.096 5  -1410998.45221         9.500           0.344
  20624083.922     -826252.629 7   -584753.58622        20.750           1.844
  24212700.898     -115902.851 5                         9.000
 91  5 21 17 56  0.0000000  0  5G18G 2G11G19G16
  20645762.805     -136970.064 7    -98772.38323        26.750           3.188
  23908413.523    -2481514.659 5  -1763254.73721        11.250           0.563
  24115680.641    -2053234.904 5  -1457681.32421         9.750           0.344
  20619351.938     -851111.023 7   -604123.76922        21.750           1.906
  24201688.023     -173765.464 5                         8.750
 91  5 21 17 56 15.0000000  0  5G18G 2G11G19G16
  20645204.922     -139904.169 7   -101058.72523        26.750           3.344
  23894497.625    -2554656.226 5  -1820248.06121        11.250           0.531
  24104284.734    -2113116.348 5  -1504342.10821         9.750           0.344
  20614624.641     -875964.648 7   -623490.22722        20.500           1.938
  24190689.352     -231572.531 5        -0.32431         8.750           0.438
 91  5 21 17 56 30.0000000  0  5G18G 2G11G19G16
  20644657.953     -142778.239 7   -103298.28823        26.750           3.156
  23880576.781    -2627806.597 5  -1877248.26221        11.000           0.563
  24092897.406    -2172966.269 5  -1550978.33221        10.000           0.375
  20609895.336     -900810.846 7   -642850.91122        21.250           1.875
  24179704.594     -289320.882 5    -44998.98021         9.000           0.438
 91  5 21 17 56 45.0000000  0  5G18G 2G11G19G16
  20644120.070     -145598.724 7   -105496.09923        26.500           3.188
  23866654.102    -2700971.732 5  -1934259.95921        11.250           0.688
  24081511.609    -2232790.377 5  -1597594.44921         9.750           0.406
  20605167.039     -925655.826 7   -662210.64422        20.500           1.844
  24168725.438     -347016.661 5    -89956.68221         9.000           0.563
 91  5 21 17 57  0.0000000  0  5G18G 2G11G19G16
  20643596.523     -148356.559 7   -107645.09023        26.250           3.094
  23852730.961    -2774142.563 5  -1991276.09421        11.000           0.656
  24070135.672    -2292579.332 5  -1644183.15221         9.750           0.313
  20600441.289     -950490.641 7   -681562.46222        21.250           1.938
  24157756.055     -404650.539 5   -134866.13421         9.250           0.438
 91  5 21 17 57 15.0000000  0  5G18G 2G11G19G16
  20643083.891     -151052.671 7   -109745.98723        26.500           3.063
  23838807.141    -2847319.841 5  -2048297.24721        11.000           0.594
  24058764.039    -2352333.670 5  -1690744.90921         9.500           0.375
  20595717.844     -975316.328 7   -700907.15822        20.500           1.813
  24146800.211     -462223.243 5   -179727.95221         9.500           0.438
 91  5 21 17 57 30.0000000  0  5G18G 2G11G19G16
  20642581.930     -153687.697 7   -111799.28023        26.750           3.063
  23824878.844    -2920503.806 5  -2105323.63521        11.250           0.719
  24047400.133    -2412053.471 5  -1737279.74821         9.500           0.438
  20590995.664    -1000133.223 7   -720245.00822        20.750           1.813
  24135854.414     -519734.997 5   -224542.26721         9.000           0.438
 91  5 21 17 57 45.0000000  0  5G18G 2G11G19G16
  20642093.961     -156256.304 7   -113800.81623        26.500           3.156
  23810952.016    -2993689.009 5  -2162350.97321        11.000           0.625
  24036042.664    -2471733.084 5  -1783783.27521        10.000           0.344
  20586276.305    -1024936.162 7   -739571.97922        20.750           1.875
  24124925.508     -577180.336 5   -269304.80421         9.750           0.281
 91  5 21 17 58  0.0000000  0  5G18G 2G11G19G16
  20641617.781     -158756.489 7   -115749.04223        26.250           3.219
  23797024.602    -3066873.031 5  -2219377.39121        11.000           0.563
  24024693.445    -2531370.074 5  -1830253.57621        10.000           0.406
  20581559.305    -1049723.102 7   -758886.48422        21.500           1.813
  24114006.633     -634556.735 5   -314013.65921         9.500           0.406
 91  5 21 17 58 15.0000000  0  5G18G 2G11G19G16
  20641155.641     -161180.148 7   -117637.63723        26.500           3.125
  23783102.914    -3140047.474 5  -2276396.35521        10.500           0.625
  24013357.219    -2590955.842 5  -1876683.99321        10.000           0.500
  20576847.633    -1074486.086 7   -778182.32022        21.000           1.781
  24103106.805     -691855.614 5   -358662.06821        10.000           0.438
 91  5 21 17 58 30.0000000  0  5G18G 2G11G19G16
  20640708.352     -163533.181 7   -119471.19723        26.250           3.063
  23769176.039    -3213218.230 5  -2333412.42321        10.750           0.625
  24002022.836    -2650495.918 5  -1923078.78221         9.750           0.406
  20572140.180    -1099231.086 7   -797464.14022        20.500           1.875
  24092212.289     -749083.003 5   -403254.79621         9.750           0.438
 91  5 21 17 58 45.0000000  0  5G18G 2G11G19G16
  20640274.000     -165811.902 7   -121246.85423        26.250           3.094
  23755251.711    -3286381.330 5  -2390422.54321        10.500           0.625
  23990704.648    -2709986.143 5  -1969434.74921        10.250           0.313
  20567433.242    -1123954.218 7   -816728.91622        21.000           1.813
  24081338.211     -806234.696 5   -447788.55321        10.000           0.375
 91  5 21 17 59  0.0000000  0  5G18G 2G11G19G16
  20639855.070     -168019.689 7   -122967.23823        26.250           3.031
  23741332.773    -3359539.955 5  -2447429.16721        10.750           0.719
  23979396.789    -2769429.548 5  -2015754.21421        10.750           0.375
  20562734.672    -1148659.042 7   -835979.43122        20.500           1.813
  24070473.695     -863313.817 5   -492265.72421        10.000           0.469
 91  5 21 17 59 15.0000000  0  5G18G 2G11G19G16
  20639448.984     -170157.570 7   -124633.15123        26.750           2.906
  23727410.141    -3432694.952 5  -2504432.96821        11.500           0.625
  23968092.484    -2828826.640 5  -2062037.60521        10.500           0.406
  20558033.828    -1173346.392 7   -855216.32522        20.750           1.844
  24059625.258     -920321.196 5   -536687.01821         9.500           0.469
 91  5 21 17 59 29.9990000  0  5G18G 2G11G19G16
  20639054.534     -172226.542 7   -126245.37023        26.250           3.063
  23713492.448    -3505842.131 6  -2561430.68821        12.000           0.625
  23956796.448    -2888174.158 5  -2108282.36521        10.500           0.375
  20553341.683    -1198015.908 7   -874439.33022        20.500           1.813
  24048791.894     -977253.797 5   -581050.04321        10.250           0.469
 91  5 21 17 59 44.9990000  0  5G18G 2G11G19G16
  20638673.769     -174226.770 7   -127804.01923        26.000           2.969
  23699570.987    -3578990.916 5  -2618429.66121        11.250           0.656
  23945515.253    -2947479.448 5  -2154494.21721        10.750           0.438
  20548648.855    -1222670.725 7   -893650.88222        20.750           1.875
  24037970.878    -1034118.825 5   -625360.41821        10.250           0.406
 91  5 21 17 59 59.9990000  0  5G18G 2G11G19G16
  20638305.909     -176161.454 7   -129311.59523        26.250           2.969
  23685652.565    -3652139.590 5  -2675428.53921        11.250           0.531
  23934233.136    -3006741.417 5  -2200672.31221        10.750           0.344
  20543959.487    -1247312.441 7   -912852.22022        20.750           1.906
  24027163.222    -1090915.462 5   -669617.48621        10.000           0.344
 91  5 21 18  0 14.9990000  0  5G18G 2G11G19G16
  20637952.315     -178023.957 7   -130762.92623        26.250           3.063
  23671733.417    -3725281.121 5  -2732421.84921        11.000           0.656
  23922968.230    -3065952.914 5  -2246811.07921        10.500           0.250
  20539273.753    -1271934.283 7   -932038.06822        21.500           1.906
  24016368.206    -1147636.671 5   -713815.80021        10.000           0.406
 91  5 21 18  0 29.9990000  0  5G18G 2G11G19G16
  20637610.792     -179814.637 7   -132158.29123        26.000           2.969
  23657817.933    -3798415.708 5  -2789409.74921        11.500           0.531
  23911708.519    -3125113.866 5  -2292910.44721        10.750           0.500
  20534592.581    -1296536.646 7   -951208.74822        20.750           1.750
  24005588.519    -1204282.448 5   -757955.32321        10.000           0.375
 91  5 21 18  0 44.9990000  0  5G18G 2G11G19G16
  20637282.433     -181538.622 7   -133501.68623        26.250           2.969
  23643900.089    -3871548.107 5  -2846395.95421        11.750           0.594
  23900459.722    -3184228.954 5  -2338974.10021        10.750           0.344
  20529911.855    -1321124.528 7   -970368.13522        21.000           1.781
  23994825.769    -1260857.710 5   -802039.90821        10.750           0.406
 91  5 21 18  0 59.9990000  0  5G18G 2G11G19G16
  20636966.183     -183197.445 7   -134794.30423        26.000           3.125
  23629982.190    -3944679.869 5  -2903381.65721        11.750           0.594
  23889218.862    -3243299.439 5  -2385002.98221        10.750           0.313
  20525235.620    -1345699.763 7   -989517.67422        21.000           1.844
  23984071.862    -1317363.957 5   -846070.70521        11.000           0.500
 91  5 21 18  1 14.9990000  0  5G18G 2G11G19G16
  20636663.597     -184790.293 7   -136035.51323        26.250           3.063
  23616069.558    -4017809.699 6  -2960365.85021        12.250           0.469
  23877985.440    -3302323.938 5  -2430996.03821        10.750           0.406
  20520561.136    -1370261.243 7  -1008656.48522        21.000           2.000
  23973333.167    -1373799.847 5   -890046.67921        11.000           0.531
 91  5 21 18  1 29.9990000  0  5G18G 2G11G19G16
  20636373.198     -186314.663 7   -137223.36523        26.250           3.063
  23602153.503    -4090935.203 6  -3017346.67721        12.500           0.531
  23866763.425    -3361299.751 5  -2476951.15121        10.750           0.469
  20515891.128    -1394806.739 7  -1027782.85222        21.250           1.719
  23962606.917    -1430162.789 5   -933965.82021        11.000           0.406
 91  5 21 18  1 44.9990000  0  5G18G 2G11G19G16
  20636098.042     -187773.468 7   -138360.12723        26.250           3.031
  23588237.503    -4164058.892 6  -3074326.08521        12.250           0.594
  23855549.636    -3420229.318 5  -2522870.23321        10.500           0.438
  20511223.847    -1419339.102 7  -1046898.97622        20.750           1.781
  23951893.987    -1486455.410 5   -977830.14521        11.000           0.375
 91  5 21 18  1 59.9990000  0  5G18G 2G11G19G16
  20635830.440     -189166.923 7   -139445.97023        26.000           3.000
  23574322.480    -4237180.700 6  -3131304.03621        12.250           0.531
  23844345.105    -3479112.293 5  -2568753.00821        10.750           0.344
  20506556.230    -1443858.516 7  -1066005.01822        21.000           1.844
  23941197.206    -1542677.314 5  -1021639.39121        11.250           0.438
 91  5 21 18  2 14.9990000  0  5G18G 2G11G19G16
  20635578.894     -190489.105 7   -140476.26823        26.000           2.969
  23560409.690    -4310294.367 6  -3188275.63721        12.500           0.594
  23833147.495    -3537942.188 5  -2614594.42221        10.750           0.375
  20501893.987    -1468358.913 7  -1085096.23522        21.000           1.750
  23930511.972    -1598822.413 5  -1065388.77821        11.000           0.438
 91  5 21 18  2 29.9990000  0  5G18G 2G11G19G16
  20635340.487     -191742.428 7   -141452.91123        26.000           3.031
  23546497.675    -4383402.160 6  -3245242.66121        12.500           0.500
  23821964.003    -3596721.166 5  -2660396.15821        10.750           0.281
  20497235.573    -1492842.821 7  -1104174.60922        20.750           1.719
  23919841.698    -1654892.981 5  -1109080.07821        11.500           0.438
 91  5 21 18  2 44.9990000  0  5G18G 2G11G19G16
  20635113.433     -192942.315 7   -142387.91123        26.000           3.000
  23532584.605    -4456519.235 6  -3302216.92621        12.750           0.531
  23810786.261    -3655464.174 5  -2706169.86321        11.000           0.375
  20492576.855    -1517325.662 7  -1123252.14522        21.000           1.750
  23909182.675    -1710903.902 5  -1152724.92921        11.500           0.438
 91  5 21 18  2 59.9990000  0  5G18G 2G11G19G16
  20634898.198     -194072.647 7   -143268.72523        26.000           2.906
  23518672.831    -4529629.231 6  -3359185.65821        12.500           0.563
  23799618.089    -3714154.448 5  -2751902.47521        11.000           0.469
  20487919.651    -1541791.108 7  -1142316.13822        20.500           1.688
  23898539.737    -1766838.846 5  -1196310.54521        11.750           0.531
 91  5 21 18  3 14.9990000  0  5G18G 2G11G19G16
  20634696.730     -195132.505 7   -144094.61423        26.250           3.031
  23504760.167    -4602731.064 6  -3416148.05421        12.750           0.625
  23788457.003    -3772790.745 5  -2797593.04721        11.250           0.500
  20483268.323    -1566238.318 7  -1161365.91422        21.000           1.781
  23887907.206    -1822696.472 5  -1239835.95921        11.500           0.438
 91  5 21 18  3 29.9990000  0  5G18G 2G11G19G16
  20634506.347     -196122.389 7   -144865.97723        26.000           3.094
  23490850.573    -4675824.657 6  -3473104.00321        12.750           0.563
  23777311.675    -3831373.001 5  -2843241.49321        11.250           0.406
  20478623.089    -1590667.558 7  -1180401.68922        20.250           1.750
  23877295.987    -1878477.012 6  -1283301.26821        12.000           0.375
 91  5 21 18  3 44.9990000  0  5G18G 2G11G19G16
  20634334.136     -197034.758 7   -145576.94523        26.000           2.938
  23476945.651    -4748902.178 6  -3530047.45321        13.000           0.500
  23766173.105    -3889893.143 5  -2888841.52021        11.000           0.344
  20473976.917    -1615071.151 7  -1199417.47722        21.000           1.656
  23866698.589    -1934172.707 6  -1326700.47421        12.000           0.500
 91  5 21 18  3 59.9990000  0  5G18G 2G11G19G16
  20634172.730     -197877.750 7   -146233.85423        26.000           2.906
  23463041.581    -4821971.849 6  -3586984.77221        12.500           0.656
  23755048.925    -3948359.121 5  -2934399.36621        11.250           0.313
  20469334.612    -1639457.551 7  -1218419.86622        21.000           1.813
  23856112.761    -1989791.441 6  -1370039.71521        12.250           0.563
 91  5 21 18  4 14.9990000  0  5G18G 2G11G19G16
  20634027.956     -198634.723 7   -146823.73323        25.750           2.938
  23449138.917    -4895016.800 6  -3643902.83421        12.000           0.594
  23743937.948    -4006754.009 5  -2979901.81421        11.500           0.469
  20464701.440    -1663810.223 7  -1237395.99022        21.000           1.813
  23845545.042    -2045316.411 5  -1413305.89321        11.750           0.406
 91  5 21 18  4 29.9990000  0  5G18G 2G11G19G16
  20633902.511     -199311.631 7   -147351.22723        26.000           3.063
  23435242.690    -4968042.496 6  -3700805.88521        12.500           0.563
  23732838.987    -4065083.025 5  -3025352.91921        11.750           0.313
  20460071.972    -1688134.617 7  -1256350.06022        20.750           1.688
  23834995.995    -2100752.918 6  -1456503.13021        12.000           0.469
 91  5 21 18  4 44.9990000  0  5G18G 2G11G19G16
  20633786.667     -199916.694 7   -147822.73223        26.000           3.063
  23421350.894    -5041057.255 6  -3757700.42121        13.000           0.656
  23721747.394    -4123354.262 5  -3070759.00021        11.500           0.438
  20455447.276    -1712439.270 7  -1275289.25922        20.750           1.813
  23824465.261    -2156109.184 6  -1499637.85821        12.250           0.594
 91  5 21 18  4 59.9990000  0  5G18G 2G11G19G16
  20633684.480     -200452.782 7   -148240.49423        26.000           3.063
  23407455.917    -5114063.569 6  -3814588.37521        13.250           0.625
  23710669.440    -4181570.083 5  -3116121.91521        11.750           0.406
  20450825.042    -1736727.257 7  -1294214.97022        21.000           1.875
  23813945.948    -2211387.871 6  -1542712.11521        12.250           0.438
 91  5 21 18  5 14.9990000  0  5G18G 2G11G19G16
  20633595.511     -200914.210 7   -148600.07623        26.500           3.031
  23393565.542    -5187055.361 6  -3871465.01521        12.750           0.656
  23699601.940    -4239724.132 5  -3161436.69121        11.500           0.438
  20446208.370    -1760992.514 7  -1313122.96222        20.750           1.688
  23803442.409    -2266582.878 6  -1585721.19521        12.250           0.531
 91  5 21 18  5 29.9990000  0  5G18G 2G11G19G16
  20633520.261     -201310.639 7   -148909.01623        26.000           3.031
  23379677.480    -5260041.899 6  -3928337.56121        12.500           0.656
  23688547.558    -4297825.520 5  -3206710.41721        11.750           0.500
  20441591.776    -1785244.541 7  -1332020.65322        20.750           1.719
  23792951.823    -2321703.426 6  -1628672.24121        12.000           0.656
 91  5 21 18  5 44.9990000  0  5G18G 2G11G19G16
  20633459.737     -201643.639 7   -149168.52923        26.250           3.031
  23365789.456    -5333024.904 6  -3985207.35321        12.250           0.688
  23677502.081    -4355875.649 6  -3251944.21921        12.000           0.375
  20436980.315    -1809485.193 7  -1350909.47922        20.750           1.688
  23782475.612    -2376750.955 5  -1671566.38221        11.500           0.531
 91  5 21 18  5 59.9990000  0  5G18G 2G11G19G16
  20633404.526     -201908.127 7   -149374.65123        26.000           2.969
  23351901.253    -5405998.864 5  -4042070.08221        11.750           0.594
  23666467.159    -4413868.870 5  -3297133.66521        11.750           0.406
  20432370.206    -1833709.179 7  -1369785.32022        21.000           1.813
  23772017.245    -2431719.881 5  -1714399.28521        11.750           0.688
 91  5 21 18  6 14.9990000  0  5G18G 2G11G19G16
  20633367.276     -202108.065 7   -149530.47923        26.000           3.000
  23338016.448    -5478967.546 6  -4098928.72021        12.000           0.781
  23655438.831    -4471808.756 5  -3342281.56021        11.500           0.313
  20427763.605    -1857920.407 7  -1388651.21222        21.250           1.781
  23761570.589    -2486613.760 5  -1757173.70521        11.500           0.625
 91  5 21 18  6 29.9990000  0  5G18G 2G11G19G16
  20633338.612     -202261.453 7                        26.000
  23324130.745    -5551948.681 6  -4155797.05421        12.750           0.781
  23644421.722    -4529712.857 5  -3387401.55221        11.500           0.406
  20423154.722    -1882136.705 7  -1407521.06922        21.000           1.781
  23751137.034    -2541450.362 6  -1799903.49821        12.250           0.656
 91  5 21 18  6 44.9990000  0  5G18G 2G11G19G16
  20633324.206     -202346.527 7                        26.250
  23310242.659    -5624920.062 6  -4212657.79421        12.750           0.719
  23633412.706    -4587558.889 5  -3432476.31621        11.500           0.375
  20418550.105    -1906336.402 7  -1426377.98222        20.750           1.781
  23740715.065    -2596207.884 6  -1842571.66221        12.000           0.594
 91  5 21 18  6 59.9990000  0  5G18G 2G11G19G16
  20633320.784     -202366.991 7                        26.250
  23296358.284    -5697885.011 6  -4269513.51621        13.000           0.813
  23622413.237    -4645349.869 5  -3477508.17621        11.000           0.344
  20413946.964    -1930522.998 7  -1445224.68022        20.750           1.813
  23730309.034    -2650889.463 6  -1885180.65221        12.250           0.594
 91  5 21 18  7 14.9990000  0  5G18G 2G11G19G16
  20633328.440     -202321.500 7                        25.750
  23282475.105    -5770842.201 6  -4326363.19221        12.250           0.781
  23611429.394    -4703084.323 5  -3522495.99621        11.250           0.375
  20409347.081    -1954695.419 7  -1464060.34522        20.750           1.906
  23719918.675    -2705493.737 6  -1927729.41021        12.750           0.563
 91  5 21 18  7 29.9990000  0  5G18G 2G11G19G16
  20633351.956     -202210.154 7                        26.000
  23268592.206    -5843791.563 5  -4383206.76121        11.750           0.781
  23600451.784    -4760762.051 5  -3567439.62721        11.000           0.469
  20404750.862    -1978853.678 7  -1482884.96922        21.000           1.906
  23709543.495    -2760020.629 6  -1970217.86921        12.000           0.625
 91  5 21 18  7 44.9990000  0  5G18G 2G11G19G16
  20633385.503     -202031.740 7                        26.000
  23254713.581    -5916731.467 6  -4440042.95921        12.000           0.750
  23589485.323    -4818381.147 5  -3612337.54121        10.750           0.438
  20400156.776    -2002996.306 7  -1501697.40722        21.000           1.906
  23699181.331    -2814468.177 6  -2012644.49321        12.250           0.750
 91  5 21 18  7 59.9990000  0  5G18G 2G11G19G16
  20633432.073     -201780.331 7                        25.750
  23240837.394    -5989655.615 6  -4496866.91121        12.500           0.750
  23578535.683    -4875935.280 5  -3657184.85721        11.250           0.406
  20395566.323    -2027117.450 7  -1520493.11222        21.500           1.844
  23688836.839    -2868830.579 5  -2055004.77421        11.500           0.625
 91  5 21 18  8 14.9990000  0  5G18G 2G11G19G16
  20633492.784     -201464.089 7   -149028.92823        25.750           3.094
  23226959.675    -6062572.089 6  -4553684.85921        12.000           0.656
  23567595.058    -4933432.206 5  -3701987.57921        11.250           0.469
  20390978.855    -2051225.341 7  -1539278.48422        21.000           1.875
  23678506.894    -2923115.533 6  -2097304.69121        12.000           0.625
 91  5 21 18  8 29.9990000  0  5G18G 2G11G19G16
  20633568.448     -201079.183 7   -148729.02923        26.000           3.188
  23213087.636    -6135476.494 6  -4610493.40821        12.000           0.719
  23556664.253    -4990867.481 5  -3746742.27521        11.000           0.438
  20386393.331    -2075315.879 7  -1558050.33922        21.750           1.875
  23668189.628    -2977318.583 5  -2139540.80421        11.750           0.500
 91  5 21 18  8 44.9990000  0  5G18G 2G11G19G16
  20633650.573     -200621.142 7   -148372.14323        25.500           3.125
  23199217.214    -6208364.727 6  -4667289.36021        12.250           0.781
  23545749.456    -5048236.603 5  -3791445.41421        11.000           0.438
  20381815.026    -2099385.054 7  -1576805.54122        21.500           1.875
  23657892.440    -3031435.600 5  -2181709.87621        11.750           0.625
 91  5 21 18  8 59.9990000  0  5G18G 2G11G19G16
  20633757.487     -200094.045 7   -147961.44823        26.000           3.094
  23185349.003    -6281240.127 6  -4724075.30121        12.250           0.750
  23534844.917    -5105542.929 5  -3836099.62821        11.000           0.469
  20377238.308    -2123436.557 7  -1595546.97722        21.250           1.938
  23647611.401    -3085469.839 6  -2223814.43821        12.250           0.625
 91  5 21 18  9 14.9990000  0  5G18G 2G11G19G16
  20633865.300     -199495.508 7   -147495.08823        25.250           3.156
  23171483.323    -6354100.172 6  -4780849.28621        12.500           0.719
  23523952.112    -5162783.530 5  -3880702.62421        11.250           0.406
  20372664.730    -2147467.795 7  -1614272.62422        21.250           1.938
  23637344.253    -3139418.566 5  -2265852.39021        11.750           0.781
 91  5 21 18  9 29.9990000  0  5G18G 2G11G19G16
  20633991.394     -198830.229 7   -146976.72123        25.250           3.219
  23157620.409    -6426949.231 6  -4837614.70721        12.500           0.813
  23513070.331    -5219962.719 5  -3925257.77921        11.250           0.406
  20368093.917    -2171483.371 7  -1632986.06322        21.250           1.969
  23627095.292    -3193286.455 6  -2307827.32721        12.000           0.656
 91  5 21 18  9 44.9990000  0  5G18G 2G11G19G16
  20634133.940     -198090.639 7   -146400.44323        25.500           3.156
  23143761.401    -6499779.629 6  -4894365.59521        12.750           0.750
  23502203.269    -5277072.712 5  -3969759.00521        11.500           0.500
  20363529.097    -2195475.977 7  -1651681.60422        21.250           1.875
  23616861.183    -3247065.721 5  -2349733.22221        11.750           0.781
 91  5 21 18  9 59.9990000  0  5G18G 2G11G19G16
  20634286.440     -197279.983 7   -145768.79923        25.250           3.156
  23129906.128    -6572594.359 6  -4951104.27121        13.250           0.688
  23491345.636    -5334116.309 5  -4014208.49821        11.000           0.500
  20358968.409    -2219448.719 7  -1670361.67122        20.750           1.844
  23606643.784    -3300759.327 6  -2391572.37621        12.250           0.688
 91  5 21 18 10 14.9990000  0  5G18G 2G11G19G16
  20634458.706     -196388.126 7   -145073.87623        25.000           3.313
  23116055.433    -6645382.978 6  -5007822.60021        13.250           0.656
  23480507.151    -5391082.732 5  -4058597.87021        11.000           0.438
  20354411.620    -2243391.369 7  -1689018.29122        21.250           1.813
  23596445.558    -3354356.830 6  -2433336.62421        12.500           0.625
 91  5 21 18 10 29.9990000  0  5G18G 2G11G19G16
  20634639.573     -195425.844 7   -144324.07623        24.750           3.219
  23102206.526    -6718155.899 6  -5064528.69821        13.500           0.625
  23469680.097    -5447982.095 5  -4102934.97221        11.250           0.406
  20349858.081    -2267314.411 7  -1707659.61522        21.250           1.781
  23586262.831    -3407868.492 6  -2475033.99821        12.250           0.656
 91  5 21 18 10 44.9990000  0  5G18G 2G11G19G16
  20634837.722     -194396.195 7   -143521.78323        25.000           3.219
  23088360.730    -6790915.964 6  -5121224.78721        13.250           0.688
  23458865.003    -5504817.159 5  -4147221.98321        11.750           0.531
  20345309.409    -2291220.873 7  -1726288.03822        21.250           1.813
  23576095.136    -3461297.028 6  -2516666.58321        12.250           0.656
 91  5 21 18 10 59.9990000  0  5G18G 2G11G19G16
  20635047.511     -193291.816 7   -142661.26123        25.000           3.281
  23074518.245    -6863655.600 6  -5177904.94621        13.000           0.750
  23448063.034    -5561580.235 5  -4191452.89421        11.500           0.438
  20340768.401    -2315103.606 7  -1744897.96722        20.500           1.875
  23565942.839    -3514634.984 6  -2558228.60921        12.000           0.750
 91  5 21 18 11 14.9990000  0  5G18G 2G11G19G16
  20635270.698     -192116.662 7   -141745.58923        24.750           3.313
  23060678.409    -6936378.436 6  -5234572.01621        13.250           0.781
  23437273.214    -5618274.835 5  -4235630.45321        11.500           0.500
  20336223.292    -2338966.428 7  -1763492.88122        21.250           1.813
  23555809.964    -3567885.972 6  -2599722.85721        12.000           0.781
 91  5 21 18 11 29.9990000  0  5G18G 2G11G19G16
  20635507.409     -190871.566 7   -140775.40923        24.500           3.281
  23046845.995    -7009084.893 6  -5291226.31421        14.250           0.813
  23426498.097    -5674901.147 5  -4279754.79921        11.750           0.500
  20331689.847    -2362809.837 7  -1782072.16022        20.750           1.719
  23545693.120    -3621050.386 6  -2641149.65621        12.000           0.594
 91  5 21 18 11 44.9990000  0  5G18G 2G11G19G16
  20635757.667     -189557.234 7   -139751.28523        24.500           3.344
  23033013.237    -7081775.503 6  -5347868.28021        14.000           0.656
  23415733.222    -5731459.528 5  -4323826.22321        11.750           0.469
  20327152.956    -2386634.681 7  -1800636.98222        21.500           1.906
  23535592.597    -3674128.709 6  -2682509.34321        12.000           0.688
 91  5 21 18 11 59.9990000  0  5G18G 2G11G19G16
  20636023.269     -188167.985 7   -138668.78523        24.500           3.094
  23019183.495    -7154444.392 6  -5404493.32321        14.000           0.688
  23404985.964    -5787944.021 5  -4367840.05121        11.750           0.469
  20322625.698    -2410435.246 7  -1819182.87722        20.750           1.844
  23525510.456    -3727115.365 5  -2723797.63321        11.750           0.656
 91  5 21 18 12 14.9990000  0  5G18G 2G11G19G16
  20636298.636     -186717.626 7   -137538.66923        24.250           3.250
  23005356.417    -7227104.994 6  -5461111.91621        13.750           0.688
  23394248.917    -5844367.844 5  -4411806.61621        11.750           0.375
  20318095.526    -2434225.121 7  -1837720.44622        21.250           1.781
  23515443.276    -3780023.704 6  -2765024.88421        12.500           0.781
 91  5 21 18 12 29.9990000  0  5G18G 2G11G19G16
  20636588.206     -185193.502 7   -136351.07423        24.500           3.313
  22991533.737    -7299744.442 6  -5517714.00521        13.750           0.719
  23383526.948    -5900717.988 5  -4455715.77221        11.750           0.406
  20313576.276    -2457991.639 7  -1856239.81522        20.750           1.938
  23505390.089    -3832840.629 6  -2806180.90121        12.250           0.656
 91  5 21 18 12 44.9990000  0  5G18G 2G11G19G16
  20636891.347     -183602.507 7   -135111.36823        24.250           3.250
  22977714.112    -7372369.203 6  -5574304.65821        13.750           0.719
  23372815.237    -5957000.672 5  -4499572.35621        11.750           0.344
  20309055.003    -2481741.548 7  -1874746.24122        21.250           1.844
  23495357.917    -3885572.235 6  -2847270.43921        12.250           0.688
 91  5 21 18 12 59.9990000  0  5G18G 2G11G19G16
  20637207.964     -181942.151 7   -133817.61723        24.500           3.281
  22963897.480    -7444976.736 6  -5630881.89121        14.250           0.563
  23362121.065    -6013213.123 6  -4543374.22421        12.250           0.438
  20304540.190    -2505472.563 7  -1893237.94222        21.000           1.875
  23485339.308    -3938216.280 6  -2888291.73921        12.000           0.656
 91  5 21 18 13 14.9990000  0  5G18G 2G11G19G16
  20637534.683     -180218.195 7   -132474.31323        24.000           3.281
  22950082.987    -7517572.497 6  -5687449.95021        14.500           0.688
  23351436.987    -6069360.837 6  -4587125.64421        12.500           0.438
  20300026.175    -2529190.335 7  -1911719.33622        21.750           1.875
  23475337.448    -3990778.515 5  -2929249.30721        11.750           0.656
 91  5 21 18 13 29.9990000  0  5G18G 2G11G19G16
  20637875.026     -178428.948 7   -131080.11723        24.000           3.250
  22936271.409    -7590154.677 6  -5744007.42721        14.750           0.750
  23340763.167    -6125441.481 6  -4630824.79721        12.250           0.500
  20295515.019    -2552893.162 7  -1930189.06622        21.500           1.906
  23465350.925    -4043256.679 5  -2970141.34721        11.750           0.656
 91  5 21 18 13 44.9990000  0  5G18G 2G11G19G16
  20638228.901     -176573.373 7   -129634.24823        24.000           3.250
  22922461.690    -7662721.734 6  -5800553.12021        14.500           0.656
  23330104.034    -6181453.625 6  -4674470.57621        12.000           0.469
  20291008.058    -2576579.748 7  -1948646.15122        21.750           1.844
  23455380.620    -4095649.408 6  -3010966.82621        12.000           0.688
 91  5 21 18 13 59.9990000  0  5G18G 2G11G19G16
  20638595.339     -174647.309 7   -128133.45223        24.250           3.250
  22908655.776    -7735269.296 6  -5857083.63821        14.250           0.656
  23319460.355    -6237392.578 6  -4718059.32521        12.250           0.469
  20286503.815    -2600245.801 7  -1967087.23322        21.750           1.938
  23445427.081    -4147952.157 6  -3051722.17621        12.000           0.719
 91  5 21 18 14 14.9990000  0  5G18G 2G11G19G16
  20638976.026     -172653.668 7   -126580.00023        24.250           3.156
  22894853.698    -7807800.158 6  -5913601.11821        14.750           0.813
  23308826.667    -6293260.875 5  -4761593.01821        11.750           0.500
  20282004.394    -2623894.344 7  -1985514.66922        21.750           1.906
  23435493.183    -4200167.781 6  -3092409.65721        12.000           0.656
 91  5 21 18 14 29.9990000  0  5G18G 2G11G19G16
  20639367.355     -170591.139 7   -124972.87023        24.000           3.250
  22881054.644    -7880312.357 6  -5970104.07321        14.250           0.781
  23298210.167    -6349056.464 6  -4805070.05721        12.000           0.469
  20277507.378    -2647523.736 7  -2003927.19222        21.750           1.938
  23425569.800    -4252294.323 5  -3133027.71521        11.500           0.688
 91  5 21 18 14 44.9990000  0  6G18G 2G11G19G16G 6
  20639772.776     -168460.296 7   -123312.50423        24.000           3.219
  22867258.894    -7952806.592 6  -6026593.02521        14.750           0.813
  23287606.730    -6404779.790 6  -4848490.79321        12.000           0.438
  20273015.933    -2671134.751 7  -2022325.38222        21.500           1.875
  23415666.940    -4304331.976 5  -3173576.50921        11.500           0.656
  24052943.058          -0.95015                         8.000
 91  5 21 18 14 59.9980000  0  6G18G 2G11G19G16G 6
  20640190.365     -166270.566 7   -121606.25723        24.250           3.188
  22853467.686    -8025287.000 6  -6083071.20521        15.000           0.969
  23277015.311    -6460435.948 6  -4891859.18421        12.000           0.344
  20268523.717    -2694734.898 7  -2040715.61022        21.250           1.813
  23405784.873    -4356286.593 6  -3214060.60521        12.000           0.594
  24040924.295      -63153.601 5                         7.750
 91  5 21 18 15 14.9980000  0  6G18G 2G11G19G16G 6
  20640620.600     -164012.129 7   -119846.47523        24.000           3.125
  22839677.178    -8097753.333 6  -6139538.41321        15.250           0.844
  23266438.803    -6516022.229 6  -4935173.12521        12.000           0.406
  20264035.717    -2718317.794 7  -2059091.90322        21.500           1.844
  23395910.006    -4408155.354 5  -3254477.79421        11.500           0.656
  24028903.803     -126321.385 4                         7.000
 91  5 21 18 15 29.9980000  0  6G18G 2G11G19G16G 6
  20641062.553     -161689.038 7   -118036.31523        24.500           3.156
  22825890.881    -8170204.188 6  -6195993.56121        14.750           0.938
  23255873.615    -6571538.432 5  -4978432.44521        11.750           0.469
  20259551.865    -2741885.664 7  -2077456.47422        21.500           1.938
  23386058.803    -4459938.189 5  -3294828.03321        11.500           0.656
  24016883.115     -189503.951 5                         7.500
 91  5 21 18 15 44.9980000  0  6G18G 2G11G19G16G 6
  20641516.381     -159296.325 7   -116171.90123        24.250           3.219
  22812106.647    -8242634.513 6  -6252432.70821        15.000           0.906
  23245323.943    -6626979.200 6  -5021633.00921        12.000           0.406
  20255071.295    -2765433.548 7  -2095805.48122        21.500           1.969
  23376221.303    -4511629.750 6  -3335107.14721        12.000           0.656
  24004856.482     -252696.216 5                         8.250
 91  5 21 18 15 59.9980000  0  6G18G 2G11G19G16G 6
  20641987.311     -156832.054 7   -114251.72523        24.500           3.125
  22798328.420    -8315042.150 6  -6308854.18021        15.000           0.750
  23234788.701    -6682342.224 6  -5064772.98321        12.000           0.438
  20250596.076    -2788959.255 7  -2114137.70222        20.750           1.938
  23366404.553    -4563228.239 5  -3375313.72921        11.750           0.563
  23992828.389     -315896.231 5        -0.28431         8.250           0.219
 91  5 21 18 16 14.9980000  0  6G18G 2G11G19G16G 6
  20642467.131     -154305.343 7   -112282.90523        24.250           3.094
  22784551.568    -8387435.921 6  -6365264.86221        15.000           0.844
  23224264.475    -6737636.146 6  -5107859.11321        12.000           0.375
  20246119.936    -2812471.873 7  -2132459.23122        21.500           1.875
  23356601.232    -4614742.420 5  -3415454.62721        11.750           0.719
  23980799.592     -379113.076 5    -49260.11621         7.500           0.344
 91  5 21 18 16 29.9980000  0  6G18G 2G11G19G16G 6
  20642960.037     -151712.484 7   -110262.53623        24.500           3.063
  22770780.381    -8459811.837 6  -6421661.61521        15.500           0.969
  23213757.522    -6792856.829 6  -5150888.18621        12.000           0.531
  20241648.053    -2835967.661 7  -2150767.63822        21.500           1.906
  23346815.131    -4666168.130 5  -3455526.58321        11.750           0.719
  23968771.381     -442342.968 5    -98530.03921         7.750           0.281
 91  5 21 18 16 44.9980000  0  6G18G 2G11G19G16G 6
  20643467.014     -149052.941 7   -108190.20723        24.000           3.031
  22757008.279    -8532169.197 6  -6478043.90521        15.500           0.906
  23203263.248    -6848003.368 6  -5193859.45921        12.250           0.375
  20237181.498    -2859446.037 7  -2169062.48522        21.500           1.781
  23337043.389    -4717504.547 5  -3495528.97021        11.250           0.656
  23956736.740     -505585.315 5   -147809.69721         8.500           0.281
 91  5 21 18 16 59.9980000  0  6G18G 2G11G19G16G 6
  20643985.514     -146323.910 7   -106063.72623        24.250           3.031
  22743246.186    -8604504.823 6  -6534409.26821        15.000           0.906
  23192785.850    -6903072.484 6  -5236770.41021        12.500           0.438
  20232716.600    -2882904.124 7  -2187341.52322        21.500           1.906
  23327292.693    -4768748.549 5  -3535459.34021        11.250           0.656
  23944690.717     -568837.243 5   -197096.85721         8.000           0.281
 91  5 21 18 17 14.9980000  0  6G18G 2G11G19G16G 6
  20644517.225     -143528.880 7   -103885.82123        24.250           2.969
  22729483.037    -8676821.673 6  -6590759.99621        15.000           1.000
  23182320.748    -6958066.976 6  -5279623.22621        12.750           0.500
  20228256.256    -2906345.021 7  -2205607.16422        21.500           1.969
  23317557.451    -4819903.180 5  -3575320.07621        11.500           0.656
  23932658.670     -632102.005 5   -246393.98321         8.500           0.344
 91  5 21 18 17 29.9980000  0  6G18G 2G11G19G16G 6
  20645061.912     -140670.086 7   -101658.23323        24.250           2.969
  22715727.654    -8749122.057 6  -6647097.89321        15.250           1.000
  23171867.592    -7012988.849 6  -5322419.45621        12.500           0.531
  20223796.686    -2929771.155 7  -2223861.31622        21.000           1.844
  23307842.647    -4870970.957 6  -3615113.14221        12.000           0.531
  23920616.959     -695381.903 5   -295702.92721         8.000           0.313
 91  5 21 18 17 44.9980000  0  6G18G 2G11G19G16G 6
  20645619.725     -137736.724 7    -99372.53223        24.500           2.969
  22701972.865    -8821394.535 6  -6703414.03821        15.750           0.906
  23161433.404    -7067826.576 6  -5365150.09821        12.500           0.531
  20219344.014    -2953171.374 7  -2242095.24922        20.750           1.875
  23298141.193    -4921940.129 5  -3654829.35521        11.500           0.656
  23908573.553     -758665.857 5   -345015.00821         8.000           0.313
 91  5 21 18 17 59.9980000  0  6G18G 2G11G19G16G 6
  20646191.701     -134732.011 7    -97031.23723        24.500           2.969
  22688224.811    -8893642.392 6  -6759711.00021        15.750           0.938
  23151011.951    -7122583.125 6  -5407817.48721        12.500           0.500
  20214893.639    -2976549.113 7  -2260311.67322        21.000           1.781
  23288461.147    -4972813.908 6  -3694471.23221        12.000           0.625
  23896526.209     -821957.155 5   -394332.80321         8.000           0.156
 91  5 21 18 18 14.9980000  0  6G18G 2G11G19G16G 6
  20646776.725     -131659.641 7    -94637.23023        24.500           2.906
  22674481.436    -8965868.930 6  -6815991.36821        15.750           0.875
  23140607.904    -7177261.713 6  -5450424.14021        12.500           0.500
  20210449.420    -2999907.644 7  -2278513.13722        20.500           1.875
  23278798.272    -5023595.643 6  -3734041.39721        12.000           0.688
  23884490.006     -885259.312 5   -443659.11021         9.250           0.313
 91  5 21 18 18 29.9980000  0  6G18G 2G11G19G16G 6
  20647373.967     -128517.523 7    -92188.86023        24.500           2.938
  22660739.943    -9038071.786 6  -6872253.27121        15.750           0.938
  23130219.990    -7231859.839 6  -5492968.08521        12.500           0.531
  20206008.225    -3023244.980 7  -2296698.07822        21.000           1.875
  23269152.803    -5074282.860 6  -3773537.91321        12.500           0.719
  23872436.193     -948570.367 5   -492992.30921         8.500           0.313
 91  5 21 18 18 44.9980000  0  6G18G 2G11G19G16G 6
  20647985.600     -125304.766 7    -89685.45323        24.750           2.844
  22647005.193    -9110249.874 6  -6928495.86621        15.250           0.938
  23119843.553    -7286376.337 6  -5535448.43821        12.000           0.438
  20201572.201    -3046560.236 7  -2314865.81522        20.750           1.750
  23259525.514    -5124874.933 6  -3812960.28421        12.500           0.594
  23860380.709    -1011889.270 5   -542331.62821         7.750           0.406
 91  5 21 18 18 59.9980000  0  6G18G 2G11G19G16G 6
  20648610.264     -122019.681 7    -87125.69523        24.500           3.000
  22633275.506    -9182401.138 6  -6984717.55921        15.750           1.031
  23109485.482    -7340808.920 6  -5577863.39621        12.000           0.500
  20197139.092    -3069851.694 7  -2333015.00922        21.000           1.781
  23249914.662    -5175369.403 5  -3852306.61421        11.750           0.594
  23848335.482    -1075214.209 5   -591675.63721         8.250           0.281
 91  5 21 18 19 14.9980000  0  6G18G 2G11G19G16G 6
  20649250.404     -118658.564 7    -84506.68423        24.250           2.906
  22619551.639    -9254521.631 6  -7040915.27921        16.500           0.969
  23099145.053    -7395153.463 6  -5620209.75521        12.000           0.563
  20192714.154    -3093115.364 7  -2351142.54722        21.000           1.969
  23240326.881    -5225762.212 6  -3891573.72421        12.250           0.656
  23836286.303    -1138541.352 5   -641021.40021         8.750           0.406
 91  5 21 18 19 29.9980000  0  6G18G 2G11G19G16G 6
  20649903.084     -115231.866 7    -81836.56623        24.500           2.906
  22605830.334    -9326621.432 6  -7097096.88121        16.000           1.031
  23088816.654    -7449419.869 6  -5662495.21521        12.000           0.500
  20188291.998    -3116361.600 7  -2369256.49622        21.500           1.938
  23230754.701    -5276063.628 5  -3930769.62221        11.500           0.688
  23824233.764    -1201881.097 5   -690376.96221         8.750           0.250
 91  5 21 18 19 44.9980000  0  6G18G 2G11G19G16G 6
  20650568.811     -111732.464 7    -79109.80123        24.500           2.969
  22592115.053    -9398693.104 6  -7153256.55121        16.250           1.000
  23078508.482    -7503600.435 6  -5704713.79621        12.250           0.438
  20183872.725    -3139582.920 7  -2387351.53722        21.250           1.969
  23221202.154    -5326266.231 6  -3969888.51921        12.000           0.625
  23812177.006    -1265226.092 5   -739736.63421         8.000           0.375
 91  5 21 18 19 59.9980000  0  6G18G 2G11G19G16G 6
  20651248.217     -108163.110 7    -76328.52823        24.500           2.781
  22578406.514    -9470739.173 6  -7209396.27721        16.500           1.000
  23068212.990    -7557697.626 6  -5746867.41721        12.000           0.469
  20179457.412    -3162782.287 7  -2405428.96822        21.250           1.906
  23211667.256    -5376372.710 5  -4008932.51221        11.750           0.563
  23800122.443    -1328579.037 5   -789102.46021         7.750           0.313
 91  5 21 18 20 14.9980000  0  6G18G 2G11G19G16G 6
  20651939.928     -104524.108 7    -73492.98523        25.000           2.813
  22564700.178    -9542759.645 6  -7265516.08321        16.000           0.969
  23057933.178    -7611711.246 6  -5788955.90121        12.000           0.531
  20175046.943    -3185959.840 7  -2423489.40622        21.500           1.938
  23202148.053    -5426382.600 5  -4047901.23821        11.250           0.719
  23788066.818    -1391940.246 5   -838474.73321         8.000           0.313
 91  5 21 18 20 29.9980000  0  6G18G 2G11G19G16G 6
  20652647.475     -100812.459 7    -70600.82623        25.250           2.844
  22551002.006    -9614751.381 6  -7321613.45621        15.500           1.063
  23047671.170    -7665638.043 6  -5830976.72621        12.000           0.594
  20170640.889    -3209112.631 7  -2441531.04222        21.500           1.875
  23192653.803    -5476293.083 6  -4086792.50721        12.000           0.688
  23776004.092    -1455306.646 5   -887851.05421         8.250           0.313
 91  5 21 18 20 44.9980000  0  6G18G 2G11G19G16G 6
  20653365.693      -97030.160 7    -67653.62423        24.750           2.813
  22537306.928    -9686716.040 6  -7377689.75421        16.000           1.000
  23037426.357    -7719479.597 6  -5872931.15321        12.250           0.500
  20166238.053    -3232242.602 7  -2459554.40622        21.000           1.906
  23183173.272    -5526105.789 6  -4125607.58921        12.250           0.719
  23763941.842    -1518680.237 5   -937233.00221         8.000           0.438
 91  5 21 18 20 59.9980000  0  6G18G 2G11G19G16G 6
  20654100.545      -93174.028 7    -64648.88723        24.750           2.719
  22523617.654    -9758650.209 6  -7433742.28421        16.250           1.125
  23027199.943    -7773232.364 6  -5914816.38621        12.500           0.594
  20161839.951    -3255346.530 7  -2477557.47222        21.500           1.938
  23173713.061    -5575817.339 6  -4164343.84621        12.250           0.656
  23751887.170    -1582057.785 5   -986618.01321         8.500           0.313
 91  5 21 18 21 14.9980000  0  6G18G 2G11G19G16G 6
  20654848.467      -89246.637 7    -61588.62223        24.750           2.938
  22509935.279    -9830555.925 6  -7489772.65021        16.000           1.031
  23016986.647    -7826898.076 6  -5956633.77221        12.000           0.625
  20157451.576    -3278426.523 7  -2495541.88622        21.250           1.938
  23164273.881    -5625429.719 6  -4203002.82921        12.500           0.688
  23739823.357    -1645441.472 5  -1036007.80221         7.750           0.375
 91  5 21 18 21 29.9980000  0  6G18G 2G11G19G16G 6
  20655608.920      -85250.499 7    -58474.78123        24.750           2.750
  22496257.029    -9902435.761 6  -7545782.83721        16.250           1.156
  23006789.389    -7880479.052 6  -5998385.15321        12.000           0.594
  20153063.240    -3301485.201 7  -2513509.69722        21.250           1.875
  23154849.772    -5674945.513 6  -4241586.53521        12.250           0.719
  23727757.725    -1708833.935 5  -1085404.42421         7.750           0.375
 91  5 21 18 21 44.9980000  0  6G18G 2G11G19G16G 6
  20656382.967      -81183.375 7    -55305.63423        24.750           2.781
  22482583.850    -9974286.871 6  -7601770.64821        16.250           1.125
  22996609.975    -7933972.440 6  -6040068.26021        12.250           0.563
  20148680.420    -3324520.075 7  -2531458.94922        21.000           1.969
  23145447.897    -5724362.046 6  -4280092.92421        12.500           0.688
  23715698.287    -1772232.635 5  -1134805.92821         8.250           0.250
 91  5 21 18 21 59.9980000  0  6G18G 2G11G19G16G 6
  20657170.100      -77042.774 7    -52079.23123        24.250           2.781
  22468917.545   -10046106.543 6  -7657733.95921        16.500           1.125
  22986447.451    -7987375.284 6  -6081680.83121        12.000           0.531
  20144301.186    -3347528.472 7  -2549387.58322        21.000           1.938
  23136063.139    -5773676.520 6  -4318519.74721        12.500           0.688
  23703635.795    -1835635.092 5  -1184210.33921         8.500           0.313
 91  5 21 18 22 14.9980000  0  6G18G 2G11G19G16G 6
  20657972.709      -72829.410 7    -48796.13323        24.750           2.719
  22455255.131   -10117895.391 6  -7713673.25521        16.750           1.094
  22976302.779    -8040688.050 6  -6123223.19121        12.250           0.625
  20139927.779    -3370511.098 7  -2567296.12222        20.500           1.938
  23126695.272    -5822889.377 5  -4356867.41121        11.750           0.750
  23691564.475    -1899041.979 5  -1233618.22221         7.750           0.375
 91  5 21 18 22 29.9980000  0  6G18G 2G11G19G16G 6
  20658786.131      -68546.412 7    -45458.77423        24.250           2.813
  22441601.045   -10189655.970 6  -7769590.52321        17.000           1.188
  22966175.772    -8093913.297 6  -6164697.37521        12.250           0.500
  20135558.662    -3393470.815 7  -2585186.82022        20.000           1.938
  23117354.732    -5872003.486 6  -4395138.13521        13.750           0.656
  23679499.107    -1962456.162 5  -1283031.77221         7.750           0.406
 91  5 21 18 22 44.9980000  0  6G18G 2G11G19G16G 6
  20659616.615      -64189.663 7    -42063.94323        25.000           2.750
  22427952.850   -10261383.912 6  -7825482.35921        17.000           1.250
  22956062.943    -8147046.587 6  -6206099.88821        12.250           0.563
  20131194.287    -3416403.640 7  -2603056.56022        20.750           1.875
  23108017.678    -5921014.345 5  -4433328.37121        10.750           0.688
  23667430.725    -2025873.669 5  -1332447.93021         8.500           0.344
 91  5 21 18 22 59.9980000  0  6G18G 2G11G19G16G 6
  20660460.045      -59759.092 7    -38611.59123        24.750           2.813
  22414307.787   -10333079.060 6  -7881348.63821        16.500           1.125
  22945971.482    -8200087.360 6  -6247430.33021        12.500           0.531
  20126836.490    -3439309.340 7  -2620905.16422        20.750           1.938
  23098719.475    -5969921.521 6  -4471437.88321        12.250           0.688
  23655361.795    -2089294.279 5  -1381866.47721         8.500           0.344
 91  5 21 18 23 14.9980000  0  6G18G 2G11G19G16G 6
  20661316.092      -55254.975 7    -35101.93223        24.500           2.719
  22400671.279   -10404741.540 6  -7937189.46221        16.250           1.156
  22935894.959    -8253035.424 6  -6288688.50921        12.000           0.594
  20122482.490    -3462188.117 7  -2638732.79722        20.500           1.875
  23089432.545    -6018725.196 6  -4509466.67821        13.250           0.656
  23643294.295    -2152718.149 5  -1431287.58021         9.250           0.344
 91  5 21 18 23 29.9980000  0  6G18G 2G11G19G16G 6
  20662187.404      -50682.027 7    -31538.63523        24.750           2.750
  22387039.920   -10476375.656 6  -7993008.17921        16.500           1.188
  22925835.248    -8305895.061 6  -6329877.79121        12.250           0.563
  20118136.436    -3485044.554 6  -2656543.00722        19.750           1.875
  23080157.811    -6067429.796 5  -4547418.29221        11.250           0.719
  23631219.709    -2216149.926 5  -1480714.85521         8.250           0.313
 91  5 21 18 23 44.9980000  0  6G18G 2G11G19G16G 6
  20663070.912      -46033.906 7    -27916.76623        24.000           2.781
  22373415.092   -10547974.617 6  -8048799.49421        17.250           1.031
  22915797.397    -8358659.396 6  -6370992.81021        12.250           0.594
  20113788.857    -3507872.064 7  -2674330.68922        20.750           1.844
  23070917.779    -6116028.540 6  -4585287.45121        13.500           0.688
  23619150.928    -2279583.114 5  -1530143.21921         8.250           0.344
 91  5 21 18 23 59.9980000  0  6G18G 2G11G19G16G 6
  20663970.654      -41311.922 7    -24237.33823        24.250           2.875
  22359795.662   -10619539.562 6  -8104564.33221        17.250           1.031
  22905770.006    -8411329.461 6  -6412034.37921        12.000           0.531
  20109452.842    -3530671.874 7  -2692096.78022        20.000           1.781
  23061687.686    -6164522.619 6  -4623074.98921        12.250           0.750
  23607079.006    -2343018.936 5  -1579573.60821         9.000           0.406
 91  5 21 18 24 14.9980000  0  6G18G 2G11G19G16G 6
  20664882.365      -36516.106 7    -20500.38223        24.250           2.906
  22346182.451   -10691070.264 6  -8160302.47721        17.000           1.125
  22895766.514    -8463904.881 6  -6453002.19021        12.250           0.531
  20105117.561    -3553443.915 7  -2709841.23922        21.000           1.938
  23052476.498    -6212911.760 6  -4660780.84321        12.000           0.625
  23595007.076    -2406457.367 5  -1629006.07921         8.500           0.281
 91  5 21 18 24 29.9980000  0  6G18G 2G11G19G16G 6
  20665809.928      -31643.963 7    -16703.94523        24.000           2.750
  22332580.170   -10762563.974 6  -8216011.78121        17.750           1.250
  22885782.139    -8516382.703 6  -6493893.96521        12.250           0.531
  20100791.545    -3576185.928 7  -2727562.30222        20.000           1.813
  23043292.607    -6261193.404 6  -4698402.86321        13.000           0.719
  23582932.115    -2469895.859 5  -1678438.56721         8.500           0.406
 91  5 21 18 24 44.9980000  0  6G18G 2G11G19G16G 6
  20666751.678      -26695.565 7    -12848.09623        24.500           2.875
  22318982.467   -10834020.235 6  -8271691.91721        16.750           1.156
  22875813.045    -8568762.496 6  -6534709.34821        12.250           0.563
  20096468.842    -3598897.584 7  -2745259.70622        20.750           1.781
  23034120.428    -6309367.225 6  -4735940.89821        12.000           0.813
  23570866.537    -2533334.326 5  -1727871.07321         8.750           0.313
 91  5 21 18 24 59.9980000  0  6G18G 2G11G19G16G 6
  20667706.326      -21673.895 7     -8935.14223        24.250           2.938
  22305389.818   -10905441.932 6  -8327345.10221        16.500           1.063
  22865862.553    -8621046.807 6  -6575450.31921        12.000           0.531
  20092150.037    -3621581.754 7  -2762935.68822        20.750           1.750
  23024975.982    -6357435.833 6  -4773396.94621        13.250           0.688
  23558791.576    -2596775.581 5  -1777305.70321         8.250           0.375
 91  5 21 18 25 14.9980000  0  6G18G 2G11G19G16G 6
  20668678.272      -16576.840 7     -4963.45523        24.250           2.844
  22291807.811   -10976826.510 6  -8382969.38221        17.500           1.156
  22855932.639    -8673232.992 6  -6616114.84021        12.250           0.594
  20087838.803    -3644236.057 7  -2780588.40122        20.500           1.781
  23015846.959    -6405396.719 6  -4810769.03421        12.000           0.594
  23546716.303    -2660217.385 5  -1826740.76921         8.500           0.281
 91  5 21 18 25 29.9980000  0  6G18G 2G11G19G16G 6
  20669661.717      -11407.646 7      -935.55623        24.500           2.844
  22278228.943   -11048176.903 6  -8438567.01421        17.750           1.188
  22846019.115    -8725323.811 6  -6656705.03821        12.250           0.656
  20083534.303    -3666863.640 6  -2798220.29122        19.750           1.781
  23006743.850    -6453253.025 6  -4848059.66121        13.250           0.656
  23534640.397    -2723662.799 5  -1876178.64621         8.500           0.438
 91  5 21 18 25 44.9980000  0  6G18G 2G11G19G16G 6
  20670659.475       -6161.745 7      3152.11423        24.250           2.875
  22264659.857   -11119488.537 6  -8494134.45421        17.250           1.031
  22836126.373    -8777314.483 6  -6697217.22121        12.250           0.594
  20079234.147    -3689460.070 7  -2815827.90722        20.250           1.844
  22997656.803    -6501000.203 6  -4885265.21921        13.250           0.750
  23522574.889    -2787107.516 5  -1925616.02321         9.000           0.313
 91  5 21 18 25 59.9980000  0  6G18G 2G11G19G16G 6
  20671670.693        -848.483 7      7292.27723        24.000           2.938
  22251093.467   -11190770.380 6  -8549678.67821        17.250           1.063
  22826250.795    -8829213.774 6  -6737658.18621        12.250           0.625
  20074938.256    -3712034.320 7  -2833418.24422        20.500           1.719
  22988590.217    -6548646.564 6  -4922392.25121        13.000           0.656
  23510501.404    -2850560.533 5  -1975059.84621         8.750           0.344
 91  5 21 18 26 14.9980000  0  6G18G 2G11G19G16G 6
  20672692.326        4520.381 7     11475.75323        24.000           2.813
  22237533.420   -11262034.002 6  -8605208.72021        17.250           1.219
  22816389.311    -8881033.149 6  -6778036.87521        12.250           0.469
  20070644.592    -3734598.066 7  -2851000.39222        20.500           1.719
  22979541.787    -6596204.118 6  -4959450.06321        13.250           0.750
  23498414.412    -2914033.544 5  -2024519.22921         8.000           0.438
 91  5 21 18 26 29.9980000  0  6G18G 2G11G19G16G 6
  20673727.639        9963.434 7     15717.05623        24.000           2.813
  22223978.850   -11333260.321 6  -8660709.65821        17.000           1.250
  22806547.420    -8932753.423 6  -6818338.36021        12.750           0.531
  20066356.561    -3757132.470 7  -2868559.67822        20.750           1.875
  22970511.982    -6643653.995 6  -4996423.98221        13.000           0.688
  23486334.787    -2977507.763 5  -2073979.55121         8.000           0.531
 91  5 21 18 26 44.9980000  0  6G18G 2G11G19G16G 6
  20674776.998       15485.754 7     20020.11923        23.500           2.813
  22210434.022   -11404444.295 6  -8716177.59621        17.000           1.094
  22796724.826    -8984369.237 6  -6858558.42921        12.250           0.531
  20062075.592    -3779632.572 7  -2886092.22422        20.750           1.750
  22961504.365    -6690990.992 6  -5033309.93321        13.500           0.750
  23474262.568    -3040978.199 5  -2123436.92521         9.250           0.375
 91  5 21 18 26 59.9980000  0  6G18G 2G11G19G16G 6
  20675842.623       21080.958 7     24379.97323        23.250           2.906
  22196895.365   -11475591.696 6  -8771617.06921        17.500           1.031
  22786920.889    -9035886.404 6  -6898701.62921        12.500           0.594
  20057798.107    -3802104.562 7  -2903602.88022        20.750           1.813
  22952513.404    -6738221.038 6  -5070112.55221        12.750           0.656
  23462189.639    -3104451.048 5  -2172896.21421         9.500           0.469
 91  5 21 18 27 14.9980000  0  6G18G 2G11G19G16G 6
  20676923.647       26751.113 7     28798.22423        23.500           2.875
  22183364.740   -11546700.151 6  -8827026.18621        17.750           1.219
  22777138.178    -9087302.403 6  -6938766.01821        12.750           0.594
  20053527.381    -3824546.177 7  -2921089.86022        20.250           1.781
  22943550.248    -6785341.632 6  -5106829.88721        13.500           0.750
  23450105.045    -3167924.044 5  -2222355.61121         8.500           0.469
 91  5 21 18 27 29.9980000  0  6G18G 2G11G19G16G 6
  20678016.240       32501.689 7     33279.14923        23.750           2.906
  22169839.553   -11617763.981 6  -8882400.52221        17.750           1.125
  22767375.506    -9138611.500 6  -6978747.08821        13.000           0.469
  20049263.897    -3846951.760 7  -2938548.76622        20.500           1.719
  22934602.217    -6832347.477 6  -5143457.79821        12.750           0.781
  23438023.553    -3231391.752 5  -2271810.86421         8.500           0.531
 91  5 21 18 27 44.9980000  0  6G18G 2G11G19G16G 6
  20679124.568       38325.933 7     37817.47223        23.750           2.906
  22156323.779   -11688789.572 6  -8937745.07621        17.250           1.000
  22757628.670    -9189819.864 6  -7018649.67121        12.750           0.563
  20045005.975    -3869327.990 7  -2955984.79722        20.500           1.813
  22925679.592    -6879244.725 6  -5180001.10221        13.000           0.750
  23425951.514    -3294860.771 5  -2321267.15421         8.750           0.531
 91  5 21 18 27 59.9980000  0  6G18G 2G11G19G16G 6
  20680249.162       44228.905 7     42417.14923        23.250           2.875
  22142817.600   -11759771.550 6  -8993055.63321        18.000           1.000
  22747904.592    -9240921.819 6  -7058469.33221        12.500           0.625
  20040753.951    -3891669.477 7  -2973393.75222        20.500           1.813
  22916775.756    -6926027.832 6  -5216455.43921        13.000           0.688
  23413872.693    -3358325.660 5  -2370720.21821         9.250           0.469
 91  5 21 18 28 14.9980000  0  6G18G 2G11G19G16G 6
  20681385.951       50203.861 7     47072.90923        23.500           2.969
  22129316.084   -11830716.354 6  -9048337.24821        18.000           1.313
  22738199.467    -9291923.719 6  -7098211.03021        12.250           0.563
  20036509.795    -3913983.056 7  -2990780.97222        20.750           1.813
  22907895.756    -6972703.521 6  -5252826.09521        13.000           0.781
  23401796.029    -3421793.102 5  -2420175.29121         9.250           0.438
 91  5 21 18 28 29.9980000  0  6G18G 2G11G19G16G 6
  20682536.607       56255.072 7     51788.09923        23.750           2.844
  22115824.295   -11901619.622 6  -9103586.46721        17.750           1.094
  22728513.397    -9342821.120 6  -7137871.31521        12.500           0.594
  20032271.365    -3936264.488 7  -3008143.13022        20.000           1.875
  22899033.061    -7019267.284 6  -5289109.52621        12.750           0.750
  23389717.951    -3485258.982 5  -2469629.13921         9.000           0.594
 91  5 21 18 28 44.9980000  0  6G18G 2G11G19G16G 6
  20683702.022       62378.797 7     56559.78023        23.500           2.875
  22102339.654   -11972484.605 6  -9158805.84921        18.250           1.156
  22718848.272    -9393617.334 6  -7177452.73221        12.500           0.625
  20028034.326    -3958517.154 7  -3025482.88122        20.750           1.719
  22890193.982    -7065722.548 6  -5325308.43621        13.000           0.719
  23377635.342    -3548726.894 5  -2519084.55521         8.500           0.469
 91  5 21 18 28 59.9970000  0  6G18G 2G11G19G16G 6
  20684882.337       68581.608 7     61393.08523        23.750           2.875
  22088861.485   -12043299.373 6  -9213986.13721        18.000           0.969
  22709202.556    -9444301.510 6  -7216946.86921        12.750           0.656
  20023805.915    -3980732.503 7  -3042793.56522        21.000           1.781
  22881377.321    -7112058.998 6  -5361414.74121        13.000           0.781
  23365564.626    -3612185.473 5  -2568532.70621         9.000           0.438
 91  5 21 18 29 14.9970000  0  6G18G 2G11G19G16G 6
  20686076.673       74859.768 7     66285.12223        23.750           2.938
  22075393.212   -12114077.462 6  -9269137.83321        17.500           1.125
  22699577.157    -9494884.358 6  -7256362.03321        12.750           0.656
  20019584.923    -4002917.745 7  -3060080.77022        20.500           1.875
  22872577.954    -7158286.781 6  -5397436.38121        13.000           0.719
  23353487.931    -3675647.335 5  -2617983.43421         9.500           0.531
 91  5 21 18 29 29.9970000  0  6G18G 2G11G19G16G 6
  20687285.634       81210.158 7     71233.42423        23.500           2.969
  22061931.962   -12184817.001 6  -9324259.47821        18.500           1.063
  22689970.157    -9545365.072 6  -7295697.62421        12.750           0.688
  20015367.532    -4025074.329 7  -3077345.64822        20.500           1.844
  22863804.196    -7204405.640 6  -5433373.14021        13.250           0.719
  23341410.954    -3739111.171 5  -2667435.69521         9.500           0.531
 91  5 21 18 29 44.9970000  0  6G18G 2G11G19G16G 6
  20688508.845       87636.921 7     76241.24123        23.750           2.906
  22048480.704   -12255513.247 6  -9379347.41621        18.500           1.031
  22680385.079    -9595738.937 6  -7334949.95121        12.750           0.594
  20011158.626    -4047197.815 7  -3094584.73822        20.500           1.875
  22855047.384    -7250411.097 6  -5469221.53521        13.000           0.750
  23329332.438    -3802572.654 5  -2716886.11121         8.750           0.531
 91  5 21 18 29 59.9970000  0  6G18G 2G11G19G16G 6
  20689747.345       94141.869 7     81309.99023        23.750           3.000
  22035035.251   -12326164.076 6  -9434399.95121        18.250           1.094
  22670819.571    -9646003.662 6  -7374117.23421        12.500           0.750
  20006955.798    -4069286.390 7  -3111796.63122        20.750           1.813
  22846316.720    -7296301.065 6  -5504979.94721        13.500           0.813
  23317257.118    -3866029.877 5  -2766333.20621         8.500           0.438
 91  5 21 18 30 14.9970000  0  6G18G 2G11G19G16G 6
  20690999.712      100724.604 7     86439.34223        23.750           2.875
  22021599.759   -12396769.620 6  -9489417.18021        18.750           1.094
  22661276.485    -9696159.200 6  -7413199.43221        12.750           0.625
  20002757.978    -4091340.173 7  -3128981.40022        20.500           1.844
  22837602.259    -7342075.606 6  -5540648.40921        12.500           0.688
  23305180.345    -3929483.084 5  -2815777.17121         8.500           0.594
 91  5 21 18 30 29.9970000  0  6G18G 2G11G19G16G 6
  20692266.313      107383.921 7     91628.36823        23.250           2.969
  22008172.149   -12467330.625 6  -9544399.73121        18.000           1.219
  22651752.642    -9746206.265 6  -7452197.10221        12.750           0.625
  19998567.438    -4113360.026 7  -3146139.73022        20.750           1.813
  22828918.493    -7387735.766 6  -5576227.74421        13.750           0.688
  23293109.985    -3992933.223 5  -2865218.75821         9.500           0.563
 91  5 21 18 30 44.9970000  0  6G18G 2G11G19G16G 6
  20693548.376      114118.584 7     96876.10623        23.500           2.875
  21994753.431   -12537848.368 6  -9599348.55821        18.250           1.156
  22642248.313    -9796145.827 6  -7491111.01721        12.750           0.531
  19994384.938    -4135347.212 7  -3163272.61422        20.250           1.844
  22820245.993    -7433282.611 6  -5611718.77621        12.750           0.719
  23281037.868    -4056381.607 5  -2914658.97421         9.250           0.563
 91  5 21 18 30 59.9970000  0  6G18G 2G11G19G16G 6
  20694845.009      120931.939 7    102185.16523        23.500           2.844
  21981342.462   -12608319.198 6  -9654260.82721        18.500           1.156
  22632766.423    -9845974.112 6  -7529938.20821        12.750           0.625
  19990206.946    -4157298.240 7  -3180377.32022        20.750           1.844
  22811606.032    -7478712.482 6  -5647118.67321        13.250           0.719
  23268963.509    -4119824.800 5  -2964095.13921         8.750           0.656
 91  5 21 18 31 14.9970000  0  6G18G 2G11G19G16G 6
  20696155.853      127822.610 7    107554.47123        23.250           2.844
  21967940.376   -12678744.033 6  -9709137.26421        19.000           1.094
  22623305.306    -9895691.922 6  -7568679.31621        12.500           0.688
  19986036.563    -4179214.402 7  -3197454.85222        20.250           1.813
  22802981.540    -7524026.390 6  -5682428.20321        13.500           0.844
  23256894.595    -4183263.998 5  -3013528.18921         8.750           0.500
 91  5 21 18 31 29.9970000  0  6G18G 2G11G19G16G 6
  20697482.243      134791.269 7    112984.54323        23.250           2.875
  21954548.368   -12749122.039 6  -9763977.20821        18.750           1.031
  22613866.313    -9945298.294 6  -7607333.59021        12.500           0.656
  19981872.009    -4201094.865 7  -3214504.57422        20.500           1.813
  22794381.009    -7569223.537 6  -5717646.74321        13.250           0.688
  23244819.610    -4246698.378 5  -3062957.48221         8.750           0.688
 91  5 21 18 31 44.9970000  0  6G18G 2G11G19G16G 6
  20698821.860      141834.060 7    118472.38423        23.250           2.844
  21941164.071   -12819456.450 6  -9818783.18421        19.000           1.250
  22604446.657    -9994796.501 6  -7645903.57121        12.500           0.656
  19977715.876    -4222943.129 7  -3231529.20622        20.500           1.875
  22785799.157    -7614307.232 6  -5752776.89921        12.750           0.625
  23232745.618    -4310131.496 5  -3112385.79321         8.500           0.563
 91  5 21 18 31 59.9970000  0  6G18G 2G11G19G16G 6
  20700177.048      148952.664 7    124019.29223        23.000           2.750
  21927788.517   -12889745.480 6  -9873553.78821        18.500           1.250
  22595048.235   -10044184.627 6  -7684387.79721        12.750           0.625
  19973564.274    -4244757.406 7  -3248527.35422        20.250           1.813
  22777243.618    -7659275.673 6  -5787817.22821        13.500           0.719
  23220675.423    -4373561.790 5  -3161811.91421         8.750           0.500
 91  5 21 18 32 14.9970000  0  6G18G 2G11G19G16G 6
  20701547.587      156150.823 7    129628.20023        23.250           2.719
  21914422.946   -12959985.247 6  -9928286.00221        19.500           1.250
  22585673.079   -10093458.466 6  -7722782.94721        13.000           0.688
  19969420.454    -4266534.044 7  -3265496.17022        20.250           1.844
  22768708.556    -7704125.046 6  -5822764.78321        13.000           0.688
  23208608.470    -4436985.448 5  -3211232.86221         8.750           0.500
 91  5 21 18 32 29.9970000  0  6G18G 2G11G19G16G 6
  20702931.665      163426.262 7    135297.32823        23.000           2.594
  21901065.228   -13030177.664 6  -9982981.33221        19.000           1.281
  22576318.306   -10142619.874 6  -7761090.49821        13.000           0.656
  19965283.517    -4288275.159 7  -3282437.31022        20.250           1.781
  22760198.165    -7748857.311 6  -5857621.09221        13.500           0.781
  23196537.306    -4500404.620 5  -3260650.32221         8.750           0.563
 91  5 21 18 32 44.9970000  0  6G18G 2G11G19G16G 6
  20704329.509      170777.972 7    141025.87823        22.750           2.719
  21887716.642   -13100323.271 6 -10037640.18121        19.500           1.313
  22566982.946   -10191669.151 6  -7799310.67321        12.750           0.656
  19961153.024    -4309981.341 7  -3299351.22422        20.500           1.750
  22751706.806    -7793473.032 6  -5892386.58221        13.000           0.719
  23184471.079    -4563819.821 5  -3310064.67921         8.500           0.531
 91  5 21 18 32 59.9970000  0  6G18G 2G11G19G16G 6
  20705745.142      178210.255 7    146817.21123        23.000           2.531
  21874378.282   -13170417.746 6 -10092259.18821        19.500           1.188
  22557671.634   -10240602.030 6  -7837440.14421        13.000           0.656
  19957028.392    -4331648.406 7  -3316235.15722        20.500           1.875
  22743240.790    -7837968.071 6  -5927058.03321        13.750           0.813
  23172404.673    -4627227.024 5  -3359472.79921         8.500           0.500
 91  5 21 18 33 14.9970000  0  6G18G 2G11G19G16G 6
  20707174.728      185722.468 7    152670.83023        23.000           2.563
  21861050.642   -13240461.371 6 -10146838.59621        19.250           1.188
  22548381.462   -10289418.563 6  -7875478.95921        12.750           0.719
  19952914.665    -4353276.747 7  -3333088.41922        20.250           1.750
  22734797.688    -7882342.561 6  -5961635.55921        13.500           0.750
  23160342.907    -4690626.719 5  -3408875.07421         8.750           0.594
 91  5 21 18 33 29.9970000  0  6G18G 2G11G19G16G 6
  20708618.470      193312.062 7    158584.74223        23.250           2.625
  21847729.353   -13310456.278 6 -10201380.00921        19.000           1.406
  22539113.759   -10338120.753 6  -7913428.67521        13.000           0.656
  19948803.931    -4374868.537 7  -3349913.19722        20.750           1.813
  22726374.290    -7926598.547 6  -5996120.72321        13.250           0.688
  23148276.993    -4754021.077 5  -3458273.18821         8.500           0.500
 91  5 21 18 33 44.9970000  0  6G18G 2G11G19G16G 6
  20710078.267      200976.963 7    164557.33023        23.000           2.531
  21834418.095   -13380404.135 6 -10255884.77321        19.750           1.438
  22529866.876   -10386710.397 6  -7951290.69321        12.500           0.625
  19944702.892    -4396425.760 7  -3366711.04422        20.250           1.844
  22717972.821    -7970738.057 6  -6030515.16321        12.750           0.625
  23136215.056    -4817412.188 5  -3507668.77321         8.750           0.563
 91  5 21 18 33 59.9970000  0  6G18G 2G11G19G16G 6
  20711551.399      208717.896 7    170589.16822        23.000           2.406
  21821116.571   -13450304.080 6 -10310352.20021        19.500           1.406
  22520643.087   -10435186.478 6  -7989064.21921        13.000           0.594
  19940607.103    -4417947.860 7  -3383481.51822        20.000           1.781
  22709595.368    -8014760.371 6  -6064818.25921        12.500           0.688
  23124149.938    -4880799.205 5  -3557061.17321         8.750           0.375
 91  5 21 18 34 14.9970000  0  6G18G 2G11G19G16G 6
  20713033.603      216511.875 7    176662.33922        23.000           2.469
  21807821.548   -13520178.726 6 -10364799.90521        19.250           1.313
  22511437.868   -10483571.388 6  -8026766.70321        13.500           0.750
  19936514.720    -4439457.495 7  -3400242.28722        20.250           1.781
  22701236.767    -8058687.854 6  -6099047.46421        13.000           0.719
  23112082.063    -4944205.067 5  -3606468.27621         7.750           0.406
 91  5 21 18 34 29.9970000  0  6G18G 2G11G19G16G 6
  20714529.853      224375.198 7    182789.55022        22.750           2.344
  21794531.931   -13590011.285 6 -10419214.82621        19.750           1.375
  22502249.563   -10531848.114 6  -8064384.89121        13.250           0.750
  19932427.329    -4460937.833 7  -3416980.21422        20.250           1.719
  22692901.634    -8102503.933 6  -6133189.86321        13.000           0.688
  23100020.563    -5007612.936 5  -3655876.90021         8.750           0.531
 91  5 21 18 34 44.9970000  0  6G18G 2G11G19G16G 6
  20716040.438      232310.944 7    188973.18922        22.750           2.375
  21781251.735   -13659798.644 6 -10473594.53021        19.000           1.406
  22493084.243   -10580013.577 6  -8101916.37021        13.250           0.625
  19928346.009    -4482386.183 7  -3433693.22322        20.250           1.750
  22684583.345    -8146205.305 6  -6167242.87321        12.750           0.688
  23087956.095    -5071019.969 5  -3705284.91221         9.250           0.500
 91  5 21 18 34 59.9970000  0  6G18G 2G11G19G16G 6
  20717565.001      240318.889 7    195213.08522        22.750           2.438
  21767980.532   -13729540.848 6 -10527939.03821        19.000           1.375
  22483940.462   -10628067.473 6  -8139360.93021        13.500           0.656
  19924271.618    -4503802.466 6  -3450381.24122        19.750           1.688
  22676290.853    -8189791.969 6  -6201206.52321        13.000           0.719
  23075890.642    -5134426.272 5  -3754692.34721         8.500           0.563
 91  5 21 18 35 14.9970000  0  6G18G 2G11G19G16G 6
  20719101.071      248396.972 7    201507.63622        22.500           2.313
  21754717.798   -13799239.675 7 -10582249.76121        20.000           1.469
  22474816.235   -10676011.590 6  -8176719.93921        13.500           0.750
  19920200.540    -4525188.631 7  -3467046.29622        20.000           1.781
  22668019.103    -8233265.949 6  -6235082.33921        13.000           0.781
  23063820.782    -5197833.778 5  -3804100.70021         9.000           0.563
 91  5 21 18 35 29.9970000  0  6G18G 2G11G19G16G 6
  20720655.165      256554.205 7    207863.85522        22.750           2.344
  21741463.337   -13868885.590 6 -10636519.25022        19.750           1.625
  22465716.274   -10723836.220 6  -8213985.83621        13.500           0.656
  19916138.626    -4546535.285 7  -3483680.05822        20.500           1.781
  22659766.868    -8276617.941 6  -6268863.12921        12.750           0.656
  23051758.110    -5261233.160 5  -3853502.73221         8.750           0.594
 91  5 21 18 35 44.9970000  0  6G18G 2G11G19G16G 6
  20722220.470      264787.783 7    214279.57022        22.250           2.344
  21728220.415   -13938481.035 6 -10690749.41322        19.500           1.500
  22456635.595   -10771543.687 6  -8251160.45221        13.250           0.688
  19912083.087    -4567845.012 7  -3500285.05422        20.250           1.750
  22651540.899    -8319850.314 6  -6302550.68321        13.000           0.719
  23039693.790    -5324627.060 5  -3902900.49221         9.000           0.531
 91  5 21 18 35 59.9970000  0  6G18G 2G11G19G16G 6
  20723801.204      273096.742 7    220754.02722        22.500           2.313
  21714985.431   -14008026.883 6 -10744940.92822        19.000           1.688
  22447581.360   -10819134.773 6  -8288244.37421        13.250           0.688
  19908038.024    -4589118.902 6  -3516862.11922        19.250           1.719
  22643337.157    -8362964.158 6  -6336145.88821        12.750           0.719
  23027632.681    -5388016.473 5  -3952294.77321         9.750           0.625
 91  5 21 18 36 14.9970000  0  6G18G 2G11G19G16G 6
  20725396.063      281476.420 7    227283.58722        22.250           2.281
  21701760.290   -14077527.282 6 -10799097.01722        18.750           1.563
  22438546.728   -10866613.665 6  -8325240.86921        13.500           0.656
  19903992.540    -4610361.270 7  -3533414.61922        20.500           1.719
  22635155.587    -8405963.549 6  -6369651.89821        13.000           0.625
  23015569.798    -5451406.023 5  -4001689.15921         9.500           0.500
 91  5 21 18 36 29.9970000  0  6G18G 2G11G19G16G 6
  20727005.337      289926.403 7    233867.92822        22.500           2.219
  21688543.923   -14146982.254 6 -10853217.72222        18.750           1.625
  22429532.626   -10913980.150 6  -8362149.77721        13.250           0.688
  19899958.603    -4631572.126 6  -3549942.56522        19.500           1.719
  22626991.056    -8448848.505 6  -6403068.76021        12.750           0.688
  23003508.360    -5514795.553 5  -4051083.50521        10.250           0.500
 91  5 21 18 36 44.9970000  0  6G18G 2G11G19G16G 6
  20728625.017      298448.899 7    240508.77522        22.250           2.188
  21675337.337   -14216389.671 6 -10907301.37022        18.750           1.625
  22420540.642   -10961231.943 6  -8398969.31221        13.250           0.719
  19895927.032    -4652749.388 7  -3566444.33722        20.250           1.781
  22618855.759    -8491616.899 6  -6436394.78221        13.500           0.688
  22991448.595    -5578182.999 5  -4100476.27021        10.500           0.531
 91  5 21 18 36 59.9970000  0  6G18G 2G11G19G16G 6
  20730261.087      307041.893 7    247204.55822        22.250           2.281
  21662138.032   -14285751.126 6 -10961349.20222        19.750           1.688
  22411570.313   -11008370.568 6  -8435700.67321        13.000           0.719
  19891903.368    -4673894.930 7  -3582921.39722        20.250           1.750
  22610738.321    -8534270.455 6  -6469631.30921        13.250           0.750
  22979380.392    -5641570.327 5  -4149868.92321         9.750           0.500
 91  5 21 18 37 14.9970000  0  6G18G 2G11G19G16G 6
  20731912.329      315710.235 7    253959.04522        22.250           2.313
  21648947.196   -14355061.259 6 -11015357.04522        19.000           1.688
  22402622.173   -11055390.638 6  -8472339.65321        13.000           0.563
  19887886.478    -4695003.667 7  -3599369.76822        20.250           1.750
  22602646.298    -8576803.912 6  -6502774.26321        13.750           0.688
  22967322.837    -5704952.435 5  -4199257.49221        10.500           0.406
 91  5 21 18 37 29.9970000  0  6G18G 2G11G19G16G 6
  20733574.673      324451.828 7    260770.61722        22.500           2.156
  21635766.735   -14424322.062 6 -11069326.43922        18.500           1.750
  22393695.985   -11102293.891 6  -8508887.59721        13.250           0.656
  19883878.556    -4716077.450 6  -3615791.40922        19.750           1.750
  22594573.532    -8619219.115 6  -6535825.07921        13.250           0.719
  22955258.493    -5768331.271 5  -4248643.54621         9.750           0.563
 91  5 21 18 37 44.9970000  0  6G18G 2G11G19G16G 6
  20735251.267      333264.801 7    267637.81122        22.500           2.156
  21622596.126   -14493535.261 6 -11123258.74822        18.500           1.781
  22384792.892   -11149081.932 6  -8545345.77821        13.250           0.688
  19879872.087    -4737118.241 7  -3632186.84122        20.250           1.813
  22586524.962    -8661518.046 6  -6568785.27521        13.250           0.719
  22943202.563    -5831708.856 5  -4298028.58721        10.000           0.625
 91  5 21 18 37 59.9970000  0  6G18G 2G11G19G16G 6
  20736943.563      342152.971 7    274563.59522        22.500           2.250
  21609435.806   -14562696.391 6 -11177150.49122        18.500           1.844
  22375911.509   -11195750.254 6  -8581710.66821        13.000           0.594
  19875875.157    -4758121.737 6  -3648553.20622        19.750           1.813
  22578497.540    -8703696.302 6  -6601651.46621        13.500           0.719
  22931139.868    -5895080.736 5  -4347409.20121        10.250           0.563
 91  5 21 18 38 14.9970000  0  6G18G 2G11G19G16G 6
  20738648.790      351114.280 7    281546.36022        22.750           2.250
  21596285.282   -14631807.155 6 -11231002.98122        19.000           1.719
  22367054.298   -11242300.483 6  -8617983.54421        13.250           0.656
  19871886.485    -4779089.861 7  -3664892.01922        20.500           1.875
  22570496.220    -8745755.594 6  -6634424.93621        13.750           0.688
  22919079.743    -5958448.945 5  -4396786.98021         9.250           0.500
 91  5 21 18 38 29.9970000  0  6G18G 2G11G19G16G 6
  20740368.462      360147.323 7    288585.03222        22.500           2.281
  21583142.228   -14700868.656 6 -11284817.09622        19.000           1.750
  22358218.087   -11288733.623 6  -8654165.17121        13.000           0.656
  19867899.806    -4800023.811 7  -3681204.20022        20.000           1.781
  22562514.149    -8787696.859 6  -6667106.45421        13.250           0.719
  22907026.563    -6021814.738 5  -4446162.83921        10.500           0.594
 91  5 21 18 38 44.9970000  0  6G18G 2G11G19G16G 6
  20742099.423      369252.646 7    295680.02122        22.500           2.250
  21570009.634   -14769880.269 6 -11338592.33122        18.750           1.781
  22349404.853   -11335048.966 6  -8690255.02121        13.500           0.625
  19863924.071    -4820922.950 7  -3697489.24522        20.000           1.875
  22554556.196    -8829519.900 6  -6699695.83521        14.000           0.688
  22894968.962    -6085177.578 5  -4495536.41521         9.750           0.625
 91  5 21 18 38 59.9970000  0  6G18G 2G11G19G16G 6
  20743848.056      378435.646 7    302835.54222        23.000           2.250
  21556887.399   -14838836.186 6 -11392324.16322        18.750           1.875
  22340615.345   -11381240.550 6  -8726248.42321        13.250           0.688
  19859954.579    -4841781.656 7  -3713742.79422        20.000           1.938
  22546618.759    -8871219.129 6  -6732188.75321        13.250           0.656
  22882913.071    -6148531.889 5  -4544903.31721        10.000           0.625
 91  5 21 18 39 14.9970000  0  6G18G 2G11G19G16G 6
  20745609.657      387694.897 7    310050.48322        23.000           2.281
  21543776.298   -14907737.623 6 -11446013.53922        18.750           2.000
  22331848.462   -11427309.286 6  -8762146.10521        13.500           0.656
  19855993.267    -4862601.241 7  -3729965.85422        20.250           1.875
  22538707.313    -8912795.428 6  -6764585.86421        13.250           0.656
  22870857.938    -6211878.885 5  -4594264.55621        10.250           0.594
 91  5 21 18 39 29.9970000  0  6G18G 2G11G19G16G 6
  20747385.188      397029.156 7    317323.85922        22.750           2.125
  21530675.571   -14976585.755 6 -11499661.38822        19.750           1.938
  22323106.274   -11473256.382 6  -8797949.00921        13.750           0.688
  19852037.790    -4883382.906 7  -3746159.38022        20.000           1.688
  22530817.478    -8954250.132 6  -6796888.24721        13.000           0.656
  22858805.157    -6275219.827 5  -4643621.06121         9.500           0.531
 91  5 21 18 39 44.9970000  0  6G18G 2G11G19G16G 6
  20749175.743      406434.532 7    324652.65722        22.750           2.188
  21517583.423   -15045384.080 6 -11553270.43822        19.000           1.938
  22314384.556   -11519085.303 6  -8833659.83421        13.500           0.781
  19848090.399    -4904130.260 7  -3762326.15922        20.000           1.750
  22522955.165    -8995586.683 6  -6829098.55421        13.500           0.563
  22846749.735    -6338558.508 5  -4692975.79221        10.250           0.531
 91  5 21 18 39 59.9970000  0  6G18G 2G11G19G16G 6
  20750981.142      415911.977 7    332037.61222        22.750           2.313
  21504501.470   -15114131.243 6 -11606839.61222        19.250           1.875
  22305685.907   -11564794.514 6  -8869277.37421        13.750           0.719
  19844149.095    -4924842.180 7  -3778465.33122        20.250           1.781
  22515107.587    -9036803.696 6  -6861215.71421        13.500           0.688
  22834695.860    -6401893.630 5  -4742327.79221         9.000           0.563
 91  5 21 18 40 14.9970000  0  6G18G 2G11G19G16G 6
  20752806.024      425498.953 7    339507.91222        22.750           2.219
  21491436.259   -15182789.110 6 -11660339.20922        19.500           1.781
  22297018.720   -11610345.987 6  -8904771.99621        13.500           0.656
  19840222.704    -4945480.930 6  -3794547.47922        19.750           1.750
  22507297.743    -9077863.526 6  -6893210.39521        13.500           0.656
  22822653.071    -6465187.376 5  -4791647.49621        10.250           0.500
 91  5 21 18 40 29.9970000  0  6G18G 2G11G19G16G 6
  20754641.087      435156.283 7    347033.04222        22.750           2.250
  21478378.540   -15251396.846 6 -11713799.73622        19.250           1.938
  22288371.259   -11655778.644 6  -8940174.04721        13.500           0.781
  19836301.017    -4966085.671 7  -3810603.13022        20.000           1.813
  22499503.360    -9118805.260 6  -6925113.05821        13.000           0.688
  22810610.462    -6528479.108 5  -4840965.67421        10.000           0.500
 91  5 21 18 40 44.9970000  0  6G18G 2G11G19G16G 6
  20756493.399      444890.292 7    354617.91322        22.750           2.344
  21465335.204   -15319948.082 6 -11767216.23422        19.750           1.906
  22279748.962   -11701085.908 6  -8975478.38521        13.250           0.750
  19832388.095    -4986649.870 7  -3826627.20022        20.000           1.844
  22491740.431    -9159622.477 6  -6956918.68721        13.500           0.719
  22798566.704    -6591762.436 5  -4890277.29521         9.250           0.531
 91  5 21 18 40 59.9970000  0  6G18G 2G11G19G16G 6
  20758362.126      454703.686 7    362264.64722        22.750           2.188
  21452302.423   -15388439.519 7 -11820586.14822        20.000           1.906
  22271152.759   -11746264.422 6  -9010682.40021        13.250           0.688
  19828485.392    -5007170.450 6  -3842617.27122        19.500           1.875
  22483994.649    -9200312.107 6  -6988624.91221        13.000           0.688
  22786526.399    -6655034.239 5  -4939579.91521        10.250           0.625
 91  5 21 18 41 14.9970000  0  6G18G 2G11G19G16G 6
  20760242.478      464587.675 7    369966.39222        22.750           2.281
  21439278.173   -15456879.541 6 -11873915.99422        19.500           2.000
  22262579.040   -11791322.556 6  -9045792.62221        13.500           0.625
  19824584.954    -5027655.960 7  -3858580.01922        20.250           1.719
  22476277.720    -9240882.537 6  -7020238.23721        13.500           0.688
  22774487.228    -6718303.154 5  -4988880.30121         9.250           0.531
 91  5 21 18 41 29.9970000  0  6G18G 2G11G19G16G 6
  20762137.001      474546.003 7    377726.05922        22.750           2.313
  21426265.384   -15525264.281 6 -11927202.75022        19.750           1.938
  22254027.071   -11836256.335 6  -9080805.93721        13.250           0.719
  19820692.837    -5048102.680 7  -3874512.54122        20.250           1.719
  22468574.173    -9281329.949 6  -7051755.70821        12.750           0.656
  22762449.657    -6781565.406 5  -5038175.49621        10.000           0.531
 91  5 21 18 41 44.9970000  0  6G18G 2G11G19G16G 6
  20764043.790      484561.164 7    385530.01522        22.750           2.063
  21413258.212   -15593611.072 6 -11980459.95521        19.500           1.344
  22245497.532   -11881083.067 6  -9115735.82921        13.250           0.469
  19816806.501    -5068528.070 7  -3890428.44221        20.000           1.250
  22460901.907    -9321671.613 6  -7083190.77721        13.500           0.594
  22750407.634    -6844838.431 5  -5087479.10421         9.250           0.375
 91  5 21 18 41 59.9970000  0  6G18G 2G11G19G16G 6
  20765961.220      494628.967 7    393374.98322        22.500           2.250
  21400259.056   -15661923.558 7 -12033690.42122        20.750           1.844
  22236986.235   -11925806.351 6  -9150585.12121        13.000           0.688
  19812922.728    -5088936.133 6  -3906330.83622        19.750           1.781
  22453241.540    -9361911.467 6  -7114546.52621        12.750           0.781
  22738366.946    -6908126.158 5  -5136794.11221        10.000           0.531
 91  5 21 18 42 14.9970000  0  6G18G 2G11G19G16G 6
  20767889.103      504767.289 7    401274.90322        22.500           2.313
  21387269.181   -15730183.558 7 -12086879.99422        20.500           1.813
  22228498.860   -11970407.770 6  -9185339.45521        13.000           0.781
  19809046.626    -5109308.530 7  -3922205.44722        20.000           1.875
  22445610.657    -9402031.308 6  -7145808.74621        13.500           0.594
  22726320.993    -6971410.426 5  -5186106.48921         9.500           0.500
 91  5 21 18 42 29.9960000  0  6G18G 2G11G19G16G 6
  20769829.738      514975.815 7    409229.52722        22.000           2.344
  21374290.762   -15798385.879 7 -12140024.62122        20.750           1.875
  22220037.012   -12014883.739 6  -9219996.03121        13.250           0.688
  19805176.707    -5129643.503 6  -3938050.88922        19.750           1.750
  22437994.973    -9442028.014 6  -7176975.02821        12.750           0.688
  22714280.637    -7034686.662 5  -5235412.55421         9.750           0.563
 91  5 21 18 42 44.9960000  0  6G18G 2G11G19G16G 6
  20771786.441      525258.043 7    417241.57922        22.000           2.313
  21361323.043   -15866537.314 7 -12193129.59222        21.000           1.875
  22211596.934   -12059237.688 6  -9254557.53321        13.500           0.688
  19801313.520    -5149941.347 6  -3953867.40522        19.750           1.750
  22430409.395    -9481904.782 6  -7208047.84621        13.250           0.656
  22702237.246    -7097960.975 5  -5284717.14421        10.250           0.531
 91  5 21 18 42 59.9960000  0  6G18G 2G11G19G16G 6
  20773757.762      535609.601 7    425307.66522        22.500           2.156
  21348364.301   -15934636.662 7 -12246193.97622        20.500           1.969
  22203177.668   -12103469.748 6  -9289024.05721        13.500           0.750
  19797457.035    -5170204.197 7  -3969656.64622        20.000           1.875
  22422841.738    -9521662.188 6  -7239027.65621        12.500           0.719
  22690198.020    -7161232.639 5  -5334019.69321         9.500           0.531
 91  5 21 18 43 14.9960000  0  6G18G 2G11G19G16G 6
  20775741.754      546029.823 7    433427.24722        22.500           2.250
  21335413.926   -16002684.084 7 -12299217.89522        20.750           1.969
  22194785.816   -12147580.283 6  -9323395.88421        13.500           0.719
  19793610.168    -5190432.663 7  -3985419.10422        20.000           1.813
  22415302.418    -9561300.524 6  -7269914.69121        13.250           0.688
  22678158.184    -7224502.192 5  -5383320.55421        10.000           0.438
 91  5 21 18 43 29.9960000  0  6G18G 2G11G19G16G 6
  20777739.770      556529.323 7    441608.60222        22.250           2.250
  21322476.160   -16070668.743 7 -12352192.91122        21.500           1.813
  22186415.574   -12191558.362 6  -9357664.50421        13.250           0.656
  19789768.004    -5210615.843 7  -4001146.26622        20.000           1.750
  22407783.262    -9600808.996 6  -7300700.53421        13.000           0.688
  22666121.160    -7287758.872 5  -5432611.41221         9.250           0.500
 91  5 21 18 43 44.9960000  0  6G18G 2G11G19G16G 6
  20779755.582      567122.921 7    449863.28322        22.000           2.156
  21309554.637   -16138575.599 7 -12405107.30522        21.500           1.688
  22178074.379   -12235388.623 6  -9391817.94021        13.250           0.813
  19785938.613    -5230738.613 7  -4016826.35922        20.000           1.844
  22400295.543    -9640172.592 6  -7331373.48121        13.750           0.719
  22654088.473    -7350987.559 5  -5481880.44921        10.000           0.625
 91  5 21 18 43 59.9960000  0  6G18G 2G11G19G16G 6
  20781783.082      577778.335 7    458166.13222        22.500           2.156
  21296641.551   -16206436.861 7 -12457986.17722        21.250           1.875
  22169756.184   -12279103.261 6  -9425881.27621        13.250           0.813
  19782114.473    -5250833.319 6  -4032484.58422        19.750           1.844
  22392822.215    -9679423.718 6  -7361958.79121        13.250           0.688
  22642056.410    -7414220.725 5  -5531152.97921         9.250           0.531
 91  5 21 18 44 14.9960000  0  6G18G 2G11G19G16G 6
  20783825.324      588508.154 7    466526.95922        22.000           2.281
  21283739.660   -16274239.129 7 -12510819.07022        21.750           1.875
  22161461.691   -12322688.909 6  -9459844.09721        13.250           0.781
  19778299.762    -5270886.578 6  -4048110.51422        19.750           1.781
  22385378.723    -9718549.014 6  -7392446.06221        13.000           0.719
  22630027.848    -7477445.142 5  -5580418.67221        10.500           0.531
 91  5 21 18 44 29.9960000  0  6G18G 2G11G19G16G 6
  20785881.574      599316.764 7    474949.17822        21.500           2.156
  21270848.684   -16341977.940 7 -12563602.51222        21.750           2.000
  22153194.481   -12366140.941 6  -9493702.80521        13.500           0.719
  19774490.996    -5290894.050 6  -4063700.76222        19.750           1.813
  22377957.918    -9757543.923 6  -7422831.72321        13.250           0.656
  22617996.731    -7540656.424 5  -5629674.17721        10.000           0.531
 91  5 21 18 44 44.9960000  0  6G18G 2G11G19G16G 6
  20787952.074      610204.740 7    483433.23722        21.500           2.063
  21257970.613   -16409652.720 7 -12616336.06522        21.500           1.906
  22144950.988   -12409458.653 6  -9527456.84921        13.500           0.781
  19770693.996    -5310855.457 6  -4079255.11722        19.750           1.719
  22370563.129    -9796408.249 6  -7453115.63921        13.500           0.625
  22605969.410    -7603854.248 5  -5678919.14421        10.000           0.563
 91  5 21 18 44 59.9960000  0  6G18G 2G11G19G16G 6
  20790039.348      621170.087 7    491977.59322        21.500           2.094
  21245105.902   -16477264.535 7 -12669020.55422        22.500           1.906
  22136734.277   -12452643.250 6  -9561107.17421        13.500           0.781
  19766903.566    -5330772.155 6  -4094774.63822        19.500           1.719
  22363190.434    -9835143.116 6  -7483298.67321        13.000           0.750
  22593945.895    -7667039.878 5  -5728154.65821        10.000           0.438
 91  5 21 18 45 14.9960000  0  6G18G 2G11G19G16G 6
  20792140.590      632203.053 7    500574.63222        21.750           2.094
  21232248.262   -16544823.232 7 -12721663.65222        22.000           1.906
  22128538.606   -12495704.301 6  -9594661.21721        13.500           0.844
  19763120.465    -5350653.954 6  -4110266.96322        19.500           1.750
  22355842.699    -9873758.557 6  -7513388.65421        13.000           0.688
  22581921.246    -7730223.173 5  -5777388.30721         9.750           0.563
 91  5 21 18 45 29.9960000  0  6G18G 2G11G19G16G 6
  20794253.285      643303.885 7    509224.54722        21.500           1.906
  21219401.949   -16612328.202 7 -12774264.88322        22.000           1.719
  22120368.863   -12538641.164 6  -9628118.49921        13.500           0.781
  19759342.910    -5370500.357 6  -4125731.70122        19.500           1.781
  22348516.395    -9912253.854 6  -7543385.01421        13.000           0.688
  22569903.629    -7793403.616 5  -5826619.75321        10.750           0.469
 91  5 21 18 45 44.9960000  0  6G18G 2G11G19G16G 6
  20796381.004      654492.650 7    517942.98322        21.250           2.031
  21206571.340   -16679759.243 7 -12826808.50722        22.500           1.875
  22112225.293   -12581433.664 6  -9661463.29221        13.750           0.688
  19755576.856    -5390291.230 6  -4141153.17422        18.750           1.688
  22341218.520    -9950608.704 6  -7573271.93021        13.500           0.719
  22557882.527    -7856561.221 5  -5875833.42021        10.250           0.500
 91  5 21 18 45 59.9960000  0  6G18G 2G11G19G16G 6
  20798524.590      665760.798 7    526723.28022        21.000           1.969
  21193752.074   -16747124.153 7 -12879300.59622        22.000           1.750
  22104109.074   -12624089.571 6  -9694701.64821        13.750           0.781
  19751820.059    -5410034.622 6  -4156537.65022        19.250           1.781
  22333945.441    -9988831.211 6  -7603055.72621        13.250           0.656
  22545866.856    -7919704.067 5  -5925035.56721        11.000           0.625
 91  5 21 18 46 14.9960000  0  6G18G 2G11G19G16G 6
  20800681.965      677093.765 7    535554.08622        21.250           2.031
  21180942.465   -16814437.350 7 -12931752.39822        22.000           1.813
  22096014.043   -12666623.055 6  -9727844.60821        13.750           0.750
  19748070.168    -5429744.782 6  -4171896.22622        19.250           1.906
  22326693.434   -10026935.607 6  -7632747.47621        13.000           0.625
  22533849.137    -7982846.602 5  -5974237.46521        10.250           0.469
 91  5 21 18 46 29.9960000  0  6G18G 2G11G19G16G 6
  20802853.332      688497.675 7    544440.18022        21.000           2.094
  21168143.496   -16881692.571 7 -12984159.01122        22.250           1.969
  22087945.168   -12709027.771 6  -9760887.23621        14.000           0.844
  19744325.746    -5449415.648 6  -4187224.18822        19.000           1.813
  22319465.520   -10064916.015 6  -7662342.62921        13.250           0.719
  22521838.785    -8045982.686 5  -6023434.35221        11.500           0.625
 91  5 21 18 46 44.9960000  0  6G18G 2G11G19G16G 6
  20805038.137      699976.208 7    553384.41022        21.000           2.000
  21155357.887   -16948885.901 7 -13036517.39922        22.250           1.750
  22079901.668   -12751299.854 6  -9793826.50021        14.000           0.844
  19740590.871    -5469043.507 6  -4202518.63022        19.000           1.750
  22312261.207   -10102768.622 6  -7691838.18921        13.000           0.656
  22509820.770    -8109108.537 5  -6072623.26621        10.000           0.563
 91  5 21 18 46 59.9960000  0  6G18G 2G11G19G16G 6
  20807235.504      711526.062 7    562384.22022        21.000           1.906
  21142583.004   -17016019.958 7 -13088829.62122        22.250           1.781
  22071882.082   -12793441.727 6  -9826664.31621        14.000           0.844
  19736863.051    -5488631.104 6  -4217781.71122        19.000           1.719
  22305084.004   -10140496.165 6  -7721236.29121        13.250           0.781
  22497812.316    -8172226.923 5  -6121806.35321        11.500           0.594
 91  5 21 18 47 14.9960000  0  6G18G 2G11G19G16G 6
  20809444.879      723143.870 7    571436.98322        21.000           1.938
  21129818.066   -17083098.086 7 -13141098.24222        22.250           1.781
  22063887.074   -12835456.611 6  -9859403.17021        14.250           0.719
  19733144.316    -5508181.625 6  -4233015.89122        19.250           1.813
  22297928.895   -10178101.860 6  -7750539.44221        13.000           0.750
  22485802.418    -8235341.205 5  -6170986.26221        10.000           0.594
 91  5 21 18 47 29.9960000  0  6G18G 2G11G19G16G 6
  20811670.863      734834.817 6    580546.73222        19.750           1.813
  21117065.106   -17150114.771 7 -13193318.98322        21.750           1.688
  22055916.863   -12877339.191 6  -9892038.92821        13.750           0.719
  19729433.285    -5527689.969 6  -4248217.20822        18.250           1.813
  22290797.465   -10215580.646 6  -7779743.70321        12.500           0.719
  22473793.481    -8298446.205 5  -6220158.88021        11.250           0.531
 91  5 21 18 47 44.9960000  0  6G18G 2G11G19G16G 6
  20813909.402      746595.915 7    589711.14722        20.750           1.781
  21104324.387   -17217072.715 7 -13245493.97122        22.250           1.750
  22047971.637   -12919091.835 6  -9924573.44321        14.250           0.750
  19725725.637    -5547158.800 6  -4263387.74122        19.500           1.781
  22283688.551   -10252935.323 6  -7808851.27021        13.250           0.781
  22461783.340    -8361544.731 5  -6269326.54521         9.750           0.656
 91  5 21 18 47 59.9960000  0  6G18G 2G11G19G16G 6
  20816160.043      758425.092 7    598928.60722        20.500           1.875
  21091593.777   -17283973.619 7 -13297624.49422        23.000           1.906
  22040048.621   -12960716.129 6  -9957007.94521        13.750           0.781
  19722029.020    -5566589.819 6  -4278528.80722        19.250           1.875
  22276603.988   -10290167.622 6  -7837863.46621        13.250           0.813
  22449777.660    -8424638.489 5  -6318490.40821        11.500           0.656
 91  5 21 18 48 14.9960000  0  6G18G 2G11G19G16G 6
  20818425.199      770326.463 7    608202.32022        20.750           1.781
  21078871.988   -17350813.223 7 -13349707.25522        22.500           1.719
  22032154.777   -13002207.687 6  -9989339.01621        14.000           0.781
  19718339.129    -5585978.777 6  -4293637.10022        19.500           1.844
  22269540.012   -10327273.135 6  -7866776.87621        13.000           0.750
  22437776.121    -8487723.164 5  -6367647.25421         9.500           0.563
 91  5 21 18 48 29.9960000  0  6G18G 2G11G19G16G 6
  20820700.887      782287.861 7    617522.81722        20.500           1.813
  21066163.262   -17417603.199 7 -13401751.34722        23.000           1.719
  22024282.207   -13043578.353 6 -10021575.88621        14.000           0.781
  19714657.340    -5605337.722 6  -4308722.00622        18.500           1.844
  22262502.160   -10364263.793 6  -7895600.77921        12.750           0.750
  22425771.231    -8550810.816 5  -6416806.38121        11.750           0.719
 91  5 21 18 48 44.9960000  0  6G18G 2G11G19G16G 6
  20822989.043      794311.849 7    626892.07122        20.250           1.844
  21053465.059   -17484340.676 7 -13453754.53922        22.750           1.906
  22016434.106   -13084825.166 6 -10053716.23621        14.000           0.813
  19710978.754    -5624663.927 6  -4323781.39922        19.750           1.813
  22255485.520   -10401136.950 6  -7924333.14021        13.000           0.719
  22413759.645    -8613898.738 5  -6465965.74621         9.250           0.625
 91  5 21 18 48 59.9960000  0  6G18G 2G11G19G16G 6
  20825290.035      806401.487 7    636312.48722        20.500           1.813
  21040774.441   -17551022.099 7 -13505714.03422        22.500           1.656
  22008608.762   -13125944.571 6 -10085757.32821        14.000           0.844
  19707310.973    -5643953.957 6  -4338813.10422        18.750           1.844
  22248494.371   -10437889.037 6  -7952971.14121        13.250           0.813
  22401762.074    -8676983.663 5  -6515122.75421        11.500           0.594
 91  5 21 18 49 14.9960000  0  6G18G 2G11G19G16G 6
  20827603.465      818561.254 7    645787.54922        20.500           1.875
  21028097.629   -17617642.982 7 -13557626.37522        22.750           1.750
  22000808.660   -13166931.901 6 -10117695.49721        14.250           0.875
  19703644.387    -5663203.094 6  -4353812.45222        19.750           1.813
  22241521.293   -10474515.616 6  -7981511.35521        12.750           0.875
  22389755.199    -8740061.006 5  -6564273.90021         9.750           0.656
 91  5 21 18 49 29.9960000  0  6G18G 2G11G19G16G 6
  20829930.090      830788.057 7    655314.84522        20.000           1.844
  21015431.027   -17684206.201 7 -13609493.77722        22.000           1.938
  21993033.191   -13207790.003 6 -10149532.96021        14.250           0.781
  19699990.731    -5682414.306 6  -4368782.23922        18.750           2.000
  22234577.824   -10511019.667 6  -8009956.09121        13.000           0.844
  22377755.207    -8803133.740 6  -6613421.36121        12.000           0.563
 91  5 21 18 49 44.9960000  0  6G18G 2G11G19G16G 6
  20832270.027      843081.899 7    664894.38222        20.000           1.844
  21002775.309   -17750711.154 7 -13661315.76322        22.500           1.750
  21985284.316   -13248518.216 6 -10181269.22421        14.250           0.719
  19696340.145    -5701587.185 6  -4383722.16122        19.500           1.906
  22227652.387   -10547400.668 6  -8038304.93421        12.750           0.844
  22365750.652    -8866201.421 5  -6662564.99821        10.250           0.688
 91  5 21 18 49 59.9960000  0  6G18G 2G11G19G16G 6
  20834621.746      855446.049 6    674528.69722        19.750           1.781
  20990129.691   -17817154.409 7 -13713089.69522        21.750           1.781
  21977558.152   -13289113.109 6 -10212901.59421        14.250           0.750
  19692701.871    -5720718.476 6  -4398629.67122        19.250           1.844
  22220755.910   -10583655.302 6  -8066555.31321        13.250           0.906
  22353753.863    -8929260.814 5  -6711702.06321        11.000           0.688
 91  5 21 18 50 14.9960000  0  6G18G 2G11G19G16G 6
  20836988.402      867876.904 6    684214.99322        19.750           1.813
  20977499.387   -17883539.290 7 -13764818.12622        22.750           1.750
  21969858.379   -13329577.783 6 -10244432.49921        13.750           0.781
  19689067.434    -5739811.364 6  -4413507.26022        19.750           1.906
  22213876.715   -10619787.030 6  -8094709.92421        13.000           0.813
  22341754.293    -8992315.368 5  -6760835.44421        10.000           0.688
 91  5 21 18 50 29.9960000  0  6G18G 2G11G19G16G 6
  20839367.574      880374.454 7    693953.25722        20.000           1.844
  20964876.348   -17949865.622 7 -13816500.93622        22.500           1.781
  21962182.113   -13369911.957 6 -10275861.71121        13.750           0.750
  19685443.746    -5758865.784 6  -4428354.87922        19.500           1.906
  22207024.613   -10655795.633 6  -8122768.58621        12.250           0.813
  22329757.856    -9055364.868 5  -6809964.83621        11.750           0.719
 91  5 21 18 50 44.9960000  0  6G18G 2G11G19G16G 6
  20841758.465      892938.302 6    703743.18622        19.750           1.781
  20952266.824   -18016133.353 7 -13868138.08122        22.500           1.719
  21954530.965   -13410115.702 6 -10307189.29121        14.000           0.844
  19681822.918    -5777881.975 6  -4443172.70222        19.500           1.813
  22200195.106   -10691681.385 6  -8150731.52921        12.500           0.875
  22317758.152    -9118409.531 5  -6859090.48921        10.500           0.750
 91  5 21 18 50 59.9960000  0  6G18G 2G11G19G16G 6
  20844160.449      905565.063 6    713582.12822        19.500           1.844
  20939667.488   -18082345.206 7 -13919731.68722        22.250           1.906
  21946905.387   -13450191.789 6 -10338417.39421        14.000           0.688
  19678208.270    -5796862.952 6  -4457963.09322        19.000           1.906
  22193389.059   -10727447.379 6  -8178601.14021        12.500           0.844
  22305763.449    -9181452.348 5  -6908214.70321        11.750           0.625
 91  5 21 18 51 14.9960000  0  6G18G 2G11G19G16G 6
  20846576.676      918262.930 6    723476.48622        19.500           1.781
  20927079.668   -18148493.201 7 -13971275.51922        22.250           1.813
  21939305.848   -13490132.082 6 -10369539.69021        14.000           0.781
  19674605.176    -5815800.622 6  -4472719.73122        19.250           1.969
  22186607.363   -10763085.265 6  -8206370.93521        12.750           0.844
  22293767.809    -9244485.317 5  -6957331.22921        11.250           0.688
 91  5 21 18 51 29.9960000  0  6G18G 2G11G19G16G 6
  20849004.598      931027.117 6    733422.52722        19.250           1.875
  20914503.160   -18214581.670 7 -14022772.98822        22.500           1.969
  21931731.012   -13529940.806 6 -10400559.46321        14.250           0.844
  19671010.113    -5834699.363 6  -4487446.03522        19.500           1.938
  22179851.363   -10798599.911 6  -8234044.69621        12.500           0.906
  22281776.481    -9307512.907 6  -7006443.57021        12.000           0.656
 91  5 21 18 51 44.9960000  0  6G18G 2G11G19G16G 6
  20851446.426      943857.829 6    743420.40522        19.250           1.844
  20901938.371   -18280610.241 7 -14074223.76022        22.000           1.906
  21924180.668   -13569617.347 6 -10431476.23021        14.250           0.750
  19667421.020    -5853558.723 6  -4502142.15522        19.750           1.938
  22173117.168   -10833990.604 6  -8261621.87821        12.250           0.844
  22269780.512    -9370534.713 5  -7055551.40921        11.250           0.813
 91  5 21 18 51 59.9960000  0  6G18G 2G11G19G16G 6
  20853901.582      956751.211 6    753467.10822        19.250           1.875
  20889385.270   -18346582.051 7 -14125630.32222        22.750           1.750
  21916653.957   -13609165.005 6 -10462292.57621        14.500           0.781
  19663839.379    -5872382.119 6  -4516809.75322        19.500           2.000
  22166404.770   -10869260.790 6  -8289105.15421        12.250           0.813
  22257788.082    -9433554.187 5  -7104657.41321        11.000           0.594
 91  5 21 18 52 14.9960000  0  6G18G 2G11G19G16G 6
  20856367.918      969709.142 6    763564.10522        19.000           1.875
  20876841.895   -18412495.019 7 -14176991.03622        22.250           1.906
  21909152.973   -13648581.643 6 -10493006.83721        14.000           0.781
  19660265.051    -5891167.473 6  -4531447.71122        19.250           1.938
  22159716.738   -10904408.632 6  -8316493.09721        13.000           0.781
  22245796.379    -9496569.336 5  -7153760.06721        11.000           0.625
 91  5 21 18 52 29.9960000  0  6G18G 2G11G19G16G 6
  20858844.223      982728.097 6    773708.65622        19.250           1.813
  20864308.887   -18478352.682 7 -14228308.64422        22.250           1.938
  21901678.309   -13687870.659 6 -10523621.64221        14.250           0.781
  19656695.191    -5909918.288 6  -4546058.75522        19.000           1.813
  22153048.551   -10939437.629 6  -8343788.42821        13.000           0.875
  22233807.918    -9559583.762 5  -7202862.14521        11.500           0.719
 91  5 21 18 52 44.9960000  0  6G18G 2G11G19G16G 6
  20861331.363      995804.126 6    783897.68922        19.000           1.844
  20851786.582   -18544158.288 7 -14279585.68522        22.250           1.969
  21894224.121   -13727035.317 6 -10554139.54321        14.000           0.844
  19653133.324    -5928638.141 6  -4560645.66722        19.000           1.969
  22146405.941   -10974351.201 6  -8370993.81921        12.750           0.875
  22221815.074    -9622600.826 5  -7251966.30521        11.500           0.656
 91  5 21 18 52 59.9960000  0  6G18G 2G11G19G16G 6
  20863831.965     1008944.162 6    794136.59822        18.750           1.875
  20839276.606   -18609904.688 7 -14330816.60222        22.750           2.000
  21886795.981   -13766068.459 6 -10584554.97121        14.000           0.844
  19649578.371    -5947319.976 6  -4575202.95122        19.250           2.000
  22139785.652   -11009142.414 6  -8398103.87621        12.250           0.906
  22209822.285    -9685613.635 5  -7301067.12421        11.250           0.688
 91  5 21 18 53 14.9960000  0  6G18G 2G11G19G16G 6
  20866345.738     1022151.986 6    804428.31822        18.750           1.813
  20826776.293   -18675587.934 7 -14381998.30722        22.750           2.156
  21879394.207   -13804965.989 6 -10614864.72121        14.250           0.813
  19646033.238    -5965959.933 6  -4589727.61022        19.500           1.938
  22133192.973   -11043807.071 6  -8425115.31721        13.000           0.813
  22197833.488    -9748618.217 5  -7350161.53721        11.250           0.656
 91  5 21 18 53 29.9960000  0  6G18G 2G11G19G16G 6
  20868872.059     1035426.649 6    814772.12822        18.750           1.938
  20814289.574   -18741208.722 7 -14433131.33122        22.750           2.094
  21872019.285   -13843728.656 6 -10645069.38321        14.250           0.844
  19642495.160    -5984558.634 6  -4604220.12122        18.500           1.906
  22126616.098   -11078346.123 6  -8452028.88221        12.500           0.906
  22185849.043    -9811615.438 5  -7399250.22121        11.750           0.719
 91  5 21 18 53 44.9960000  0  6G18G 2G11G19G16G 6
  20871410.262     1048767.032 6    825167.13722        18.500           1.750
  20801814.285   -18806767.869 7 -14484216.33722        23.000           2.063
  21864668.238   -13882357.195 6 -10675169.53221        14.250           0.781
  19638960.520    -6003116.972 6  -4618681.18122        19.000           1.906
  22120068.137   -11112760.787 6  -8478845.51821        12.250           0.906
  22173856.895    -9874606.107 5  -7448333.80321        11.000           0.719
 91  5 21 18 53 59.9960000  0  6G18G 2G11G19G16G 6
  20873960.238     1062163.101 6    835605.54022        18.750           1.844
  20789348.082   -18872275.062 7 -14535260.85022        23.000           2.031
  21857340.004   -13920861.269 6 -10705172.69421        14.000           0.813
  19635433.574    -6021644.756 6  -4633118.42222        19.000           1.906
  22113541.504   -11147060.852 6  -8505572.86321        12.500           0.875
  22161872.434    -9937600.158 5  -7497420.00121        11.500           0.625
 91  5 21 18 54 14.9960000  0  6G18G 2G11G19G16G 6
  20876522.168     1075621.777 6    846092.73322        19.000           1.844
  20776893.512   -18937723.074 7 -14586259.25722        22.750           1.969
  21850037.738   -13959233.533 6 -10735073.15421        14.000           0.781
  19631917.293    -6040134.898 6  -4647526.34122        19.000           1.938
  22107037.840   -11181238.785 6  -8532205.03721        13.000           0.844
  22149884.590   -10000590.378 5  -7546503.23421        11.000           0.750
 91  5 21 18 54 29.9960000  0  6G18G 2G11G19G16G 6
  20879094.582     1089145.731 6    856630.79122        18.250           1.813
  20764451.598   -19003108.582 7 -14637208.95722        22.750           2.031
  21842762.887   -13997470.809 6 -10764868.42221        14.250           0.844
  19628405.160    -6058584.158 6  -4661902.40422        19.000           2.031
  22100557.981   -11215291.737 6  -8558739.83021        12.750           0.938
  22137900.457   -10063573.779 6  -7595581.14321        12.250           0.688
 91  5 21 18 54 44.9960000  0  6G18G 2G11G19G16G 6
  20881680.262     1102730.518 6    867216.24022        18.500           1.719
  20752020.621   -19068435.972 7 -14688113.37022        23.250           2.188
  21835509.848   -14035577.382 6 -10794561.84921        14.500           0.875
  19624902.215    -6076996.973 6  -4676250.06522        19.000           1.875
  22094101.004   -11249224.109 6  -8585180.64821        12.500           0.875
  22125915.340   -10126554.744 5  -7644657.17421        10.750           0.688
 91  5 21 18 54 59.9960000  0  6G18G 2G11G19G16G 6
  20884276.832     1116377.375 6    877850.05822        18.500           1.781
  20739600.418   -19133703.910 7 -14738971.45722        23.000           2.063
  21828283.488   -14073551.861 6 -10824152.34421        14.250           0.844
  19621405.129    -6095372.091 6  -4690568.35322        18.750           1.844
  22087663.699   -11283034.863 6  -8611526.71721        12.000           0.844
  22113929.356   -10189532.041 5  -7693730.31721        11.500           0.781
 91  5 21 18 55 14.9960000  0  6G18G 2G11G19G16G 6
  20886887.066     1130088.546 6    888533.99122        18.750           1.813
  20727190.754   -19198909.441 7 -14789780.91422        23.250           2.094
  21821084.098   -14111391.247 6 -10853637.57321        14.250           0.844
  19617916.520    -6113706.746 6  -4704855.11022        19.000           1.875
  22081256.488   -11316721.154 6  -8637775.79521        12.250           0.875
  22101950.668   -10252502.955 5  -7742798.50021        11.000           0.750
 91  5 21 18 55 29.9950000  0  6G18G 2G11G19G16G 6
  20889506.726     1143857.849 6    899263.22422        18.500           1.875
  20714796.226   -19264053.268 7 -14840542.29122        23.500           2.156
  21813907.405   -14149098.122 6 -10883019.54821        14.000           0.844
  19614433.616    -6132004.856 6  -4719113.38422        19.000           1.906
  22074869.132   -11350285.977 6  -8663930.23821        12.250           0.875
  22089966.155   -10315468.323 5  -7791862.36321        11.250           0.813
 91  5 21 18 55 44.9950000  0  6G18G 2G11G19G16G 6
  20892137.562     1157683.848 6    910036.62922        18.250           1.844
  20702407.030   -19329147.409 7 -14891264.95922        22.750           2.094
  21806756.905   -14186680.689 6 -10912304.66021        14.000           0.813
  19610958.444    -6150272.305 6  -4733347.77222        19.000           1.938
  22068505.999   -11383737.240 6  -8689996.17121        13.000           0.844
  22077984.023   -10378440.005 5  -7840931.14921        11.500           0.813
 91  5 21 18 55 59.9950000  0  6G18G 2G11G19G16G 6
  20894780.233     1171572.106 6    920858.55822        18.250           1.656
  20690032.554   -19394180.233 7 -14941939.84222        23.500           2.188
  21799630.648   -14224129.205 6 -10941485.31621        14.250           0.875
  19607489.249    -6168500.430 6  -4747551.52122        19.000           1.906
  22062160.085   -11417065.522 6  -8715966.28121        12.250           0.906
  22066001.913   -10441406.688 5  -7889996.04221        10.500           0.750
 91  5 21 18 56 14.9950000  0  6G18G 2G11G19G16G 6
  20897435.054     1185524.525 6    931730.47822        18.500           1.781
  20677669.452   -19459149.625 7 -14992565.30122        23.250           2.125
  21792531.608   -14261441.446 6 -10970559.78921        14.250           0.844
  19604027.546    -6186687.205 6  -4761723.04622        18.750           1.906
  22055845.937   -11450268.573 6  -8741838.80121        13.000           0.844
  22054019.788   -10504366.345 5  -7939055.42921        11.750           0.781
 91  5 21 18 56 29.9950000  0  6G18G 2G11G19G16G 6
  20900103.335     1199540.309 6    942651.77722        18.500           1.719
  20665318.577   -19524056.367 7 -15043141.93522        23.500           2.188
  21785456.648   -14298618.003 6 -10999528.52821        14.250           0.844
  19600574.616    -6204833.383 6  -4775862.93722        18.750           1.906
  22049549.335   -11483347.431 6  -8767614.56221        12.500           0.875
  22042039.796   -10567319.636 5  -7988109.89221        11.000           0.781
 91  5 21 18 56 44.9950000  0  6G18G 2G11G19G16G 6
  20902782.960     1213619.907 6    953622.80022        18.250           1.750
  20652978.390   -19588899.736 7 -15093669.19322        23.500           2.375
  21778407.554   -14335658.227 6 -11028391.03421        14.250           0.844
  19597129.905    -6222938.423 6  -4789970.77622        18.750           1.969
  22043276.312   -11516301.449 6  -8793293.02521        12.250           0.813
  22030063.163   -10630266.044 6  -8037158.97621        12.000           0.844
 91  5 21 18 56 59.9950000  0  6G18G 2G11G19G16G 6
  20905473.530     1227763.542 6    964643.71522        18.000           1.781
  20640652.077   -19653679.154 7 -15144146.61022        24.000           2.250
  21771385.163   -14372561.346 6 -11057146.70621        14.250           0.813
  19593692.327    -6241001.748 6  -4804046.10422        19.000           1.875
  22037028.765   -11549130.259 6  -8818873.95621        12.250           0.906
  22018087.030   -10693205.056 5  -8086202.30921        11.500           0.844
 91  5 21 18 57 14.9950000  0  6G18G 2G11G19G16G 6
  20908176.655     1241965.412 6    975710.01322        18.000           1.688
  20628335.905   -19718399.962 7 -15194578.37422        23.500           2.281
  21764388.226   -14409332.814 6 -11085799.78921        14.250           0.875
  19590263.007    -6259028.763 6  -4818093.14422        19.000           2.000
  22030808.226   -11581839.347 6  -8844361.57521        13.000           0.750
  22006108.148   -10756142.181 6  -8135244.16321        12.000           0.844
 91  5 21 18 57 29.9950000  0  6G18G 2G11G19G16G 6
  20910890.390     1256225.612 6    986821.75222        18.250           1.563
  20616031.773   -19783061.932 7 -15244964.27522        23.500           2.313
  21757415.608   -14445972.551 6 -11114350.22921        14.250           0.781
  19586838.851    -6277019.489 6  -4832111.91122        19.000           1.875
  22024602.554   -11614428.445 6  -8869755.68921        12.250           0.813
  21994132.218   -10819077.357 6  -8184284.50021        12.000           0.719
 91  5 21 18 57 44.9950000  0  6G18G 2G11G19G16G 6
  20913615.155     1270549.711 6    997983.29622        18.000           1.594
  20603738.304   -19847659.084 7 -15295299.66622        23.500           2.313
  21750468.874   -14482474.583 6 -11142793.35821        14.250           0.844
  19583423.999    -6294968.093 6  -4846097.84922        18.750           1.938
  22018427.179   -11646891.972 6  -8895051.97021        12.750           0.781
  21982157.648   -10882004.802 6  -8233318.83221        12.500           0.688
 91  5 21 18 57 59.9950000  0  6G18G 2G11G19G16G 6
  20916353.640     1284937.030 6   1009194.10022        17.750           1.625
  20591458.210   -19912191.763 7 -15345584.82222        23.250           2.438
  21743549.890   -14518838.940 6 -11171129.22121        14.000           0.938
  19580015.960    -6312874.727 6  -4860051.07622        19.500           1.906
  22012273.843   -11679230.289 6  -8920250.68421        12.750           0.781
  21970183.874   -10944924.771 6  -8282347.31721        12.250           0.750
 91  5 21 18 58 14.9950000  0  6G18G 2G11G19G16G 6
  20919103.194     1299383.392 6   1020450.91222        18.000           1.656
  20579190.429   -19976663.797 7 -15395822.71822        23.750           2.375
  21736654.921   -14555069.477 6 -11199360.80421        14.250           0.844
  19576616.874    -6330743.445 6  -4873974.76222        19.000           1.875
  22006142.023   -11711447.464 6  -8945355.00921        12.500           0.844
  21958208.796   -11007841.177 5  -8331373.05121        11.750           0.750
 91  5 21 18 58 29.9950000  0  6G18G 2G11G19G16G 6
  20921863.804     1313889.435 6   1031754.21522        18.000           1.656
  20566933.280   -20041074.418 7 -15446012.77022        23.500           2.406
  21729786.171   -14591165.584 6 -11227487.63421        14.500           0.781
  19573222.710    -6348573.515 6  -4887868.34222        19.750           1.969
  22000036.507   -11743542.496 6  -8970364.15421        13.250           0.813
  21946238.390   -11070753.539 5  -8380395.60221        11.750           0.844
 91  5 21 18 58 44.9950000  0  6G18G 2G11G19G16G 6
  20924634.796     1328456.124 6   1043104.78021        18.000           1.469
  20554688.140   -20105421.943 7 -15496153.65323        23.750           2.563
  21722944.468   -14627125.638 6 -11255508.45221        14.500           0.781
  19569838.202    -6366363.508 6  -4901731.19122        19.000           1.906
  21993951.507   -11775514.507 6  -8995277.42921        13.000           0.813
  21934267.593   -11133660.292 6  -8429413.80221        12.000           0.781
 91  5 21 18 58 59.9950000  0  6G18G 2G11G19G16G 6
  20927419.085     1343084.023 6   1054503.04422        18.000           1.594
  20542454.976   -20169705.662 7 -15546244.81422        23.750           2.344
  21716124.991   -14662948.695 6 -11283422.51621        14.250           0.844
  19566461.132    -6384112.583 6  -4915561.65622        19.250           1.938
  21987894.140   -11807362.614 6  -9020094.17221        13.250           0.688
  21922298.804   -11196560.660 6  -8478427.01021        12.000           0.844
 91  5 21 18 59 14.9950000  0  6G18G 2G11G19G16G 6
  20930212.015     1357765.032 6   1065942.68822        18.000           1.594
  20530232.788   -20233933.529 7 -15596292.46022        23.750           2.438
  21709334.929   -14698642.824 6 -11311236.11621        14.250           0.813
  19563088.273    -6401828.775 6  -4929366.49122        19.000           2.094
  21981852.405   -11839094.907 6  -9044820.66521        12.750           0.750
  21910327.866   -11259462.859 5  -8527441.64221        11.500           0.781
 91  5 21 18 59 29.9950000  0  6G18G 2G11G19G16G 6
  20933010.538     1372460.608 6   1077393.68722        18.000           1.563
  20518013.835   -20298143.899 7 -15646326.47322        24.000           2.375
  21702558.413   -14734246.300 6 -11338979.07921        13.750           0.813
  19559717.296    -6419550.412 6  -4943175.56722        18.750           2.031
  21975828.358   -11870749.861 6  -9069486.88521        13.000           0.781
  21898352.804   -11322405.240 6  -8576487.58721        12.750           0.813
 91  5 21 18 59 44.9950000  0  6G18G 2G11G19G16G 6
  20935818.179     1387215.084 6   1088890.57721        18.000           1.469
  20505807.015   -20362291.922 7 -15696311.90322        23.750           2.344
  21695808.444   -14769714.263 6 -11366616.44821        14.000           0.813
  19556352.155    -6437232.649 6  -4956953.94722        19.000           2.000
  21969829.155   -11902282.804 6  -9094058.03621        13.000           0.656
  21886373.460   -11385343.071 6  -8625529.98921        12.250           0.906
 91  5 21 18 59 59.9950000  0  6G18G 2G11G19G16G 6
  20938636.694     1402023.665 6   1100429.63221        18.250           1.469
  20493611.499   -20426382.327 7 -15746252.43122        24.250           2.469
  21689085.577   -14805051.320 6 -11394151.80721        13.750           0.813
  19552995.773    -6454880.363 6  -4970705.42622        18.500           1.938
  21963849.273   -11933698.519 6  -9118537.83421        13.000           0.781
  21874398.023   -11448281.014 6  -8674572.50021        12.500           0.906
 91  5 21 19  0 14.9950000  0  6G18G 2G11G19G16G 6
  20941466.312     1416894.204 6   1112016.95921        18.250           1.469
  20481427.273   -20490406.857 7 -15796141.63623        24.000           2.625
  21682386.249   -14840249.322 6 -11421578.81221        13.750           0.813
  19549645.148    -6472485.427 6  -4984423.66622        18.750           1.969
  21957896.601   -11964989.016 6  -9142920.07521        13.250           0.750
  21862424.812   -11511211.114 6  -8723608.87521        13.000           0.719
 91  5 21 19  0 29.9950000  0  6G18G 2G11G19G16G 6
  20944307.905     1431826.327 6   1123652.27821        18.250           1.438
  20469257.312   -20554365.417 7 -15845979.42823        24.000           2.594
  21675717.421   -14875308.170 6 -11448897.38421        14.500           0.813
  19546303.679    -6490047.902 6  -4998108.71822        18.750           1.969
  21951966.413   -11996154.106 6  -9167204.57721        13.250           0.688
  21850450.233   -11574133.247 6  -8772639.00821        12.500           0.813
 91  5 21 19  0 44.9950000  0  6G18G 2G11G19G16G 6
  20947159.874     1446815.638 6   1135332.15222        18.250           1.625
  20457098.601   -20618262.142 7 -15895769.04223        24.000           2.656
  21669069.601   -14910231.879 6 -11476110.65821        14.000           0.813
  19542968.968    -6507571.885 6  -5011763.78022        18.750           2.000
  21946057.233   -12027198.176 6  -9191394.79321        13.500           0.719
  21838472.421   -11637051.897 6  -8821666.50621        12.500           0.813
 91  5 21 19  0 59.9950000  0  6G18G 2G11G19G16G 6
  20950022.952     1461864.299 6   1147058.28022        18.000           1.500
  20444949.616   -20682094.539 7 -15945508.52223        24.500           2.531
  21662449.960   -14945017.993 6 -11503216.70421        14.000           0.844
  19539644.483    -6525054.796 6  -5025386.83522        17.750           1.969
  21940174.843   -12058119.022 6  -9215488.97921        13.500           0.781
  21826508.452   -11699964.210 6  -8870688.99621        13.000           0.906
 91  5 21 19  1 14.9950000  0  6G18G 2G11G19G16G 6
  20952898.210     1476969.491 6   1158828.45921        17.750           1.375
  20432815.163   -20745865.282 7 -15995199.97523        24.250           2.625
  21655856.577   -14979669.252 6 -11530217.67321        14.250           0.875
  19536320.148    -6542499.633 6  -5038980.22422        18.750           1.938
  21934310.671   -12088919.722 6  -9239489.54321        13.000           0.813
  21814533.069   -11762873.387 6  -8919709.04521        12.750           0.875
 91  5 21 19  1 29.9950000  0  6G18G 2G11G19G16G 6
  20955782.835     1492133.685 6   1170644.61021        17.500           1.406
  20420693.179   -20809571.255 7 -16044840.94423        25.000           2.688
  21649290.187   -15014182.528 6 -11557111.12921        14.250           0.750
  19533011.569    -6559903.329 6  -5052541.55622        17.500           2.063
  21928474.593   -12119597.002 6  -9263393.94621        13.250           0.781
  21802563.726   -11825776.271 6  -8968724.21421        13.250           0.844
 91  5 21 19  1 44.9950000  0  6G18G 2G11G19G16G 6
  20958681.382     1507358.932 6   1182508.33421        17.750           1.469
  20408582.882   -20873210.167 7 -16094429.67023        24.750           2.625
  21642747.288   -15048555.578 6 -11583895.31121        14.000           0.875
  19529706.101    -6577263.646 6  -5066069.08422        18.250           2.094
  21922661.585   -12150148.817 6  -9287200.58121        13.250           0.688
  21790592.429   -11888670.779 6  -9017732.84221        13.000           0.875
 91  5 21 19  1 59.9950000  0  6G18G 2G11G19G16G 6
  20961591.632     1522653.502 6   1194426.07721        17.750           1.375
  20396485.351   -20936773.502 7 -16143959.49923        24.750           2.656
  21636235.905   -15082779.741 6 -11610563.48121        14.000           0.844
  19526414.218    -6594572.121 6  -5079556.22022        17.500           1.969
  21916870.999   -12180566.569 6  -9310902.75521        13.250           0.625
  21778633.038   -11951548.327 6  -9066728.26821        13.750           0.875
 91  5 21 19  2 14.9950000  0  6G18G 2G11G19G16G 6
  20964513.398     1538008.344 6   1206390.78421        17.500           1.344
  20384404.273   -21000270.458 7 -16193437.60723        24.750           2.594
  21629749.788   -15116864.077 6 -11637122.68921        14.000           0.750
  19523126.187    -6611837.676 6  -5093009.91022        18.500           2.031
  21911109.210   -12210859.501 6  -9334507.66021        13.500           0.719
  21766666.210   -12014418.066 6  -9115717.61221        13.250           0.781
 91  5 21 19  2 29.9950000  0  6G18G 2G11G19G16G 6
  20967447.405     1553419.727 6   1218399.55421        17.500           1.438
  20372332.726   -21063704.150 7 -16242866.41423        25.250           2.594
  21623290.718   -15150811.806 6 -11663575.45721        14.250           0.781
  19519851.085    -6629063.404 6  -5106432.57122        18.000           2.000
  21905366.405   -12241031.230 6  -9358018.11421        13.250           0.719
  21754700.991   -12077283.240 6  -9164703.38721        12.250           0.781
 91  5 21 19  2 44.9950000  0  6G18G 2G11G19G16G 6
  20970393.155     1568895.719 6   1230458.65821        17.750           1.344
  20360275.530   -21127066.039 7 -16292239.27923        25.500           2.688
  21616857.780   -15184614.440 6 -11689915.15821        14.250           0.844
  19516580.390    -6646241.295 6  -5119817.95022        18.250           1.875
  21899650.358   -12271073.155 6  -9381427.43721        13.250           0.813
  21742743.726   -12140135.649 6  -9213679.22221        13.250           0.938
 91  5 21 19  2 59.9950000  0  6G18G 2G11G19G16G 6
  20973347.694     1584425.408 6   1242559.61021        17.750           1.469
  20348229.968   -21190366.755 7 -16341564.46523        25.250           2.688
  21610450.929   -15218282.590 6 -11716150.06821        14.250           0.813
  19513319.015    -6663381.844 6  -5133174.23522        18.000           1.969
  21893956.827   -12300996.175 6  -9404744.10621        13.500           0.625
  21730781.046   -12202985.833 6  -9262653.32821        13.000           0.719
 91  5 21 19  3 14.9950000  0  6G18G 2G11G19G16G 6
  20976313.843     1600013.087 6   1254705.74921        17.500           1.406
  20336196.179   -21253601.927 7 -16390838.59123        25.500           2.750
  21604070.366   -15251811.932 6 -11742276.82321        14.250           0.813
  19510064.116    -6680480.888 6  -5146498.17922        18.000           1.938
  21888287.343   -12330796.160 6  -9427964.90221        13.750           0.719
  21718827.319   -12265829.529 6  -9311622.39021        13.250           0.813
 91  5 21 19  3 29.9950000  0  6G18G 2G11G19G16G 6
  20979291.577     1615658.469 6   1266896.85122        17.500           1.500
  20324174.483   -21316771.499 7 -16440061.59123        25.250           2.781
  21597715.273   -15285202.259 6 -11768295.24521        14.000           0.781
  19506818.226    -6697538.158 6  -5159789.57022        18.500           1.906
  21882639.343   -12360473.088 6  -9451089.80421        13.500           0.750
  21706865.788   -12328666.864 6  -9360586.48121        13.000           0.875
 91  5 21 19  3 44.9950000  0  6G18G 2G11G19G16G 6
  20982278.210     1631360.282 6   1279131.92121        17.250           1.344
  20312166.358   -21379876.122 7 -16489233.98123        25.750           2.750
  21591387.460   -15318454.283 6 -11794205.90621        13.750           0.781
  19503581.468    -6714554.536 6  -5173049.09622        18.250           1.906
  21877013.374   -12390027.832 6  -9474119.51221        13.500           0.688
  21694912.163   -12391498.463 6  -9409546.12221        13.250           0.969
 91  5 21 19  3 59.9950000  0  6G18G 2G11G19G16G 6
  20985278.890     1647121.242 6   1291413.08421        17.250           1.406
  20300171.866   -21442912.955 7 -16538353.54123        25.750           2.875
  21585086.624   -15351565.282 6 -11820006.66621        13.750           0.750
  19500349.999    -6731527.109 6  -5186274.49622        18.500           1.906
  21871413.687   -12419457.711 6  -9497051.91721        13.500           0.750
  21682953.374   -12454321.521 6  -9458499.07621        12.750           1.063
 91  5 21 19  4 14.9950000  0  6G18G 2G11G19G16G 6
  20988288.499     1662935.945 6   1303736.11221        16.750           1.281
  20288188.991   -21505887.077 7 -16587424.24023        26.250           2.625
  21578812.023   -15384540.371 6 -11845701.53821        13.750           0.813
  19497127.085    -6748461.093 6  -5199469.81522        18.000           1.938
  21865836.171   -12448767.789 6  -9519890.95321        13.250           0.625
  21671001.163   -12517141.270 6  -9507449.49421        13.250           0.844
 91  5 21 19  4 29.9950000  0  6G18G 2G11G19G16G 6
  20991308.468     1678805.327 6   1316101.75422        17.000           1.500
  20276216.976   -21568797.374 7                        25.750
  21572562.476   -15417378.334 6 -11871289.55021        14.000           0.781
  19493912.452    -6765355.408 6  -5212634.23522        18.250           1.969
  21860280.640   -12477957.333 6  -9542636.09121        13.500           0.781
  21659046.015   -12579956.752 6                        13.000
 91  5 21 19  4 44.9950000  0  6G18G 2G11G19G16G 6
  20994336.983     1694730.674 6   1328511.01521        17.000           1.313
  20264258.054   -21631642.349 7                        26.500
  21566341.812   -15450077.544 6 -11896769.44821        14.250           0.781
  19490705.023    -6782208.597 6  -5225766.60522        18.000           1.813
  21854752.046   -12507024.890 6  -9565286.16821        13.250           0.688
  21647093.249   -12642766.346 6                        12.750
 91  5 21 19  4 59.9950000  0  6G18G 2G11G19G16G 6
  20997378.976     1710711.115 6   1340963.19821        17.000           1.438
  20252310.757   -21694422.376 7                        25.500
  21560145.866   -15482638.590 6 -11922141.68621        14.250           0.750
  19487506.765    -6799021.085 6  -5238867.25622        18.500           1.938
  21849243.163   -12535970.941 6  -9587841.55221        13.750           0.719
  21635143.538   -12705570.792 6                        13.000
 91  5 21 19  5 14.9950000  0  6G18G 2G11G19G16G 6
  21000432.398     1726749.356 6   1353460.41921        16.500           1.281
  20240378.241   -21757134.457 7 -16783201.26023        26.000           2.781
  21553975.601   -15515058.433 6 -11947403.88921        14.000           0.750
  19484315.319    -6815789.897 6  -5251933.87422        18.500           1.906
  21843759.976   -12564792.742 6  -9610300.13121        13.750           0.594
  21623192.335   -12768366.990 6                        12.750
 91  5 21 19  5 29.9950000  0  6G18G 2G11G19G16G 6
  21003493.257     1742842.271 6   1366000.24821        16.750           1.375
  20228455.023   -21819781.398 7 -16832017.01223        25.250           2.750
  21547831.898   -15547339.903 6 -11972558.26521        14.250           0.844
  19481132.249    -6832518.029 6  -5264968.80022        18.500           1.969
  21838296.483   -12593493.317 6  -9632664.26521        13.000           0.656
  21611244.960   -12831157.874 6                        13.000
 91  5 21 19  5 44.9950000  0  6G18G 2G11G19G16G 6
  21006568.452     1758995.752 6   1378587.27321        16.500           1.313
  20216547.546   -21882357.056 7 -16880777.22423        26.000           2.844
  21541716.741   -15579476.687 6 -11997599.91321        13.750           0.781
  19477958.194    -6849199.075 6  -5277967.03022        18.500           2.031
  21832859.093   -12622066.611 6  -9654929.21721        13.250           0.625
  21599299.780   -12893937.176 6  -9667755.35421        13.500           0.969
 91  5 21 19  5 59.9950000  0  6G18G 2G11G19G16G 6
  21009652.655     1775206.363 6   1391218.80021        16.750           1.344
  20204652.366   -21944864.614 7 -16929484.37423        25.250           2.781
  21535628.968   -15611471.994 6 -12022531.31821        14.000           0.719
  19474794.874    -6865836.370 6  -5290931.17422        17.750           1.938
  21827443.616   -12650515.944 6  -9677097.56021        13.500           0.688
  21587356.288   -12956708.328 6  -9716667.89421        13.000           1.000
 91  5 21 19  6 14.9950000  0  6G18G 2G11G19G16G 6
  21012748.523     1791471.472 6   1403892.79921        16.750           1.250
  20192771.319   -22007306.319 7 -16978140.20723        25.750           2.719
  21529566.507   -15643328.302 6 -12047354.41121        14.250           0.813
  19471633.382    -6882432.247 6  -5303863.04922        18.250           2.063
  21822056.273   -12678843.723 6  -9699171.17021        13.000           0.688
  21575409.843   -13019473.707 6  -9765575.92721        12.500           0.781
 91  5 21 19  6 29.9950000  0  6G18G 2G11G19G16G 6
  21015855.249     1807796.631 6   1416613.59121        16.500           1.250
  20180902.749   -22069676.364 7 -17026740.20223        25.250           2.781
  21523531.710   -15675039.773 6 -12072064.64621        14.000           0.719
  19468484.944    -6898980.986 6  -5316758.18222        19.000           2.063
  21816686.241   -12707044.311 6  -9721145.65421        13.250           0.656
  21563464.155   -13082227.427 6  -9814474.87321        12.500           0.906
 91  5 21 19  6 44.9950000  0  6G18G 2G11G19G16G 6
  21018972.093     1824175.345 6   1429376.10621        16.500           1.188
  20169046.288   -22131980.705 7 -17075288.99523        25.500           2.719
  21517524.390   -15706612.508 6 -12096666.77921        14.000           0.844
  19465344.765    -6915488.711 6  -5329621.36522        18.750           2.031
  21811345.179   -12735124.345 6  -9743026.18621        13.750           0.625
  21551525.452   -13144975.771 6  -9863369.63321        12.500           0.813
 91  5 21 19  6 59.9950000  0  6G18G 2G11G19G16G 6
  21022099.733     1840608.334 6   1442180.91521        16.500           1.219
  20157202.155   -22194218.379 7 -17123785.84923        25.250           2.813
  21511542.718   -15738045.395 6 -12121159.93421        14.250           0.844
  19462210.265    -6931954.387 6  -5342451.77322        18.500           2.094
  21806022.460   -12763082.468 6  -9764811.77421        12.250           0.688
  21539589.851   -13207717.783 6  -9912259.45921        13.000           0.906
 91  5 21 19  7 14.9950000  0  6G18G 2G11G19G16G 6
  21025235.218     1857097.073 6   1455029.16021        15.750           1.281
  20145373.866   -22256387.637 7 -17172229.38423        25.500           3.000
  21505588.265   -15769336.936 6 -12145542.95621        14.250           0.719
  19459084.390    -6948376.399 6  -5355248.16222        18.500           1.969
  21800726.116   -12790917.233 6  -9786501.23321        12.750           0.656
  21527649.038   -13270451.894 6  -9961143.13321        13.250           0.844
 91  5 21 19  7 29.9950000  0  6G18G 2G11G19G16G 6
  21028384.398     1873645.585 6   1467923.98521        16.000           1.188
  20133554.921   -22318484.347 7 -17220616.38323        25.000           2.688
  21499660.210   -15800482.707 6 -12169812.38521        14.250           0.813
  19455968.741    -6964750.393 6  -5368007.13522        18.500           2.094
  21795457.983   -12818624.432 6  -9808091.27021        13.750           0.781
  21515716.233   -13333173.723 6 -10010017.24221        13.000           0.906
 91  5 21 19  7 44.9950000  0  6G18G 2G11G19G16G 6
  21031546.030     1890248.439 6   1480861.16221        16.500           1.313
  20121752.069   -22380513.727 7 -17268950.92823        25.000           2.875
  21493759.523   -15831487.965 6 -12193972.33021        14.250           0.750
  19452863.444    -6981081.743 6  -5380733.37822        19.000           2.063
  21790205.562   -12846209.844 6  -9829586.43521        12.500           0.750
  21503779.304   -13395888.589 6 -10058885.91021        13.000           0.781
 91  5 21 19  7 59.9950000  0  6G18G 2G11G19G16G 6
  21034714.069     1906906.502 6   1493841.35321        16.250           1.094
  20109960.819   -22442474.415 7 -17317231.93623        24.500           2.625
  21487888.413   -15862351.600 6 -12218021.90721        14.250           0.813
  19449761.999    -6997369.339 6  -5393425.02022        19.250           2.094
  21784979.866   -12873672.337 6  -9850985.81121        13.000           0.656
  21491848.030   -13458595.391 6 -10107748.28921        13.250           0.813
 91  5 21 19  8 14.9940000  0  6G18G 2G11G19G16G 6
  21037895.104     1923618.229 6   1506863.36621        16.000           1.219
  20098183.729   -22504362.602 7 -17365456.46323        24.500           2.688
  21482042.447   -15893071.699 6 -12241959.64921        14.250           0.781
  19446671.049    -7013612.233 6  -5406081.85322        19.250           2.094
  21779776.330   -12901010.157 6  -9872288.03321        13.250           0.781
  21479918.119   -13521290.219 6 -10156601.35121        13.250           0.938
 91  5 21 19  8 29.9940000  0  6G18G 2G11G19G16G 6
  21041086.627     1940390.544 6   1519932.57621        16.000           1.125
  20086419.690   -22566181.437 7 -17413626.94023        24.250           2.594
  21476223.643   -15923647.181 6 -12265784.69621        14.500           0.719
  19443589.861    -7029807.493 6  -5418701.55022        19.500           2.063
  21774601.088   -12928222.360 6  -9893492.36421        12.750           0.750
  21467989.049   -13583976.308 6 -10205447.59921        13.000           0.969
 91  5 21 19  8 44.9940000  0  6G18G 2G11G19G16G 6
  21044288.510     1957218.522 6   1533045.16921        15.750           1.063
  20074670.775   -22627929.978 7 -17461742.64523        24.750           2.625
  21470432.096   -15954079.467 6 -12289498.16521        14.500           0.719
  19440517.072    -7045957.451 6  -5431285.95222        19.250           2.063
  21769445.947   -12955310.381 6  -9914599.96021        12.750           0.719
  21456059.190   -13646652.885 6 -10254286.43421        13.250           0.875
 91  5 21 19  8 59.9940000  0  6G18G 2G11G19G16G 6
  21047500.010     1974102.355 6   1546201.27421        15.750           1.188
  20062932.408   -22689608.129 7 -17509803.49823        24.750           2.813
  21464669.393   -15984368.312 6 -12313099.86321        14.000           0.813
  19437451.502    -7062061.962 6  -5443834.93922        19.000           2.063
  21764312.018   -12982274.283 6  -9935610.82321        13.500           0.688
  21444134.174   -13709319.967 6 -10303117.87621        12.500           1.063
 91  5 21 19  9 14.9940000  0  6G18G 2G11G19G16G 6
  21050725.221     1991042.570 6   1559401.31921        16.000           1.156
  20051208.525   -22751214.866 7 -17557808.70023        24.250           2.594
  21458932.025   -16014512.677 6 -12336588.97121        14.250           0.750
  19434396.096    -7078120.017 6  -5456347.72222        19.500           2.063
  21759205.869   -13009113.341 6  -9956524.38821        12.750           0.656
  21432214.322   -13771976.428 6 -10351941.03421        13.500           1.000
 91  5 21 19  9 29.9940000  0  6G18G 2G11G19G16G 6
  21053957.713     2008036.343 6   1572643.10421        15.750           1.156
  20039500.018   -22812752.841 7 -17605760.33423        24.500           2.625
  21453223.385   -16044515.306 6 -12359967.64721        14.500           0.844
  19431349.158    -7094134.275 6  -5468826.38722        19.500           2.125
  21754119.869   -13035830.166 6  -9977342.72921        12.250           0.750
  21420289.190   -13834625.064 6 -10400758.09321        13.750           1.031
 91  5 21 19  9 44.9940000  0  6G18G 2G11G19G16G 6
  21057203.080     2025084.016 6   1585926.88321        15.750           1.094
  20027801.455   -22874221.093 7 -17653657.63823        24.000           2.625
  21447539.705   -16074375.456 6 -12383235.29321        14.250           0.781
  19428309.861    -7110103.925 6  -5481270.78722        19.500           2.031
  21749062.549   -13062424.243 6  -9998065.43421        13.000           0.719
  21408372.033   -13897265.113 6 -10449568.47721        13.500           1.063
 91  5 21 19  9 59.9940000  0  6G18G 2G11G19G16G 6
  21060458.143     2042185.070 6   1599252.26221        15.250           1.188
  20016117.369   -22935620.295 7 -17701501.12523        24.500           2.594
  21441885.830   -16104093.781 6 -12406392.42021        14.250           0.719
  19425279.596    -7126029.664 6  -5493680.47822        19.250           2.031
  21744023.455   -13088896.425 6 -10018693.14321        12.500           0.656
  21396455.932   -13959897.303 6 -10498372.72421        14.250           1.031
 91  5 21 19 10 14.9940000  0  6G18G 2G11G19G16G 6
  21063723.166     2059335.286 6   1612615.93921        15.250           1.094
  20004446.736   -22996954.117 7 -17749293.68623        24.250           2.750
  21436256.479   -16133673.905 6 -12429441.87021        14.500           0.750
  19422257.400    -7141915.038 6  -5506058.70822        19.250           2.031
  21739010.994   -13115250.416 6 -10039228.74021        12.500           0.719
  21384535.916   -14022525.206 6 -10547173.63621        14.000           1.031
 91  5 21 19 10 29.9940000  0  6G18G 2G11G19G16G 6
  21066994.705     2076538.316 6   1626020.77521        15.250           1.125
  19992789.025   -23058218.752 7 -17797032.31423        24.500           2.594
  21430653.604   -16163111.849 6 -12452380.52321        14.250           0.781
  19419243.135    -7157756.354 6  -5518402.61922        19.250           2.063
  21734019.010   -13141482.350 6 -10059669.25621        13.000           0.750
  21372619.166   -14085145.018 6 -10595968.24921        14.000           1.125
 91  5 21 19 10 44.9940000  0  6G18G 2G11G19G16G 6
  21070279.088     2093791.664 6   1639464.82021        15.250           1.031
  19981142.822   -23119416.227 7 -17844718.63322        24.250           2.469
  21425078.088   -16192409.863 6 -12475210.14421        14.250           0.813
  19416236.275    -7173555.812 6  -5530713.89322        19.250           2.031
  21729049.361   -13167594.725 6 -10080016.60621        13.250           0.719
  21360703.143   -14147758.929 6 -10644758.25421        14.500           1.063
 91  5 21 19 10 59.9940000  0  6G18G 2G11G19G16G 6
  21073571.846     2111098.724 6   1652950.71821        14.750           1.156
  19969511.268   -23180542.594 7 -17892349.52223        24.500           2.594
  21419532.955   -16221564.005 6 -12497927.64821        14.250           0.844
  19413236.080    -7189309.264 6  -5542989.33522        19.500           2.094
  21724104.518   -13193583.896 6 -10100267.92721        12.500           0.688
  21348790.627   -14210363.077 6 -10693540.66021        14.750           1.063
 91  5 21 19 11 14.9940000  0  6G18G 2G11G19G16G 6
  21076876.190     2128461.388 6   1666479.94221        15.250           1.031
  19957892.213   -23241596.175 7 -17939923.70823        24.250           2.500
  21414011.971   -16250572.692 6 -12520531.82421        14.500           0.719
  19410249.096    -7205015.261 6  -5555227.79422        19.000           2.031
  21719181.096   -13219448.192 6 -10120421.96121        12.500           0.750
  21336879.080   -14272955.807 6 -10742314.17521        14.500           1.063
 91  5 21 19 11 29.9940000  0  6G18G 2G11G19G16G 6
  21080190.471     2145873.818 6   1680047.94221        14.750           0.938
  19946288.494   -23302582.512 7 -17987445.48523        25.000           2.563
  21408517.033   -16279441.377 6 -12543026.89121        14.250           0.844
  19407268.213    -7220679.189 6  -5567433.46922        18.750           2.063
  21714283.557   -13245193.236 6 -10140483.07621        13.500           0.781
  21324969.307   -14335542.618 6 -10791083.07421        14.250           1.125
 91  5 21 19 11 44.9940000  0  6G18G 2G11G19G16G 6
  21083512.846     2163336.735 6   1693655.27721        14.750           1.031
  19934694.166   -23363500.138 7 -18034913.73822        24.750           2.438
  21403049.752   -16308168.893 6 -12565411.96921        14.250           0.781
  19404296.416    -7236299.936 6  -5579605.50222        18.500           2.000
  21709405.197   -13270818.130 6 -10160450.56521        12.500           0.844
  21313060.908   -14398122.373 6 -10839846.47121        14.250           1.094
 91  5 21 19 11 59.9940000  0  6G18G 2G11G19G16G 6
  21086845.518     2180853.125 6   1707304.28921        14.250           0.938
  19923116.619   -23424345.957 7 -18082326.02523        26.250           2.625
  21397613.221   -16336752.033 6 -12587684.53721        14.000           0.781
  19401330.932    -7251874.234 6  -5591741.33722        18.500           2.031
  21704553.877   -13296319.962 6 -10180322.17521        12.000           0.625
  21301156.275   -14460691.877 6 -10888601.88321        14.250           1.031
 91  5 21 19 12 14.9940000  0  6G18G 2G11G19G16G 6
  21090189.338     2198420.019 6   1720992.65121        14.500           1.031
  19911549.322   -23485122.526 7 -18129684.37723        24.250           2.719
  21392201.119   -16365193.544 6 -12609846.74321        14.500           0.719
  19398376.963    -7267404.905 6  -5603843.17222        18.500           2.063
  21699725.135   -13321701.333 6 -10200099.90421        14.000           0.781
  21289250.565   -14523253.814 6 -10937351.39221        14.250           1.219
 91  5 21 19 12 29.9940000  0  6G18G 2G11G19G16G 6
  21093542.080     2216037.896 6   1734720.73921        14.250           0.906
  19899999.580   -23545829.235 7 -18176988.25123        26.250           2.688
  21386814.479   -16393492.679 6 -12631898.01221        14.500           0.813
  19395430.752    -7282891.105 6  -5615910.36322        17.750           2.094
  21694915.893   -13346961.315 6 -10219783.02821        12.750           0.688
  21277346.229   -14585807.538 6 -10986094.50021        14.000           1.156
 91  5 21 19 12 44.9940000  0  6G18G 2G11G19G16G 6
  21096907.158     2233714.054 6   1748494.23621        14.500           0.969
  19888461.002   -23606458.751 7 -18224232.01023        24.750           2.781
  21381457.619   -16421642.144 6 -12653832.65621        14.500           0.781
  19392491.955    -7298325.376 6  -5627937.08122        18.500           1.906
  21690133.408   -13372093.022 6 -10239366.23721        12.000           0.750
  21265442.979   -14648345.696 6 -11034825.48521        14.500           1.281
 91  5 21 19 12 59.9940000  0  6G18G 2G11G19G16G 6
  21100278.565     2251438.622 6   1762305.45421        14.000           1.000
  19876938.182   -23667020.452 7 -18271422.89923        26.500           2.719
  21376128.025   -16449651.259 6 -12675657.93221        14.500           0.844
  19389563.635    -7313717.177 6  -5639930.71122        18.250           2.000
  21685374.127   -13397106.140 6 -10258857.03221        12.750           0.719
  21253546.658   -14710877.701 6 -11083551.67821        14.500           1.188
 91  5 21 19 13 14.9940000  0  6G18G 2G11G19G16G 6
  21103664.322     2269215.844 6   1776157.69521        14.500           0.938
  19865425.150   -23727509.892 7 -18318557.52423        25.000           2.688
  21370825.041   -16477515.595 6 -12697370.40521        14.250           0.813
  19386643.299    -7329062.057 6  -5651887.78822        18.250           2.094
  21680638.705   -13421996.402 6 -10278252.06121        13.500           0.781
  21241650.299   -14773399.245 6 -11132269.72321        14.250           1.188
 91  5 21 19 13 29.9940000  0  6G18G 2G11G19G16G 6
  21107056.729     2287049.731 6   1790054.11621        14.000           1.063
  19853931.533   -23787922.461 7 -18365632.20323        27.250           2.813
  21365551.135   -16505230.734 6 -12718966.59721        14.250           0.844
  19383736.346    -7344355.615 6  -5663804.84822        17.500           2.031
  21675924.768   -13446759.601 5 -10297548.08121        11.500           0.719
  21229750.174   -14835905.723 6 -11180976.00821        14.000           1.281
 91  5 21 19 13 44.9940000  0  6G18G 2G11G19G16G 6
  21110459.900     2304934.086 6   1803989.84321        14.000           1.000
  19842446.775   -23848264.281 7 -18412651.79123        25.500           2.719
  21360305.705   -16532802.892 6 -12740451.38321        14.250           0.875
  19380832.455    -7359603.915 6  -5675687.15922        18.750           2.031
  21671236.229   -13471401.552 6 -10316749.68821        13.000           0.813
  21217862.815   -14898403.359 6 -11229675.41521        14.500           1.156
 91  5 21 19 13 59.9940000  0  6G18G 2G11G19G16G 6
  21113869.182     2322866.969 6   1817963.38321        13.250           1.031
  19830978.494   -23908536.882 7 -18459617.42323        26.750           2.875
  21355084.830   -16560233.534 6 -12761825.90121        14.000           0.844
  19377940.861    -7374808.420 6  -5687534.83922        18.000           1.938
  21666569.150   -13495924.336 6 -10335858.37221        13.500           0.625
  21205967.940   -14960893.661 6 -11278369.10621        14.000           1.156
 91  5 21 19 14 14.9940000  0  6G18G 2G11G19G16G 6
  21117294.330     2340846.062 6   1831972.92821        14.000           1.031
  19819520.697   -23968742.272 7 -18506530.68023        26.250           2.813
  21349892.299   -16587524.907 6 -12783091.88921        14.250           0.719
  19375052.604    -7389971.249 6  -5699350.04622        18.750           2.031
  21661923.721   -13520330.354 6 -10354876.07121        12.000           0.688
  21194080.541   -15023378.804 6 -11327058.77821        14.750           1.188
 91  5 21 19 14 29.9940000  0  6G18G 2G11G19G16G 6
  21120725.221     2358876.038 6   1846022.12421        13.750           1.000
  19808077.752   -24028875.545 7 -18553387.75523        27.000           2.813
  21344725.354   -16614672.047 6 -12804245.49921        14.250           0.813
  19372179.861    -7405087.476 6  -5711128.93922        17.250           2.125
  21657304.377   -13544614.560 6 -10373798.89021        13.000           0.813
  21182185.768   -15085853.936 6 -11375740.64821        14.000           1.125
 91  5 21 19 14 44.9940000  0  6G18G 2G11G19G16G 6
  21124166.510     2376959.038 6   1860112.63721        13.750           1.000
  19796647.822   -24088934.272 7 -18600186.73523        26.750           2.875
  21339586.744   -16641672.553 6 -12825284.85021        14.250           0.844
  19369308.768    -7420154.702 6  -5722869.64322        18.250           1.938
  21652706.893   -13568774.954 6 -10392625.21621        13.250           0.781
  21170305.283   -15148316.466 6 -11424412.71021        14.500           1.344
 91  5 21 19 14 59.9940000  0  6G18G 2G11G19G16G 6
  21127613.330     2395096.812 6   1874245.83421        13.250           1.000
  19785232.979   -24148916.461 7 -18646926.08823        27.000           2.906
  21334477.674   -16668524.586 6 -12846208.50421        14.250           0.813
  19366451.986    -7435170.967 6  -5734570.65022        18.500           1.969
  21648128.596   -13592809.861 6 -10411353.75321        12.250           0.531
  21158414.799   -15210764.586 6 -11473073.53021        14.000           1.250
 91  5 21 19 15 14.9940000  0  6G18G 2G11G19G16G 6
  21131075.440     2413286.405 6   1888419.40421        13.250           0.938
  19773830.994   -24208824.645 7 -18693607.76823        26.750           2.938
  21329392.963   -16695230.634 6 -12867018.40321        14.250           0.906
  19363601.674    -7450138.886 6  -5746233.97922        18.750           1.969
  21643581.127   -13616721.758 6 -10429986.45321        13.000           0.750
  21146539.307   -15273200.945 6 -11521725.19621        14.500           1.219
 91  5 21 19 15 29.9940000  0  6G18G 2G11G19G16G 6
  21134546.666     2431528.811 6   1902634.12921        13.000           1.000
  19762446.682   -24268657.540 7 -18740230.77923        26.750           2.969
  21324339.354   -16721789.516 6 -12887713.62821        14.250           0.875
  19360763.541    -7465057.258 6  -5757858.70122        18.500           1.969
  21639052.690   -13640509.436 6 -10448522.33621        13.250           0.813
  21134657.322   -15335624.194 6 -11570366.64021        14.500           1.156
 91  5 21 19 15 44.9940000  0  6G18G 2G11G19G16G 6
  21138027.799     2449822.227 6   1916888.59921        13.250           1.000
  19751074.525   -24328416.605 7 -18786796.25723        27.250           3.031
  21319313.557   -16748202.632 6 -12908295.26821        14.250           0.781
  19357931.775    -7479927.474 6  -5769445.89222        18.500           2.063
  21634548.197   -13664174.777 6 -10466962.90221        12.500           0.750
  21122779.463   -15398035.841 6 -11618999.05321        14.500           1.156
 91  5 21 19 15 59.9940000  0  6G18G 2G11G19G16G 6
  21141522.775     2468166.605 6   1931182.81721        13.500           1.031
  19739718.479   -24388101.552 7 -18833303.95123        27.250           3.063
  21314316.713   -16774469.952 6 -12928763.27821        14.000           0.813
  19355114.705    -7494749.376 6  -5780995.41422        18.500           2.063
  21630072.400   -13687717.385 6 -10485307.82421        12.500           0.719
  21110908.893   -15460435.739 6 -11667622.27721        14.500           1.156
 91  5 21 19 16 14.9940000  0  6G18G 2G11G19G16G 6
  21145022.768     2486563.936 6   1945518.25721        13.250           0.938
  19728376.213   -24447710.462 8 -18879752.43923        28.000           3.031
  21309344.705   -16800589.444 6 -12949116.12221        13.750           0.813
  19352303.541    -7509520.817 6  -5792505.63822        18.250           1.969
  21625616.674   -13711135.656 6 -10503555.86921        13.000           0.656
  21099038.424   -15522821.864 6 -11716234.80021        14.250           1.063
 91  5 21 19 16 29.9940000  0  6G18G 2G11G19G16G 6
  21148532.416     2505012.967 6   1959893.98521        13.500           0.906
  19717045.666   -24507244.233 7 -18926142.37023        27.500           3.250
  21304403.744   -16826562.174 6 -12969354.60121        14.000           0.875
  19349500.979    -7524242.694 6  -5803977.24822        18.500           2.063
  21621180.432   -13734430.959 6 -10521708.09521        12.500           0.719
  21087169.861   -15585195.227 6 -11764837.37721        14.250           1.219
 91  5 21 19 16 44.9940000  0  6G18G 2G11G19G16G 6
  21152053.596     2523514.839 6   1974310.89921        13.250           1.000
  19705733.135   -24566701.226 7 -18972472.45823        27.750           3.188
  21299487.768   -16852386.476 6 -12989477.43021        14.000           0.969
  19346709.674    -7538913.410 6  -5815408.98722        18.500           1.969
  21616773.596   -13757601.687 6 -10539763.27021        12.500           0.781
  21075301.283   -15647554.099 6 -11813428.65821        14.250           1.125
 91  5 21 19 16 59.9940000  0  6G18G 2G11G19G16G 6
  21155585.158     2542070.048 6   1988769.36021        13.500           1.063
  19694430.650   -24626080.742 7 -19018742.19023        27.000           3.188
  21294602.354   -16878061.773 6 -13009484.14621        14.000           0.906
  19343926.213    -7553532.522 6  -5826800.50622        18.250           1.969
  21612386.838   -13780647.518 6 -10557721.11221        13.500           0.719
  21063436.377   -15709898.033 6 -11862008.29621        14.750           1.125
 91  5 21 19 17 14.9940000  0  6G18G 2G11G19G16G 6
  21159124.705     2560677.762 6   2003268.74621        13.250           0.969
  19683147.205   -24685383.145 7 -19064951.81923        27.750           3.313
  21289744.307   -16903588.440 6 -13029375.05221        13.750           0.906
  19341154.299    -7568100.260 6  -5838152.00222        18.250           1.938
  21608027.736   -13803568.842 6 -10575581.91221        13.250           0.719
  21051572.275   -15772227.329 6 -11910576.54321        14.250           1.281
 91  5 21 19 17 29.9940000  0  6G18G 2G11G19G16G 6
  21162676.705     2579339.217 6   2017810.00121        13.250           0.875
  19671875.760   -24744606.999 7 -19111100.25223        27.250           3.344
  21284916.299   -16928965.149 6 -13049149.09621        14.250           0.844
  19338392.072    -7582615.347 6  -5849462.47022        18.250           1.906
  21603688.229   -13826364.569 6 -10593344.86921        12.500           0.813
  21039716.455   -15834540.609 6 -11959132.30621        15.000           1.250
 91  5 21 19 17 44.9940000  0  6G18G 2G11G19G16G 6
  21166234.494     2598047.413 6   2032387.67421        13.000           1.000
  19660619.416   -24803758.697 8 -19157192.46023        28.000           3.375
  21280113.166   -16954198.594 6 -13068811.52421        14.000           0.875
  19335638.416    -7597084.079 6  -5860736.81922        18.250           1.938
  21599370.307   -13849041.321 6 -10611015.13821        13.000           0.719
  21027859.471   -15896844.448 6 -12007680.71921        14.750           1.250
 91  5 21 19 17 59.9940000  0  6G18G 2G11G19G16G 6
  21169807.080     2616811.759 6   2047009.10221        13.250           1.000
  19649377.197   -24862829.106 7 -19203221.32523        26.750           3.344
  21275340.213   -16979279.504 6 -13088355.09121        14.250           0.781
  19332894.861    -7611497.157 6  -5871967.80122        18.750           2.031
  21595082.057   -13871589.760 6 -10628585.39821        13.500           0.688
  21016008.377   -15959129.431 6 -12056214.42921        15.250           1.125
 91  5 21 19 18 14.9940000  0  6G18G 2G11G19G16G 6
  21173389.158     2635629.821 6   2061672.40121        13.000           0.906
  19638153.588   -24921820.036 7 -19249188.24523        27.750           3.469
  21270597.432   -17004209.750 6 -13107781.24221        14.250           0.875
  19330162.760    -7625856.611 6  -5883156.98922        18.500           1.938
  21590815.440   -13894012.070 6 -10646057.36021        12.750           0.656
  21004158.596   -16021397.641 6 -12104735.06121        14.250           1.219
 91  5 21 19 18 29.9940000  0  6G18G 2G11G19G16G 6
  21176978.158     2654494.108 6   2076371.69521        13.250           1.000
  19626940.963   -24980738.815 7 -19295098.95723        27.500           3.375
  21265878.736   -17028996.679 6 -13127095.72921        14.000           0.844
  19327441.400    -7640169.851 6  -5894310.67622        17.750           1.719
  21586570.690   -13916316.263 6 -10663437.30821        13.250           0.781
  20992312.815   -16083656.295 6 -12153248.25821        15.000           1.188
 91  5 21 19 18 44.9940000  0  6G18G 2G11G19G16G 6
  21180577.955     2673409.589 6   2091110.89521        13.250           0.906
  19615744.869   -25039580.078 7 -19340949.27223        27.750           3.438
  21261190.010   -17053635.121 6 -13146294.50621        14.000           0.781
  19324725.135    -7654431.550 6  -5905423.69522        18.000           1.938
  21582349.768   -13938496.981 6 -10680721.02321        13.750           0.813
  20980463.486   -16145900.173 6 -12201749.92121        14.500           1.188
 91  5 21 19 18 59.9940000  0  6G18G 2G11G19G16G 6
  21184187.393     2692378.132 6   2105891.43621        13.000           0.781
  19604562.604   -25098341.497 7 -19386737.36524        27.250           3.500
  21256530.361   -17078122.843 6 -13165375.84621        14.250           0.844
  19322020.049    -7668639.484 6  -5916494.82322        18.750           1.844
  21578151.424   -13960552.031 6 -10697906.83421        12.750           0.688
  20968625.072   -16208127.044 6 -12250238.35521        15.250           1.188
 91  5 21 19 19 14.9940000  0  6G18G 2G11G19G16G 6
  21187804.861     2711388.469 6   2120704.54721        13.250           0.875
  19593392.807   -25157034.201 7 -19432471.91324        27.250           3.500
  21251896.760   -17102471.022 6 -13184348.44621        14.250           0.813
  19319326.393    -7682804.713 6  -5927532.68022        18.500           1.938
  21573978.025   -13982492.711 6 -10715003.52721        13.000           0.625
  20956785.307   -16270348.017 6 -12298722.18721        15.000           1.219
 91  5 21 19 19 29.9940000  0  6G18G 2G11G19G16G 6
  21191431.557     2730442.542 6   2135551.73321        13.250           0.781
  19582236.947   -25215656.014 7 -19478151.21724        27.000           3.563
  21247291.385   -17126677.392 6 -13203210.55521        14.500           0.844
  19316638.244    -7696924.840 6  -5938535.38122        18.500           1.938
  21569823.525   -14004316.943 6 -10732009.45921        13.500           0.688
  20944947.182   -16332560.771 6 -12347199.61221        15.250           1.188
 91  5 21 19 19 44.9940000  0  6G18G 2G11G19G16G 6
  21195063.361     2749548.466 6   2150439.33121        12.500           0.875
  19571097.690   -25274198.389 7 -19523768.62223        26.500           3.438
  21242713.971   -17150733.736 6 -13221955.75521        14.750           0.844
  19313962.502    -7710991.471 6  -5949496.40922        19.000           1.813
  21565695.627   -14026016.419 6 -10748918.19021        13.000           0.813
  20933107.252   -16394757.078 6 -12395664.22321        15.000           1.281
 91  5 21 19 19 59.9940000  0  6G18G 2G11G19G16G 6
  21198711.252     2768701.927 6   2165363.95421        13.000           0.906
  19559970.869   -25332665.549 7 -19569327.41524        27.000           3.563
  21238163.650   -17174644.195 6 -13240587.28021        14.500           0.844
  19311293.940    -7725008.748 6  -5960418.97922        18.750           1.906
  21561588.330   -14047595.555 6 -10765733.16421        13.000           0.625
  20921278.869   -16456940.907 6 -12444119.10721        14.000           1.125
 91  5 21 19 20 14.9940000  0  6G18G 2G11G19G16G 6
  21202364.127     2787906.824 6   2180328.67021        12.750           0.938
  19548861.791   -25391053.283 7 -19614824.33124        27.000           3.594
  21233642.291   -17198404.588 6 -13259101.87521        14.750           0.813
  19308638.486    -7738972.553 6  -5971299.87222        18.750           1.938
  21557504.979   -14069050.530 6 -10782451.37421        13.250           0.656
  20909443.658   -16519108.177 6 -12492561.08321        14.750           1.188
 91  5 21 19 20 29.9940000  0  6G18G 2G11G19G16G 6
  21206031.736     2807165.502 6   2195335.28921        12.500           0.969
  19537764.783   -25449359.262 7 -19660257.53523        27.250           3.438
  21229149.315   -17222012.592 6 -13277497.72321        14.750           0.844
  19305990.533    -7752880.343 6  -5982137.12422        18.750           1.938
  21553447.268   -14090379.129 6 -10799071.09021        13.000           0.813
  20897620.869   -16581256.472 6 -12540988.27821        14.500           1.250
 91  5 21 19 20 44.9930000  0  6G18G 2G11G19G16G 6
  21209702.333     2826472.749 6   2210379.75921        12.500           0.813
  19526684.263   -25507582.758 7 -19705626.47224        26.500           3.500
  21224685.474   -17245470.200 6 -13295776.38121        14.750           0.813
  19303354.583    -7766734.867 6  -5992932.87122        18.750           2.000
  21549411.036   -14111583.609 6 -10815594.12621        12.500           0.750
  20885794.482   -16643385.048 6 -12589400.10121        14.750           1.219
 91  5 21 19 20 59.9930000  0  6G18G 2G11G19G16G 6
  21213388.950     2845826.196 6   2225460.21521        12.500           0.781
  19515619.341   -25565736.080 7 -19750940.71623        27.000           3.469
  21220248.630   -17268785.065 6 -13313943.81621        14.250           0.844
  19300726.732    -7780542.186 6  -6003691.82822        18.500           1.906
  21545398.653   -14132671.299 6 -10832026.16421        13.000           0.781
  20873975.239   -16705506.573 6 -12637806.43721        14.250           1.344
 91  5 21 19 21 14.9930000  0  6G18G 2G11G19G16G 6
  21217078.552     2865225.048 6   2240576.06021        12.500           0.813
  19504566.497   -25623814.966 7 -19796196.97024        26.250           3.531
  21215839.333   -17291955.211 6 -13331998.47721        14.500           0.750
  19298107.778    -7794301.038 6  -6014413.02922        18.500           1.938
  21541408.685   -14153640.626 6 -10848365.93521        13.250           0.625
  20862155.919   -16767616.581 6 -12686203.80321        14.750           1.281
 91  5 21 19 21 29.9930000  0  6G18G 2G11G19G16G 6
  21220781.255     2884672.530 6   2255729.80021        12.750           0.750
  19493529.560   -25681815.957 7 -19841392.51923        26.000           3.375
  21211458.638   -17314977.203 6 -13349937.69621        14.750           0.719
  19295499.950    -7808007.742 6  -6025093.59122        19.000           1.938
  21537446.435   -14174488.008 6 -10864610.68621        12.750           0.688
  20850338.364   -16829711.482 6 -12734589.38221        14.750           1.125
 91  5 21 19 21 44.9930000  0  6G18G 2G11G19G16G 6
  21224489.536     2904167.314 6   2270920.40421        12.750           0.750
  19482505.630   -25739739.864 7 -19886528.00323        25.750           3.438
  21207105.896   -17337851.996 6 -13367762.22021        14.750           0.750
  19292902.224    -7821663.305 6  -6035734.29422        18.750           2.031
  21533494.935   -14195214.692 6 -10880761.41321        12.500           0.719
  20838529.739   -16891792.264 6 -12782963.96521        15.000           1.250
 91  5 21 19 21 59.9930000  0  6G18G 2G11G19G16G 6
  21228209.442     2923708.296 6   2286147.00121        12.750           0.719
  19471499.560   -25797587.375 7 -19931603.95223        26.250           3.438
  21202779.982   -17360580.601 6 -13385472.82821        14.750           0.938
  19290311.716    -7835268.639 6  -6046335.86722        18.750           2.000
  21529574.786   -14215822.134 6 -10896819.21421        12.750           0.688
  20826714.325   -16953859.858 6 -12831328.27821        14.500           1.281
 91  5 21 19 22 14.9930000  0  6G18G 2G11G19G16G 6
  21231937.935     2943300.064 6   2301413.17221        12.500           0.719
  19460506.888   -25855353.720 7 -19976616.66023        26.000           3.406
  21198484.747   -17383158.059 6 -13403065.65521        14.750           0.750
  19287734.294    -7848818.696 6  -6056894.36622        18.750           2.000
  21525679.044   -14236305.416 6 -10912780.25921        13.000           0.656
  20814906.911   -17015909.196 6 -12879678.36521        15.250           1.250
 91  5 21 19 22 29.9930000  0  6G18G 2G11G19G16G 6
  21235673.435     2962937.848 6   2316715.19921        12.250           0.750
  19449528.755   -25913043.469 7 -20021569.68223        26.500           3.313
  21194216.466   -17405588.949 6 -13420544.27921        14.750           0.813
  19285165.450    -7862317.924 6  -6067413.25822        19.000           1.969
  21521804.364   -14256669.168 6 -10928648.15221        12.250           0.688
  20803102.458   -17077944.870 6 -12928017.79221        15.000           1.375
 91  5 21 19 22 44.9930000  0  6G18G 2G11G19G16G 6
  21239425.028     2982625.200 6   2332055.88521        12.500           0.688
  19438568.864   -25970652.738 7 -20066459.95723        25.750           3.375
  21189980.114   -17427869.651 6 -13437905.84021        14.750           0.906
  19282610.982    -7875762.700 6  -6077889.68822        18.750           2.000
  21517957.989   -14276909.647 6 -10944419.97221        12.750           0.594
  20791304.732   -17139963.147 6 -12976343.64921        15.000           1.281
 91  5 21 19 22 59.9930000  0  6G18G 2G11G19G16G 6
  21243179.114     3002358.308 6   2347432.18021        12.500           0.656
  19427621.505   -26028185.073 7 -20111290.32823        25.750           3.375
  21185767.896   -17450003.739 6 -13455153.20021        14.750           0.844
  19280060.247    -7889156.494 6  -6088326.42722        18.750           2.000
  21514129.130   -14297030.825 6 -10960098.86121        13.250           0.656
  20779507.669   -17201967.522 6 -13024658.70821        15.250           1.438
 91  5 21 19 23 14.9930000  0  6G18G 2G11G19G16G 6
  21246941.927     3022137.828 6   2362844.64821        12.000           0.656
  19416688.153   -26085639.517 7 -20156059.99623        25.500           3.125
  21181583.942   -17471990.396 6 -13472285.66821        15.000           0.813
  19277522.497    -7902498.468 6  -6098722.78422        18.500           2.000
  21510324.872   -14317031.778 6 -10975684.08021        12.500           0.719
  20767711.208   -17263957.059 6 -13072962.20021        15.750           1.188
 91  5 21 19 23 29.9930000  0  6G18G 2G11G19G16G 6
  21250714.544     3041962.460 5   2378292.27921        11.750           0.719
  19405768.966   -26143016.902 7 -20200769.62423        25.750           3.250
  21177428.591   -17493830.571 6 -13489303.99221        15.000           0.781
  19274993.607    -7915789.374 6  -6109079.34922        19.250           2.031
  21506532.919   -14336913.811 6 -10991176.64321        12.000           0.656
  20755917.739   -17325932.583 6 -13121254.77921        15.000           1.313
 91  5 21 19 23 44.9930000  0  6G18G 2G11G19G16G 6
  21254495.583     3061833.992 5   2393776.43621        11.500           0.750
  19394865.974   -26200315.348 7 -20245417.73523        25.750           3.344
  21173300.919   -17515522.371 6 -13506206.71221        15.500           0.844
  19272475.325    -7929027.227 6  -6119394.57522        18.500           2.063
  21502780.942   -14356674.741 6 -11006574.80221        13.250           0.594
  20744125.794   -17387892.149 6 -13169534.91621        15.000           1.188
 91  5 21 19 23 59.9930000  0  6G18G 2G11G19G16G 6
  21258284.903     3081749.797 5   2409295.10121        11.500           0.719
  19383977.239   -26257537.428 7 -20290006.34623        26.000           3.313
  21169199.388   -17537068.434 6 -13522995.87321        15.000           0.844
  19269965.239    -7942214.508 6  -6129670.39822        19.000           1.969
  21499037.435   -14376317.848 6 -11021881.16921        12.500           0.750
  20732338.646   -17449838.359 6 -13217804.65921        15.250           1.219
 91  5 21 19 24 14.9930000  0  6G18G 2G11G19G16G 6
  21262086.146     3101709.962 6   2424848.32621        12.000           0.688
  19373101.247   -26314682.643 7 -20334535.05523        26.000           3.156
  21165126.833   -17558468.527 6 -13539671.28521        15.000           0.813
  19267464.802    -7955350.927 6  -6139906.58522        18.250           2.031
  21495321.708   -14395843.148 6 -11037095.76221        12.000           0.656
  20720551.935   -17511770.726 6 -13266063.59321        15.750           1.188
 91  5 21 19 24 29.9930000  0  6G18G 2G11G19G16G 6
  21265890.591     3121714.448 5   2440436.08121        11.750           0.688
  19362242.974   -26371750.319 7 -20379003.34623        25.500           3.156
  21161083.044   -17579722.120 6 -13556232.54021        15.250           0.781
  19264973.067    -7968435.872 6  -6150102.65622        18.500           2.031
  21491627.442   -14415250.017 6 -11052218.05921        12.500           0.500
  20708768.724   -17573688.859 6 -13314311.44321        15.750           1.344
 91  5 21 19 24 44.9930000  0  6G18G 2G11G19G16G 6
  21269707.997     3141765.234 6   2456059.92821        12.250           0.688
  19351398.669   -26428738.724 7 -20423409.86023        26.500           3.219
  21157066.911   -17600827.441 6 -13572678.25421        15.250           0.813
  19262494.903    -7981467.540 6  -6160257.22622        18.000           2.094
  21487963.630   -14434536.979 6 -11067246.89421        12.750           0.500
  20696986.888   -17635590.819 6 -13362546.67921        15.250           1.250
 91  5 21 19 24 59.9930000  0  6G18G 2G11G19G16G 6
  21273530.653     3161860.032 6   2471718.06321        12.250           0.719
  19340566.989   -26485649.327 7 -20467755.76123        26.250           3.063
  21153077.739   -17621786.121 6 -13589009.71521        15.000           0.719
  19260025.732    -7994447.601 6  -6170371.57322        18.000           2.125
  21484313.591   -14453705.784 6 -11082183.68621        12.000           0.625
  20685214.817   -17697478.337 6 -13410770.67721        16.250           1.219
 91  5 21 19 25 14.9930000  0  6G18G 2G11G19G16G 6
  21277359.560     3181996.485 5   2487408.65721        11.500           0.688
  19329751.677   -26542484.390 7 -20512042.79923        26.500           3.125
  21149115.513   -17642600.518 6 -13605228.74521        14.500           0.719
  19257564.185    -8007378.008 6  -6180447.23022        18.500           2.125
  21480682.341   -14472758.688 6 -11097030.18121        12.000           0.688
  20673437.177   -17759353.434 6 -13458984.98621        15.500           1.313
 91  5 21 19 25 29.9930000  0  6G18G 2G11G19G16G 6
  21281202.896     3202187.453 6   2503141.73321        12.000           0.625
  19318953.224   -26599230.905 7 -20556260.83723        25.750           3.031
  21145184.458   -17663257.683 6 -13621325.26321        14.750           0.781
  19255115.107    -8020245.785 6  -6190474.09422        18.750           2.031
  21477082.271   -14491682.884 6 -11111776.36621        12.750           0.625
  20661665.911   -17821203.111 6 -13507179.49921        15.750           1.281
 91  5 21 19 25 44.9930000  0  6G18G 2G11G19G16G 6
  21285053.403     3222424.750 5   2518910.89621        11.750           0.656
  19308168.075   -26655896.960 7 -20600416.17923        26.000           3.156
  21141281.013   -17683765.630 6 -13637305.50321        14.500           0.906
  19252675.950    -8033058.758 6  -6200458.25222        18.500           2.063
  21473503.677   -14510486.534 5 -11126428.60821        11.750           0.531
  20649899.317   -17883035.285 6 -13555360.36821        16.000           1.344
 91  5 21 19 25 59.9930000  0  6G18G 2G11G19G16G 6
  21288914.521     3242707.801 5   2534715.75221        11.500           0.688
  19297403.974   -26712482.404 7 -20644508.68223        26.500           3.188
  21137410.146   -17704124.601 6 -13653169.63321        14.500           0.781
  19250254.185    -8045817.216 6  -6210399.91022        17.500           2.000
  21469948.591   -14529170.228 6 -11140987.37821        12.000           0.500
  20638141.349   -17944850.112 6 -13603527.71721        16.500           1.281
 91  5 21 19 26 14.9930000  0  6G18G 2G11G19G16G 6
  21292785.349     3263040.452 5   2550559.22921        11.750           0.750
  19286651.239   -26768983.292 7 -20688535.32623        26.000           3.063
  21133565.521   -17724330.596 6 -13668914.58921        14.750           0.844
  19247834.192    -8058517.099 6  -6220295.93622        18.000           1.938
  21466418.505   -14547729.635 6 -11155449.31421        12.750           0.563
  20626380.005   -18006643.398 6 -13651678.28321        16.500           1.250
 91  5 21 19 26 29.9930000  0  6G18G 2G11G19G16G 6
  21296660.638     3283416.968 5   2566436.87721        11.750           0.563
  19275914.310   -26825405.311 7 -20732500.50623        27.000           3.188
  21129749.396   -17744389.573 6 -13684544.98521        14.750           0.781
  19245430.700    -8071164.229 6  -6230150.86722        17.250           2.125
  21462911.833   -14566170.974 6 -11169819.24321        12.250           0.656
  20614626.528   -18068421.051 6 -13699816.67721        16.000           1.188
 91  5 21 19 26 44.9930000  0  6G18G 2G11G19G16G 6
  21300548.974     3303835.505 5   2582347.28221        11.500           0.750
  19265192.864   -26881749.855 7 -20776405.32023        27.000           3.094
  21125959.528   -17764303.059 6 -13700062.01521        15.000           0.875
  19243029.122    -8083759.859 6  -6239965.66122        18.000           2.063
  21459421.528   -14584496.074 6 -11184098.61321        12.000           0.594
  20602868.364   -18130184.429 6 -13747943.94021        16.250           1.219
 91  5 21 19 26 59.9930000  0  6G18G 2G11G19G16G 6
  21304441.200     3324299.689 5   2598293.23021        11.750           0.750
  19254485.185   -26938012.734 7 -20820246.50923        26.750           3.031
  21122196.630   -17784066.932 6 -13715462.46421        14.500           0.813
  19240645.419    -8096299.791 6  -6249737.05422        17.250           2.094
  21455960.083   -14602700.964 6 -11198284.29821        12.500           0.656
  20591121.216   -18191929.418 6 -13796056.88821        16.250           1.250
 91  5 21 19 27 14.9930000  0  6G18G 2G11G19G16G 6
  21308344.450     3344789.594 5   2614259.25821        11.750           0.719
  19243791.849   -26994213.965 7 -20864039.63323        27.000           3.031
  21118461.677   -17803701.248 6 -13730761.94321        14.500           0.719
  19238264.825    -8108803.791 6  -6259480.44822        17.750           2.031
  21452512.614   -14620805.624 6 -11212391.86821        12.500           0.688
  20579372.786   -18253675.932 6 -13844171.00621        16.500           1.313
 91  5 21 19 27 29.9930000  0  6G18G 2G11G19G16G 6
  21312250.591     3365317.031 5   2630254.52321        11.750           0.688
  19233111.544   -27050341.083 7 -20907775.02723        26.750           3.094
  21114752.146   -17823193.623 6 -13745950.83521        14.500           0.781
  19235895.997    -8121259.458 6  -6269186.18122        17.250           2.000
  21449088.966   -14638797.959 6 -11226411.94121        12.000           0.719
  20567622.896   -18315411.339 6 -13892276.48121        16.250           1.250
 91  5 21 19 27 44.9930000  0  6G18G 2G11G19G16G 6
  21316169.567     3385895.141 5   2646289.25121        11.500           0.750
  19222447.739   -27106380.973 8 -20951442.44423        28.000           3.125
  21111070.052   -17842531.150 6 -13761019.06521        14.250           0.844
  19233535.896    -8133653.795 6  -6278844.12522        17.500           2.125
  21445689.403   -14656665.035 6 -11240334.39621        12.000           0.531
  20555881.060   -18377122.742 6 -13940363.25021        16.000           1.188
 91  5 21 19 27 59.9930000  0  6G18G 2G11G19G16G 6
  21320089.653     3406525.627 5   2662364.79221        11.000           0.563
  19211796.997   -27162331.669 7 -20995040.37123        27.250           3.125
  21107421.130   -17861711.817 6 -13775965.06921        14.500           0.875
  19231188.185    -8145984.823 6  -6288452.74622        17.250           2.063
  21442312.466   -14674405.177 6 -11254157.95021        12.000           0.563
  20544141.528   -18438808.037 6 -13988429.68221        16.750           1.313
 91  5 21 19 28 14.9930000  0  6G18G 2G11G19G16G 6
  21324023.482     3427198.241 5   2678473.15921        11.000           0.625
  19201166.271   -27218202.846 8 -21038576.32923        28.000           3.250
  21103798.989   -17880745.577 6 -13790796.60021        14.500           0.781
  19228849.966    -8158262.268 6  -6298019.60922        17.500           2.000
  21438956.599   -14692028.500 5 -11267890.46521        11.250           0.563
  20532403.036   -18500477.016 6 -14036483.39921        16.750           1.375
 91  5 21 19 28 29.9930000  0  6G18G 2G11G19G16G 6
  21327964.817     3447909.008 5   2694611.27321        11.500           0.594
  19190547.724   -27273998.455 7 -21082053.39223        27.500           3.156
  21100201.458   -17899636.359 6 -13805516.72421        14.250           0.781
  19226522.575    -8170489.880 6  -6307547.63422        17.500           2.094
  21435627.724   -14709538.886 5 -11281534.99321        11.750           0.563
  20520670.357   -18562133.521 6 -14084527.39921        16.750           1.313
 91  5 21 19 28 44.9930000  0  6G18G 2G11G19G16G 6
  21331917.075     3468660.898 5   2710781.43221        11.250           0.594
  19179944.716   -27329715.138 7 -21125468.96623        27.500           3.188
  21096634.958   -17918381.045 6 -13820122.99421        14.250           0.781
  19224205.419    -8182664.490 6  -6317034.36622        17.500           1.969
  21432317.224   -14726933.194 5 -11295089.06321        11.750           0.500
  20508941.575   -18623774.138 6 -14132559.01321        16.500           1.281
 91  5 21 19 28 59.9930000  0  6G18G 2G11G19G16G 6
  21335868.403     3489459.282 5   2726987.80121        11.250           0.688
  19169358.021   -27385347.606 8 -21168818.90123        28.250           3.094
  21093097.333   -17936974.344 6 -13834611.30321        14.500           0.875
  19221898.161    -8194780.488 6  -6326475.42622        17.250           2.000
  21429027.122   -14744206.511 5 -11308548.85221        11.750           0.625
  20497214.177   -18685393.530 6 -14180574.08221        16.000           1.281
 91  5 21 19 29 14.9930000  0  6G18G 2G11G19G16G 6
  21339838.864     3510297.697 5   2743225.37221        11.000           0.750
  19158785.669   -27440901.750 7 -21212107.82323        27.750           3.219
  21089587.974   -17955422.338 6 -13848986.39221        15.000           0.781
  19219603.919    -8206844.146 6  -6335875.69922        17.250           2.000
  21425765.732   -14761365.156 5 -11321919.27921        11.750           0.531
  20485493.880   -18746997.788 6 -14228577.35321        16.750           1.313
 91  5 21 19 29 29.9930000  0  6G18G 2G11G19G16G 6
  21343805.583     3531177.885 5   2759495.49321        10.250           0.688
  19148230.247   -27496375.266 8 -21255333.90523        28.750           3.313
  21086104.380   -17973722.934 6 -13863246.62721        14.750           0.844
  19217318.903    -8218853.076 6  -6345233.32222        17.000           2.094
  21422522.567   -14778406.971 5 -11335198.67421        11.250           0.563
  20473772.482   -18808584.580 6 -14276567.01721        16.250           1.438
 91  5 21 19 29 44.9930000  0  6G18G 2G11G19G16G 6
  21347794.091     3552102.997 5   2775800.61721        11.250           0.719
  19137688.755   -27551765.171 8 -21298494.84423        28.000           3.313
  21082651.857   -17991873.183 6 -13877389.70321        14.750           0.750
  19215045.286    -8230803.971 6  -6354545.72922        17.250           2.000
  21419297.872   -14795329.083 5 -11348384.80821        11.000           0.563
  20462059.091   -18870150.787 6 -14324540.64621        16.500           1.375
 91  5 21 19 29 59.9930000  0  6G18G 2G11G19G16G 6
  21351777.239     3573066.733 5   2792135.84621        10.250           0.625
  19127163.614   -27607077.491 8 -21341595.32123        28.250           3.094
  21079223.724   -18009879.210 6 -13891420.40721        14.750           0.781
  19212780.130    -8242703.023 6  -6363817.73822        17.500           2.031
  21416099.630   -14812137.638 5 -11361482.45821        11.500           0.531
  20450345.263   -18931702.404 6 -14372502.89521        16.250           1.375
 91  5 21 19 30 14.9930000  0  6G18G 2G11G19G16G 6
  21355779.599     3594071.980 5   2808503.41721        10.250           0.625
  19116654.294   -27662308.809 8 -21384632.68323        28.500           3.313
  21075823.396   -18027737.713 6 -13905336.14921        14.250           0.781
  19210526.536    -8254546.999 6  -6373046.83822        17.500           2.125
  21412929.880   -14828829.512 6 -11374489.16221        12.250           0.469
  20438633.747   -18993235.994 6 -14420451.10921        15.750           1.438
 91  5 21 19 30 29.9930000  0  6G18G 2G11G19G16G 6
  21359780.591     3615119.187 5   2824903.67121        10.000           0.563
  19106158.521   -27717458.646 8 -21427606.56023        28.000           3.219
  21072454.841   -18045448.319 6 -13919136.65621        14.500           0.750
  19208282.927    -8266335.200 6  -6382232.46322        17.250           2.031
  21409773.107   -14845404.662 5 -11387404.91721        11.750           0.563
  20426926.497   -19054751.080 6 -14468384.90121        16.250           1.406
 91  5 21 19 30 44.9930000  0  6G18G 2G11G19G16G 6
  21363796.364     3636203.488 5   2841332.85621        10.000           0.656
  19095680.364   -27772531.056 8 -21470520.09823        29.000           3.313
  21069112.591   -18063015.471 6 -13932825.37221        14.250           0.813
  19206050.208    -8278071.880 6  -6391377.94522        17.250           2.000
  21406637.466   -14861867.490 5 -11400233.17121        11.250           0.594
  20415222.372   -19116251.871 6 -14516307.55522        16.250           1.500
 91  5 21 19 30 59.9930000  0  6G18G 2G11G19G16G 6
  21367814.771     3657330.377 5   2857795.20421        10.500           0.563
  19085215.130   -27827520.256 8 -21513368.80323        28.250           3.375
  21065797.239   -18080433.516 6 -13946397.90921        14.750           0.906
  19203831.239    -8289751.357 6  -6400478.86022        16.750           1.969
  21403531.185   -14878212.561 5 -11412969.64521        11.750           0.625
  20403525.732   -19177732.709 6 -14564214.64821        16.500           1.406
 91  5 21 19 31 14.9930000  0  6G18G 2G11G19G16G 6
  21371841.138     3678492.899 5   2874285.33421        10.000           0.719
  19074765.130   -27882433.257 8 -21556158.12923        28.500           3.344
  21062508.825   -18097709.366 6 -13959859.64721        14.250           0.781
  19201614.302    -8301380.394 6  -6409540.46622        17.250           1.969
  21400440.497   -14894446.670 5 -11425619.66621        11.500           0.563
  20391830.622   -19239200.358 6 -14612111.48021        17.000           1.469
 91  5 21 19 31 29.9930000  0  6G18G 2G11G19G16G 6
  21375876.216     3699695.208 5   2890806.45021         9.750           0.625
  19064330.349   -27937265.643 8 -21598884.63623        28.000           3.344
  21059250.911   -18114838.782 6 -13973207.27021        14.500           0.719
  19199411.575    -8312954.487 6  -6418559.25922        18.000           2.000
  21397370.700   -14910565.875 5 -11438180.16421        11.750           0.500
  20380134.599   -19300650.298 6 -14659994.50722        16.750           1.500
 91  5 21 19 31 44.9930000  0  6G18G 2G11G19G16G 6
  21379918.372     3720937.196 5   2907358.49621         9.750           0.594
  19053912.099   -27992017.595 8 -21641548.47023        28.000           3.438
  21056018.067   -18131822.008 6 -13986440.98721        14.750           0.781
  19197219.403    -8324473.780 6  -6427535.35522        17.250           2.063
  21394331.583   -14926570.436 6 -11450651.29821        12.250           0.438
  20368442.450   -19362082.687 6 -14707863.86021        16.750           1.375
 91  5 21 19 31 59.9930000  0  6G18G 2G11G19G16G 6
  21383972.200     3742222.184 5   2923944.04721         9.750           0.563
  19043508.958   -28046685.052 8 -21684146.45924        28.250           3.500
  21052815.888   -18148655.141 6 -13999557.74821        14.750           0.813
  19195037.685    -8335934.184 6  -6436465.55922        17.000           2.031
  21391303.638   -14942456.588 6 -11463030.19521        12.000           0.469
  20356760.153   -19423493.485 6 -14755716.39421        17.000           1.438
 91  5 21 19 32 14.9930000  0  6G18G 2G11G19G16G 6
  21388027.958     3763541.583 5   2940556.41021        10.250           0.594
  19033120.919   -28101276.531 8 -21726685.24523        28.000           3.438
  21049638.614   -18165346.782 6 -14012564.25021        14.750           0.750
  19192867.622    -8347344.174 6  -6445356.47722        17.000           2.000
  21388298.294   -14958233.162 5 -11475323.68821        11.000           0.500
  20345073.357   -19484891.133 6 -14803558.68421        17.250           1.469
 91  5 21 19 32 29.9930000  0  6G18G 2G11G19G16G 6
  21392096.021     3784901.405 5   2957200.28221        10.250           0.531
  19022748.052   -28155785.561 8 -21769159.78424        28.250           3.500
  21046489.630   -18181890.753 6 -14025455.68521        14.250           0.750
  19190708.091    -8358697.476 6  -6454203.22222        17.000           2.031
  21385322.552   -14973894.299 5 -11487527.24621        11.500           0.656
  20333396.927   -19546269.319 6 -14851385.80022        17.500           1.500
 91  5 21 19 32 44.9930000  0  6G18G 2G11G19G16G 6
  21396162.614     3806300.830 5   2973875.01921        10.500           0.469
  19012390.802   -28210212.942 7 -21811570.70223        27.750           3.406
  21043371.403   -18198287.716 6 -14038232.56021        14.500           0.781
  19188557.583    -8369994.673 6  -6463006.25322        17.250           2.000
  21382362.286   -14989440.665 5 -11499641.37621        11.500           0.625
  20321717.505   -19607628.607 6 -14899198.19021        17.250           1.469
 91  5 21 19 32 59.9920000  0  6G18G 2G11G19G16G 6
  21400247.539     3827738.108 5   2990579.22521        10.500           0.563
  19002049.344   -28264554.559 7 -21853914.79124        27.750           3.625
  21040278.750   -18214536.598 6 -14050894.04921        14.500           0.688
  19186418.508    -8381234.775 6  -6471764.80122        17.250           1.938
  21379427.274   -15004871.166 6 -11511665.21221        12.000           0.563
  20310048.453   -19668964.631 6 -14946992.46521        17.500           1.469
 91  5 21 19 33 14.9920000  0  6G18G 2G11G19G16G 6
  21404334.602     3849215.806 5   3007314.94621        10.500           0.500
  18991724.039   -28318818.050 7 -21896198.00024        27.500           3.594
  21037215.070   -18230639.988 6 -14063442.17721        14.750           0.750
  19184292.656    -8392419.505 6  -6480480.19422        17.000           1.906
  21376511.922   -15020188.390 6 -11523600.76621        12.000           0.500
  20298375.469   -19730285.831 6 -14994775.18121        17.250           1.438
 91  5 21 19 33 29.9920000  0  6G18G 2G11G19G16G 6
  21408427.914     3870730.617 5   3024079.56621        11.000           0.406
  18981412.125   -28373001.439 7 -21938418.78924        27.250           3.656
  21034177.695   -18246598.529 6 -14075877.43021        14.750           0.844
  19182173.234    -8403549.774 6  -6489153.15422        16.750           1.969
  21373618.547   -15035392.999 5 -11535448.59221        11.500           0.531
  20286713.172   -19791589.702 6 -15042544.39922        17.250           1.500
 91  5 21 19 33 44.9920000  0  6G18G 2G11G19G16G 6
  21412532.703     3892285.056 5   3040875.08521        10.500           0.594
  18971118.328   -28427102.011 8 -21980575.04724        28.000           3.688
  21031168.828   -18262409.542 6 -14088197.72821        14.500           0.781
  19180065.742    -8414622.613 6  -6497781.35622        16.500           2.094
  21370744.570   -15050482.632 5 -11547206.82321        11.250           0.625
  20275049.797   -19852873.434 6 -15090297.92521        17.250           1.438
 91  5 21 19 33 59.9920000  0  6G18G 2G11G19G16G 6
  21416639.016     3913875.651 5   3057698.75321        10.500           0.625
  18960839.242   -28481123.078 7 -22022669.35524        27.750           3.594
  21028186.734   -18278076.482 6 -14100405.76221        14.500           0.750
  19177968.883    -8425641.317 6  -6506367.38422        16.750           2.000
  21367895.742   -15065460.898 5 -11558878.27121        11.500           0.563
  20263389.789   -19914140.254 6 -15138038.26922        17.000           1.500
 91  5 21 19 34 14.9920000  0  6G18G 2G11G19G16G 6
  21420752.742     3935504.353 5   3074552.12821        10.750           0.500
  18950573.492   -28535062.314 7 -22064699.89424        27.750           3.594
  21025234.149   -18293597.227 6 -14112499.87021        14.500           0.688
  19175883.164    -8436603.606 6  -6514909.44722        16.750           1.906
  21365070.680   -15080325.702 6 -11570461.28921        12.000           0.500
  20251737.328   -19975387.919 6 -15185763.68922        17.250           1.500
 91  5 21 19 34 29.9920000  0  6G18G 2G11G19G16G 6
  21424883.891     3957172.091 5   3091435.92521        10.500           0.531
  18940325.422   -28588918.373 7 -22106665.62324        27.500           3.656
  21022307.828   -18308970.463 6 -14124479.04121        14.500           0.750
  19173807.914    -8447508.117 6  -6523406.49322        17.250           1.969
  21362261.899   -15095076.056 5 -11581955.14821        11.750           0.469
  20240087.484   -20036614.921 6 -15233473.00621        17.250           1.438
 91  5 21 19 34 44.9920000  0  6G18G 2G11G19G16G 6
  21429007.688     3978880.912 5   3108351.72421        10.750           0.563
  18930092.617   -28642688.970 7 -22148564.76024        27.250           3.750
  21019410.914   -18324194.102 6 -14136341.64321        14.750           0.781
  19171744.875    -8458352.638 6  -6531856.78522        17.000           2.031
  21359475.813   -15109709.707 5 -11593358.04221        11.250           0.500
  20228440.070   -20097819.022 6 -15281164.47322        17.250           1.500
 91  5 21 19 34 59.9920000  0  6G18G 2G11G19G16G 6
  21433148.734     4000631.195 5   3125299.84421        10.750           0.563
  18919877.024   -28696373.549 7 -22190396.86724        27.500           3.688
  21016544.195   -18339267.729 6 -14148087.34221        15.000           0.625
  19169690.922    -8469136.451 6  -6540259.78222        16.750           1.906
  21356717.344   -15124226.461 5 -11604669.89321        11.750           0.625
  20216796.422   -20158999.620 6 -15328837.63022        17.000           1.500
 91  5 21 19 35 14.9920000  0  6G18G 2G11G19G16G 6
  21437294.055     4022423.317 5   3142280.56021        10.500           0.500
  18909678.391   -28749971.275 7 -22232161.29824        27.500           3.750
  21013704.344   -18354190.841 6 -14159715.77321        14.750           0.813
  19167651.203    -8479858.798 6  -6548614.87122        16.750           1.844
  21353973.758   -15138625.918 5 -11615890.31321        11.750           0.594
  20205157.883   -20220155.914 6 -15376491.84322        16.750           1.594
 91  5 21 19 35 29.9920000  0  6G18G 2G11G19G16G 6
  21441448.484     4044253.757 5   3159291.13421        10.750           0.469
  18899494.344   -28803485.345 7 -22273860.54524        27.500           3.656
  21010890.859   -18368966.776 6 -14171229.51621        14.500           0.781
  19165621.984    -8490522.923 6  -6556924.60322        17.000           1.906
  21351256.719   -15152911.543 6 -11627022.03621        12.250           0.594
  20193523.774   -20281291.210 6 -15424129.69322        17.000           1.500
 91  5 21 19 35 44.9920000  0  6G18G 2G11G19G16G 6
  21445604.188     4066121.454 5   3176330.74121         9.750           0.500
  18889326.836   -28856916.866 7 -22315495.46724        27.250           3.750
  21008108.070   -18383596.693 6 -14182629.47321        14.750           0.656
  19163604.422    -8501129.846 6  -6565189.75922        16.500           1.906
  21348559.039   -15167084.668 6 -11638066.09221        12.250           0.469
  20181892.695   -20342406.409 6 -15471751.89322        17.000           1.500
 91  5 21 19 35 59.9920000  0  6G18G 2G11G19G16G 6
  21449773.547     4088027.405 5   3193400.14821        10.250           0.469
  18879175.117   -28910264.197 7 -22357064.78724        27.000           3.656
  21005351.250   -18398079.209 6 -14193914.57321        14.750           0.750
  19161595.399    -8511678.119 6  -6573409.20422        17.250           1.875
  21345882.938   -15181144.014 5 -11649021.50321        11.750           0.563
  20170267.320   -20403499.948 6 -15519357.21021        16.750           1.438
 91  5 21 19 36 14.9920000  0  6G18G 2G11G19G16G 6
  21453952.547     4109972.098 5   3210499.75521        10.500           0.469
  18869039.789   -28963526.753 7 -22398568.04724        26.750           3.750
  21002623.578   -18412413.827 6 -14205084.42721        15.250           0.781
  19159599.797    -8522166.879 6  -6581582.28622        16.500           2.000
  21343227.422   -15195088.996 5 -11659887.80121        11.500           0.500
  20158647.336   -20464571.153 6 -15566945.11822        17.250           1.656
 91  5 21 19 36 29.9920000  0  6G18G 2G11G19G16G 6
  21458143.172     4131957.114 5   3227630.79721        10.250           0.469
  18858920.274   -29016702.831 7 -22440003.92924        27.000           3.719
  20999924.188   -18426598.896 6 -14216137.74221        15.250           0.844
  19157616.672    -8532594.311 6  -6589707.58522        16.750           1.906
  21340597.180   -15208918.068 6 -11670663.77021        12.250           0.594
  20147030.813   -20525618.060 6 -15614514.09822        17.500           1.625
 91  5 21 19 36 44.9920000  0  6G18G 2G11G19G16G 6
  21462328.938     4153983.903 5   3244794.35821        10.000           0.469
  18848817.149   -29069790.612 7 -22481371.00424        27.000           3.750
  20997256.031   -18440632.756 6 -14227073.23421        15.250           0.656
  19155643.188    -8542958.648 6  -6597783.70822        16.250           2.000
  21337989.563   -15222629.828 6 -11681348.32321        13.000           0.531
  20135419.695   -20586639.030 6 -15662062.87222        17.500           1.594
 91  5 21 19 36 59.9920000  0  6G18G 2G11G19G16G 6
  21466528.649     4176051.332 5   3261989.60821         9.500           0.469
  18838732.469   -29122791.123 7 -22522670.08124        27.000           3.719
  20994613.024   -18454516.642 6 -14237891.86321        15.250           0.688
  19153682.609    -8553260.968 6  -6605811.50622        16.250           1.906
  21335399.555   -15236225.595 6 -11691942.48721        12.000           0.500
  20123813.078   -20647635.028 6 -15709592.17922        17.750           1.594
 91  5 21 19 37 14.9920000  0  6G18G 2G11G19G16G 6
  21470731.797     4198157.086 5   3279214.72021         9.500           0.469
  18828661.680   -29175705.911 7 -22563902.35924        26.500           3.844
  20991997.789   -18468252.304 6 -14248594.98921        15.000           0.813
  19151735.117    -8563502.677 6  -6613792.07222        16.500           1.938
  21332837.422   -15249707.290 6 -11702447.78221        12.000           0.531
  20112207.219   -20708607.545 6 -15757103.19522        17.750           1.563
 91  5 21 19 37 29.9920000  0  6G18G 2G11G19G16G 6
  21474946.727     4220305.341 5   3296472.93021         9.250           0.406
  18818610.531   -29228530.734 7 -22605064.52924        26.500           3.625
  20989413.164   -18481835.625 6 -14259179.41321        15.000           0.688
  19149799.945    -8573679.552 6  -6621722.12722        16.500           1.906
  21330293.078   -15263070.681 6 -11712860.90121        12.250           0.438
  20100610.961   -20769552.317 6 -15804592.59422        18.000           1.594
 91  5 21 19 37 44.9920000  0  6G18G 2G11G19G16G 6
  21479173.094     4242495.185 5   3313763.56521         9.000           0.469
  18808574.461   -29281266.330 7 -22646157.17624        26.750           3.656
  20986859.391   -18495267.506 6 -14269645.83021        14.750           0.719
  19147872.297    -8583792.331 6  -6629602.23222        16.750           1.938
  21327773.961   -15276316.926 6 -11723182.71421        12.750           0.531
  20089020.930   -20830470.059 6 -15852060.93122        18.250           1.656
 91  5 21 19 37 59.9920000  0  6G18G 2G11G19G16G 6
  21483399.133     4264723.686 5   3331084.29921         9.500           0.500
  18798556.250   -29333915.311 7 -22687182.33224        26.500           3.625
  20984329.469   -18508550.780 6 -14279996.44921        14.500           0.656
  19145960.758    -8593843.761 6  -6637434.53122        17.000           1.906
  21325272.875   -15289449.157 6 -11733415.68421        12.500           0.469
  20077432.281   -20891363.370 6 -15899510.22922        18.250           1.625
 91  5 21 19 38 14.9920000  0  6G18G 2G11G19G16G 6
  21487640.492     4286992.383 5   3348436.37021         9.250           0.375
  18788553.992   -29386476.153 7 -22728138.80724        26.250           3.594
  20981831.555   -18521683.884 6 -14290230.05421        15.000           0.750
  19144060.211    -8603831.971 6  -6645217.57722        16.500           2.000
  21322797.328   -15302465.826 6 -11743558.61121        12.250           0.406
  20065848.766   -20952230.492 6 -15946939.12122        18.500           1.563
 91  5 21 19 38 29.9920000  0  6G18G 2G11G19G16G 6
  21491880.953     4309299.068 5   3365818.02721         8.500           0.406
  18778568.055   -29438950.461 7 -22769027.85124        26.750           3.719
  20979361.070   -18534668.708 6                        14.750
  19142174.164    -8613758.652 6  -6652952.66622        16.000           2.000
  21320342.250   -15315368.932 6                        12.000
  20054271.094   -21013073.128 6 -15994348.92822        18.000           1.563
 91  5 21 19 38 44.9920000  0  6G18G 2G11G19G16G 6
  21496136.469     4331646.308 5   3383231.32221         8.250           0.500
  18768601.297   -29491335.610 7 -22809847.42224        26.750           3.656
  20976919.781   -18547502.652 6                        15.000
  19140294.453    -8623621.196 6  -6660637.78122        16.750           1.969
  21317907.969   -15328155.790 6                        12.000
  20042697.281   -21073888.481 6 -16041737.47822        18.250           1.688
 91  5 21 19 38 59.9920000  0  6G18G 2G11G19G16G 6
  21500393.203     4354035.040 5   3400676.91321         8.500           0.500
  18758648.453   -29543630.033 7 -22850596.29924        26.250           3.625
  20974506.617   -18560184.448 6                        15.250
  19138432.992    -8633418.148 6  -6668271.79422        16.000           2.000
  21315497.578   -15340825.356 6                        12.750
  20031132.141   -21134675.070 6 -16089103.61522        18.500           1.594
 91  5 21 19 39 14.9920000  0  6G18G 2G11G19G16G 6
  21504665.219     4376457.048 5   3418148.44521         8.500           0.406
  18748712.891   -29595842.008 7 -22891280.92724        26.500           3.531
  20972119.399   -18572722.572 6                        15.000
  19136576.789    -8643157.557 6  -6675860.95422        16.750           2.000
  21313107.078   -15353386.001 6                        12.250
  20019566.656   -21195441.136 6 -16136453.76122        18.500           1.594
 91  5 21 19 39 29.9920000  0  6G18G 2G11G19G16G 6
  21508938.359     4398917.970 5   3435650.29621         8.500           0.531
  18738794.875   -29647965.691 7 -22931896.75724        26.750           3.781
  20969761.063   -18585111.096 6                        14.750
  19134738.742    -8652833.551 6  -6683400.71322        16.250           2.031
  21310738.617   -15365832.191 5                        11.750
  20008009.375   -21256180.596 6 -16183783.18122        18.250           1.563
 91  5 21 19 39 44.9920000  0  6G18G 2G11G19G16G 6
  21513222.547     4421417.556 5   3453182.27221         8.000           0.500
  18728892.609   -29700000.967 7 -22972443.70124        27.250           3.594
  20967430.649   -18597350.173 6 -14349190.89021        14.250           0.844
  19132906.438    -8662446.072 6  -6690891.00522        16.750           2.000
  21308392.094   -15378164.118 5 -11802544.72921        11.250           0.531
  19996456.891   -21316893.391 6 -16231091.82522        18.250           1.656
 91  5 21 19 39 59.9920000  0  6G18G 2G11G19G16G 6
  21517511.242     4443957.766 5   3470745.90821         8.000           0.563
  18719008.180   -29751945.490 7 -23012919.93124        27.250           3.625
  20965131.469   -18609437.703 6 -14358609.76321        14.250           0.688
  19131091.492    -8671992.775 6  -6698330.01622        16.250           2.031
  21306067.477   -15390379.609 5 -11812063.36921        11.500           0.406
  19984907.695   -21377577.186 6 -16278377.86722        18.500           1.563
 91  5 21 19 40 14.9920000  0  6G18G 2G11G19G16G 6
  21521806.734     4466537.955 5   3488340.67721         7.500           0.469
  18709139.734   -29803799.799 7 -23053325.86624        27.000           3.813
  20962858.180   -18621374.390 6 -14367911.09721        14.250           0.781
  19129285.649    -8681474.168 6  -6705718.12522        16.750           2.000
  21303767.945   -15402479.670 5 -11821492.05621        11.500           0.531
  19973365.469   -21438232.480 6 -16325641.70622        18.500           1.625
 91  5 21 19 40 29.9920000  0  6G18G 2G11G19G16G 6
  21526111.711     4489155.581 5   3505964.64021         7.500           0.531
  18699288.875   -29855566.374 7 -23093663.43324        27.250           3.813
  20960617.664   -18633162.685 6 -14377096.79321        14.000           0.750
  19127493.961    -8690892.476 6  -6713057.08822        16.750           2.031
  21301487.125   -15414466.759 5 -11830832.71421        11.500           0.500
  19961830.344   -21498861.459 6 -16372885.03622        18.500           1.656
 91  5 21 19 40 44.9920000  0  6G18G 2G11G19G16G 6
  21530425.875     4511813.689 5   3523620.11621         8.000           0.438
  18689456.789   -29907241.725 7 -23133929.91824        27.000           3.875
  20958401.859   -18644799.434 6 -14386164.40021        14.250           0.750
  19125714.695    -8700244.240 6  -6720344.19422        17.000           2.063
  21299226.774   -15426338.043 5 -11840083.13321        11.500           0.500
  19950297.555   -21559460.796 6 -16420105.26922        18.500           1.688
 91  5 21 19 40 59.9920000  0  6G18G 2G11G19G16G 6
  21534739.649     4534510.860 5   3541306.06221         7.750           0.563
  18679640.328   -29958826.840 7 -23174126.09124        27.250           3.906
  20956218.617   -18656285.946 6 -14395114.94821        14.250           0.750
  19123947.047    -8709530.555 6  -6727580.31122        17.250           1.969
  21296986.102   -15438094.899 5 -11849244.39521        11.000           0.500
  19938771.149   -21620031.526 6 -16467303.21022        18.500           1.719
 91  5 21 19 41 14.9920000  0  6G18G 2G11G19G16G 6
  21539073.055     4557250.774 5   3559025.29621         7.750           0.625
  18669840.672   -30010317.875 7 -23214248.95324        26.750           3.875
  20954060.852   -18667618.550 6 -14403945.56121        14.500           0.844
  19122193.141    -8718747.594 6  -6734762.43822        17.250           2.094
  21294771.289   -15449733.488 5 -11858313.49321        11.000           0.500
  19927250.695   -21680569.625 6 -16514475.72222        18.500           1.594
 91  5 21 19 41 29.9920000  0  6G18G 2G11G19G16G 6
  21543403.461     4580027.371 5   3576773.13321         8.000           0.594
  18660058.930   -30061720.505 7 -23254302.92424        26.500           3.813
  20951932.109   -18678802.983 6 -14412660.72221        14.500           0.875
  19120451.000    -8727900.775 6  -6741894.80722        17.250           2.063
  21292581.594   -15461259.558 5 -11867294.92721        11.500           0.531
  19915735.399   -21741080.772 6 -16561627.23522        18.250           1.688
 91  5 21 19 41 44.9920000  0  6G18G 2G11G19G16G 6
  21547748.891     4602843.846 5   3594552.04121         8.250           0.625
  18650295.242   -30113031.253 7 -23294285.30324        26.750           3.781
  20949832.063   -18689835.802 6 -14421257.73621        14.000           0.781
  19118721.789    -8736986.570 6  -6748974.67422        16.750           2.125
  21290412.531   -15472670.160 6 -11876186.38221        12.000           0.500
  19904227.070   -21801561.201 6 -16608754.81622        18.500           1.688
 91  5 21 19 41 59.9920000  0  6G18G 2G11G19G16G 6
  21552097.891     4625701.447 5   3612362.97221         8.750           0.563
  18640548.781   -30164249.001 7 -23334195.21524        26.250           3.813
  20947763.953   -18700716.152 6 -14429735.94121        14.250           0.844
  19117005.781    -8746003.942 6  -6756001.22122        17.000           1.969
  21288259.781   -15483964.296 5 -11884987.06821        10.750           0.469
  19892723.992   -21862009.919 6 -16655857.68922        18.250           1.688
 91  5 21 19 42 14.9920000  0  6G18G 2G11G19G16G 6
  21556452.289     4648597.743 5   3630204.07621         8.750           0.688
  18630820.445   -30215375.443 7 -23374033.97724        26.750           4.000
  20945721.203   -18711446.069 6 -14438096.93521        14.250           0.813
  19115303.359    -8754954.567 6  -6762975.76222        17.000           1.906
  21286131.367   -15495144.211 5 -11893698.77821        11.000           0.563
  19881226.961   -21922428.574 6 -16702937.12522        18.750           1.625
 91  5 21 19 42 29.9920000  0  6G18G 2G11G19G16G 6
  21560817.883     4671537.260 5   3648078.84321         9.000           0.563
  18621108.961   -30266406.024 7 -23413798.04224        26.750           4.063
  20943709.703   -18722021.127 6 -14446337.24821        14.250           0.781
  19113611.938    -8763833.852 6  -6769894.71022        17.000           2.031
  21284029.539   -15506205.596 5 -11902318.10921        11.000           0.531
  19869735.109   -21982812.518 6 -16749989.51822        18.750           1.625
 91  5 21 19 42 44.9920000  0  6G18G 2G11G19G16G 6
  21565190.375     4694512.996 5   3665981.86221         8.500           0.594
  18611415.813   -30317347.682 7 -23453492.81424        26.500           3.906
  20941722.680   -18732448.107 6 -14454462.18921        14.000           0.750
  19111936.531    -8772648.549 6  -6776763.33322        17.000           1.969
  21281946.563   -15517155.118 5 -11910850.27921        11.500           0.563
  19858250.500   -22043168.489 6 -16797020.11422        18.500           1.813
 91  5 21 19 42 59.9920000  0  6G18G 2G11G19G16G 6
  21569574.180     4717528.315 5   3683915.69321         9.500           0.438
  18601739.227   -30368196.557 7 -23493115.29124        26.500           3.969
  20939768.406   -18742723.494 6 -14462469.00321        14.250           0.844
  19110271.555    -8781394.924 6  -6783578.71222        17.000           2.000
  21279879.492   -15527989.465 5 -11919292.70421        11.000           0.531
  19846770.649   -22103492.552 6 -16844025.84922        18.250           1.750
 91  5 21 19 43 14.9920000  0  6G18G 2G11G19G16G 6
  21573957.078     4740583.100 5   3701880.30021         9.000           0.438
  18592079.836   -30418952.587 7 -23532665.42024        26.500           4.000
  20937843.070   -18752847.371 6 -14470357.75221        14.500           0.719
  19108621.242    -8790072.931 6  -6790340.81522        16.750           2.063
  21277846.750   -15538708.717 5 -11927645.43921        10.750           0.563
  19835299.234   -22163784.785 6 -16891006.77722        18.500           1.719
 91  5 21 19 43 29.9920000  0  6G18G 2G11G19G16G 6
  21578355.852     4763678.659 5   3719876.68021         9.500           0.375
  18582439.313   -30469614.055 7 -23572141.86524        26.250           4.063
  20935946.539   -18762818.275 6 -14478127.30221        14.750           0.844
  19106985.500    -8798680.698 6  -6797048.19722        16.250           2.031
  21275820.680   -15549311.720 5 -11935907.61121        10.000           0.531
  19823831.625   -22224043.319 6 -16937961.44322        19.000           1.750
 91  5 21 19 43 44.9920000  0  6G18G 2G11G19G16G 6
  21582753.680     4786813.161 5   3737903.38821         8.750           0.313
  18572819.031   -30520182.506 7 -23611545.82624        26.750           3.969
  20934077.430   -18772638.083 6 -14485779.11621        14.000           0.688
  19105357.922    -8807219.910 6  -6803702.14622        16.750           1.969
  21273831.742   -15559800.437 5 -11944080.72121        11.250           0.531
  19812369.250   -22284269.654 6 -16984891.02522        18.750           1.844
 91  5 21 19 43 59.9920000  0  6G18G 2G11G19G16G 6
  21587169.164     4809989.849 5   3755963.00121         8.750           0.406
  18563213.086   -30570654.560 7 -23650874.67824        26.750           3.969
  20932237.750   -18782303.623 6 -14493310.72321        14.250           0.750
  19103745.383    -8815687.173 6  -6810300.04922        17.000           1.969
  21271858.719   -15570171.933 6 -11952162.47321        12.000           0.594
  19800916.508   -22344460.441 6 -17031792.90922        19.000           1.750
 91  5 21 19 44 14.9920000  0  6G18G 2G11G19G16G 6
  21591586.258     4833206.406 5   3774053.63421         8.750           0.344
  18553625.703   -30621032.168 7 -23690129.94224        26.750           4.156
  20930425.688   -18791816.786 6 -14500723.59521        14.000           0.750
  19102150.219    -8824084.132 6  -6816843.15922        16.500           1.969
  21269904.727   -15580428.008 5 -11960154.28221        11.250           0.438
  19789469.328   -22404617.454 6 -17078668.47022        19.000           1.813
 91  5 21 19 44 29.9920000  0  6G18G 2G11G19G16G 6
  21596012.594     4856461.122 5   3792174.05121         8.250           0.250
  18544058.609   -30671316.951 7 -23729312.86024        27.250           4.031
  20928644.719   -18801179.443 6 -14508019.19121        13.750           0.813
  19100562.664    -8832412.396 6  -6823332.74722        16.500           2.000
  21267970.805   -15590570.403 5 -11968057.54121        10.500           0.500
  19778027.102   -22464742.212 6 -17125518.89822        19.000           1.781
 91  5 21 19 44 44.9920000  0  6G18G 2G11G19G16G 6
  21600446.266     4879755.197 5   3810325.07721         8.000           0.219
  18534505.859   -30721507.656 7 -23768422.47624        26.750           3.969
  20926893.359   -18810390.480 6 -14515196.63221        14.000           0.719
  19098992.234    -8840670.869 6  -6829768.45522        16.250           1.938
  21266068.016   -15600598.382 5 -11975871.62721        10.250           0.563
  19766593.992   -22524833.353 6 -17172343.13022        19.250           1.844
 91  5 21 19 44 59.9920000  0  6G18G 2G11G19G16G 6
  21604884.094     4903087.660 4   3828506.09221         7.000           0.250
  18524973.719   -30771604.799 7 -23807459.18524        27.000           3.969
  20925167.969   -18819450.572 6 -14522256.46421        14.250           0.625
  19097433.359    -8848859.826 6  -6836149.49022        16.250           1.875
  21264179.211   -15610512.678 5 -11983597.14921        10.250           0.500
  19755163.781   -22584891.439 6 -17219141.60622        19.250           1.844
 91  5 21 19 45 14.9910000  0  6G18G 2G11G19G16G 6
  21609329.472     4926457.962 5   3846716.50921         7.500           0.375
  18515458.816   -30821603.710 7 -23846419.35024        27.500           4.000
  20923472.956   -18828358.072 6 -14529197.38821        14.250           0.719
  19095890.167    -8856977.433 6  -6842474.92222        16.250           1.906
  21262312.253   -15620311.424 5 -11991232.61621        10.750           0.531
  19743742.503   -22644911.025 6 -17265910.08522        19.250           1.719
 91  5 21 19 45 29.9910000  0  6G18G 2G11G19G16G 6
  21613785.355     4949864.755 4   3864955.38221         7.000           0.281
  18505960.808   -30871515.182 7 -23885311.38624        27.000           4.031
  20921806.737   -18837118.476 6 -14536023.69121        14.500           0.719
  19094356.862    -8865028.906 6  -6848748.82922        16.750           1.875
  21260471.487   -15630000.324 5 -11998782.47621        11.000           0.625
  19732325.401   -22704904.078 6 -17312657.89022        19.250           1.813
 91  5 21 19 45 44.9910000  0  6G18G 2G11G19G16G 6
  21618249.198     4973312.766 4   3883226.42621         6.750           0.313
  18496481.292   -30921329.321 7 -23924127.57824        27.750           3.938
  20920168.612   -18845724.866 6 -14542729.98021        14.250           0.656
  19092839.511    -8873007.089 6  -6854965.62822        16.500           1.813
  21258649.581   -15639572.799 5 -12006241.62921        10.250           0.688
  19720917.808   -22764860.088 6 -17359376.82822        19.250           1.750
 91  5 21 19 45 59.9910000  0  6G18G 2G11G19G16G 6
  21622714.003     4996797.653 3   3901526.16321         6.000           0.281
  18487020.409   -30971050.526 8 -23962871.35224        28.000           3.969
  20918560.183   -18854181.635 6 -14549319.67621        14.250           0.688
  19091331.847    -8880916.422 6  -6861128.77722        16.500           1.875
  21256849.308   -15649033.680 5 -12013613.83521        10.500           0.594
  19709513.847   -22824783.286 6 -17406070.20122        19.250           1.844
 91  5 21 19 46 14.9910000  0  6G18G 2G11G19G16G 6
  21627191.878     5020320.065 4   3919855.12921         6.250           0.375
  18477575.237   -31020677.878 7 -24001541.99924        27.750           3.969
  20916977.230   -18862488.008 6 -14555792.19421        14.000           0.625
  19089841.831    -8888755.727 6  -6867237.36422        16.000           1.781
  21255068.066   -15658381.738 5 -12020898.12421        10.500           0.625
  19698117.534   -22884672.660 6 -17452737.22022        19.500           1.750
 91  5 21 19 46 29.9910000  0  6G18G 2G11G19G16G 6
  21631674.183     5043879.777 3   3938213.16421         6.000           0.188
  18468150.573   -31070211.079 8 -24040139.27624        28.500           3.938
  20915425.237   -18870644.000 6 -14562147.52821        13.750           0.688
  19088363.097    -8896524.825 6  -6873291.24022        16.000           2.000
  21253315.753   -15667617.023 5 -12028094.54121        11.250           0.594
  19686726.503   -22944527.824 6 -17499377.58122        19.000           1.688
 91  5 21 19 46 44.9910000  0  6G18G 2G11G19G16G 6
  21636170.597     5067475.494 3   3956599.24421         6.000           0.250
  18458741.175   -31119651.186 8 -24078664.01624        28.250           3.906
  20913901.714   -18878650.761 6 -14568386.58321        14.000           0.688
  19086897.956    -8904224.637 6  -6879291.12222        16.000           1.844
  21251576.362   -15676740.934 5 -12035204.15821        11.000           0.500
  19675342.925   -23004349.691 6 -17545991.99022        19.250           1.875
 91  5 21 19 46 59.9910000  0  6G18G 2G11G19G16G 6
  21640671.042     5091110.439 3   3975015.93721         5.750           0.313
  18449351.308   -31168994.851 8 -24117113.60424        28.250           3.813
  20912409.925   -18886505.410 6 -14574507.10921        14.000           0.656
  19085445.808    -8911851.612 6  -6885234.25722        16.250           1.875
  21249858.667   -15685750.718 5 -12042224.84721        10.250           0.469
  19663965.776   -23064134.903 6 -17592577.83422        19.250           1.750
 91  5 21 19 47 14.9910000  0  6G18G 2G11G19G16G 6
  21645168.722     5114783.217 4   3993462.02021         6.250           0.313
  18439979.620   -31218243.011 8 -24155488.77424        28.250           3.906
  20910944.019   -18894209.003 6 -14580509.93221        14.000           0.625
  19084008.323    -8919406.958 6  -6891121.57522        16.250           1.938
  21248169.566   -15694647.634 5 -12049157.59121        10.500           0.563
  19652595.433   -23123884.444 6 -17639135.88922        19.500           1.750
 91  5 21 19 47 29.9910000  0  6G18G 2G11G19G16G 6
  21649683.128     5138493.444 4   4011937.34221         7.000           0.406
  18430626.776   -31267395.875 8 -24193789.68424        28.250           3.781
  20909504.683   -18901761.858 6                        13.750
  19082583.800    -8926890.910 6                        16.000
  21246497.300   -15703431.930 5 -12056002.57721        10.500           0.563
  19641232.425   -23183598.505 6 -17685666.29422        19.250           1.688
 91  5 21 19 47 44.9910000  0  6G18G 2G11G19G16G 6
  21654202.839     5162240.591 4   4030441.43421         6.250           0.344
  18421291.519   -31316453.909 8 -24232016.70024        29.000           3.813
  20908095.331   -18909164.719 6                        13.750
  19081174.714    -8934303.798 6                        16.000
  21244849.058   -15712104.263 5 -12062760.33121        10.250           0.563
  19629876.573   -23243277.315 6 -17732169.23822        19.250           1.688
 91  5 21 19 47 59.9910000  0  6G18G 2G11G19G16G 6
  21658722.448     5186025.624 4   4048975.02421         6.750           0.406
  18411973.534   -31365415.812 8 -24270168.81324        28.500           3.719
  20906715.878   -18916416.354 6 -14597814.41921        13.750           0.750
  19079775.526    -8941644.156 6  -6908449.87422        16.250           1.750
  21243221.472   -15720663.680 5 -12069430.10321        10.750           0.531
  19618526.214   -23302919.418 6 -17778643.57722        19.250           1.781
 91  5 21 19 48 14.9910000  0  6G18G 2G11G19G16G 6
  21663261.800     5209847.512 4   4067537.36121         7.000           0.406
  18402675.355   -31414282.423 8 -24308246.66824        28.750           3.781
  20905363.308   -18923517.705 6 -14603347.95621        13.250           0.563
  19078394.206    -8948912.777 6  -6914113.76422        15.750           1.750
  21241610.136   -15729111.413 5 -12076012.83121        10.250           0.563
  19607185.323   -23362525.570 6 -17825089.90822        19.750           1.781
 91  5 21 19 48 29.9910000  0  6G18G 2G11G19G16G 6
  21667793.355     5233705.872 4   4086128.07821         7.000           0.406
  18393393.714   -31463053.898 8 -24346250.39224        28.750           3.813
  20904041.276   -18930469.236 6 -14608764.74921        13.250           0.656
  19077022.628    -8956109.771 6  -6919721.85122        16.500           1.719
  21240026.925   -15737447.769 5 -12082508.78021        10.500           0.469
  19595848.941   -23422095.880 6 -17871508.30022        19.500           1.750
 91  5 21 19 48 44.9910000  0  6G18G 2G11G19G16G 6
  21672341.019     5257600.215 4   4104746.87621         7.250           0.406
  18384130.667   -31511730.431 8 -24384180.14224        28.500           3.750
  20902747.823   -18937271.274 6 -14614065.07021        14.000           0.500
  19075669.487    -8963235.349 6  -6925274.78322        16.250           1.781
  21238460.605   -15745673.456 5 -12088918.48821        10.500           0.625
  19584519.816   -23481630.488 6 -17917898.88622        19.500           1.844
 91  5 21 19 48 59.9910000  0  6G18G 2G11G19G16G 6
  21676898.409     5281532.589 5   4123395.27221         8.250           0.281
  18374887.839   -31560309.627 8 -24422034.03624        28.750           3.688
  20901482.550   -18943921.634 6 -14619247.18921        13.500           0.719
  19074327.347    -8970286.820 6  -6930769.48222        16.250           1.750
  21236917.456   -15753786.074 5 -12095240.08821        10.500           0.563
  19573198.050   -23541126.771 6 -17964259.60222        19.250           1.813
 91  5 21 19 49 14.9910000  0  6G18G 2G11G19G16G 6
  21681463.355     5305503.468 5   4142073.68921         8.750           0.469
  18365660.026   -31608790.840 8 -24459811.58424        28.500           3.719
  20900245.558   -18950419.957 6 -14624310.84021        13.250           0.688
  19072999.909    -8977263.668 6  -6936206.02722        16.000           1.719
  21235394.847   -15761785.068 5 -12101473.15621        10.750           0.719
  19561882.651   -23600584.079 6 -18010589.94722        19.000           1.875
 91  5 21 19 49 29.9910000  0  6G18G 2G11G19G16G 6
  21686025.644     5329509.356 5   4160779.38421         8.250           0.313
  18356452.862   -31657177.340 8 -24497515.33124        28.500           3.719
  20899037.691   -18956769.867 6 -14629258.85121        13.250           0.719
  19071684.050    -8984169.432 6  -6941587.18322        16.250           1.750
  21233894.448   -15769674.318 5 -12107620.71821        10.750           0.656
  19550575.136   -23660005.917 6 -18056892.65522        19.000           1.844
 91  5 21 19 49 44.9910000  0  6G18G 2G11G19G16G 6
  21690604.800     5353553.203 5   4179514.66521         8.000           0.375
  18347264.620   -31705466.006 8 -24535142.83824        29.500           3.688
  20897856.441   -18962968.283 6 -14634088.79721        12.750           0.625
  19070383.511    -8991000.613 6  -6946910.21422        15.750           1.688
  21232408.112   -15777450.929 5 -12113680.50621        10.000           0.688
  19539274.784   -23719388.584 6 -18103164.84022        19.250           1.906
 91  5 21 19 49 59.9910000  0  6G18G 2G11G19G16G 6
  21695189.526     5377631.677 5   4198276.90821         9.250           0.406
  18338093.144   -31753659.533 8 -24572696.21724        28.750           3.656
  20896706.464   -18969018.086 6 -14638802.96321        13.000           0.594
  19069099.159    -8997759.933 6  -6952177.25622        15.500           1.625
  21230954.456   -15785118.159 5 -12119655.04621        11.000           0.563
  19527981.651   -23778735.109 6 -18149408.86122        18.750           1.906
 91  5 21 19 50 14.9910000  0  6G18G 2G11G19G16G 6
  21699776.941     5401746.667 5   4217067.61521         8.500           0.375
  18328941.105   -31801755.946 8 -24610173.92324        28.750           3.688
  20895583.284   -18974917.522 6 -14643399.95821        12.750           0.500
  19067826.480    -9004445.415 6  -6957386.76022        16.000           1.750
  21229517.261   -15792674.074 5 -12125542.85321        11.250           0.500
  19516694.566   -23838043.277 6 -18195622.99222        19.000           2.031
 91  5 21 19 50 29.9910000  0  6G18G 2G11G19G16G 6
  21704370.581     5425898.921 5   4235887.36521         8.500           0.375
  18319807.112   -31849754.517 8 -24647575.38124        29.000           3.813
  20894489.847   -18980665.952 6 -14647879.27021        12.750           0.594
  19066568.941    -9011056.147 6  -6962538.52022        16.250           1.750
  21228098.253   -15800117.937 5 -12131343.35821        10.500           0.438
  19505414.706   -23897311.946 6 -18241806.34922        18.500           2.000
 91  5 21 19 50 44.9910000  0  6G18G 2G11G19G16G 6
  21708972.167     5450087.164 5   4254735.15021         8.250           0.406
  18310690.605   -31897655.952 8 -24684901.15324        28.750           3.563
  20893425.347   -18986264.327 6 -14652241.66221        13.000           0.625
  19065324.237    -9017592.900 6  -6967632.13622        16.250           1.688
  21226701.386   -15807451.116 5 -12137057.59221        10.250           0.688
  19494144.675   -23956541.990 6 -18287959.60322        18.250           2.031
 91  5 21 19 50 59.9910000  0  6G18G 2G11G19G16G 6
  21713581.394     5474312.101 5   4273611.53021         8.250           0.469
  18301594.480   -31945459.381 8 -24722150.56324        29.500           3.594
  20892387.605   -18991712.013 6 -14656486.63521        12.750           0.656
  19064099.753    -9024054.842 6  -6972667.46222        15.500           1.688
  21225327.651   -15814672.882 5 -12142685.04321        11.000           0.531
  19482880.948   -24015732.478 6 -18334082.03622        18.000           1.969
 91  5 21 19 51 14.9910000  0  6G18G 2G11G19G16G 6
  21718202.308     5498567.583 5   4292511.70021         7.750           0.406
  18292514.972   -31993171.017 8 -24759328.44524        29.250           3.594
  20891379.316   -18997015.398 6 -14660619.17621        13.000           0.563
  19062877.784    -9030447.968 6  -6977649.65422        16.000           1.750
  21223979.597   -15821789.737 5 -12148230.73621        11.750           0.500
  19471625.136   -24074889.359 6 -18380178.27722        18.500           2.031
 91  5 21 19 51 29.9910000  0  6G18G 2G11G19G16G 6
  21722826.112     5522856.651 5   4311438.05121         8.250           0.375
  18283454.191   -32040787.254 8 -24796431.99224        29.250           3.594
  20890399.073   -19002171.095 6 -14664636.63821        12.750           0.625
  19061678.034    -9036768.655 6  -6982574.91322        15.250           1.750
  21222641.894   -15828798.587 5 -12153692.25621        11.000           0.500
  19460375.042   -24134009.165 6 -18426245.63522        18.500           1.969
 91  5 21 19 51 44.9910000  0  6G18G 2G11G19G16G 6
  21727452.167     5547179.301 5   4330390.56921         7.500           0.313
  18274412.120   -32088307.870 8 -24833461.02624        29.750           3.594
  20889443.362   -19007179.340 6 -14668539.20221        13.000           0.594
  19060484.769    -9043016.723 6  -6987443.57122        16.000           1.781
  21221327.917   -15835699.345 5 -12159069.55021        10.500           0.469
  19449131.120   -24193091.552 6 -18472283.83122        18.500           2.094
 91  5 21 19 51 59.9910000  0  6G18G 2G11G19G16G 6
  21732083.933     5571534.947 4   4349368.81321         7.000           0.375
  18265386.144   -32135733.304 8 -24870415.89524        29.250           3.563
  20888518.995   -19012040.516 6 -14672327.15621        12.500           0.688
  19059314.519    -9049192.508 6  -6992255.91822        15.750           1.594
  21220036.714   -15842492.481 5 -12164363.00621        10.500           0.469
  19437895.675   -24252136.600 6 -18518292.93822        18.750           2.094
 91  5 21 19 52 14.9910000  0  6G18G 2G11G19G16G 6
  21736727.956     5595924.541 4   4368373.49121         7.250           0.344
  18256379.909   -32183062.122 8 -24907295.47724        29.000           3.656
  20887621.019   -19016753.498 6 -14675999.64621        12.500           0.656
  19058151.737    -9055294.623 6  -6997010.85622        16.000           1.719
  21218762.987   -15849177.248 5 -12169571.98721        10.500           0.438
  19426667.245   -24311143.022 6 -18564271.93922        18.750           2.125
 91  5 21 19 52 29.9910000  0  5G 2G11G19G16G 6
  18247392.605   -32230289.163 8 -24944095.75224        29.250           3.563
  20886751.558   -19021313.116 6 -14679552.62321        12.500           0.563
  19057008.237    -9061317.774 6  -7001704.26322        16.000           1.719
  21217513.808   -15855748.706 5 -12174692.70721        11.250           0.469
  19415446.276   -24370105.501 6 -18610216.69822        18.500           2.156
 91  5 21 19 52 44.9910000  0  5G 2G11G19G16G 6
  18238424.651   -32277418.338 8 -24980819.77424        29.250           3.531
  20885913.675   -19025723.734 6 -14682989.49421        12.250           0.563
  19055872.456    -9067265.961 6  -7006339.25422        16.000           1.625
  21216283.917   -15862211.167 5 -12179728.47721        10.750           0.500
  19404234.011   -24429027.862 6 -18656130.20122        18.750           2.125
 91  5 21 19 52 59.9910000  0  5G 2G11G19G16G 6
  18229475.487   -32324451.162 8 -25017468.71324        29.500           3.531
  20885104.081   -19029986.882 6 -14686311.46321        13.000           0.594
  19054757.128    -9073140.404 6  -7010916.78522        15.500           1.688
  21215072.511   -15868566.175 5 -12184680.52921        10.250           0.500
  19393030.980   -24487911.537 6 -18702013.55222        19.500           2.094
 91  5 21 19 53 14.9910000  0  5G 2G11G19G16G 6
  18220542.870   -32371387.398 8 -25054042.38923        29.250           3.406
  20884320.706   -19034102.639 6 -14689518.56921        12.500           0.656
  19053651.191    -9078940.916 6  -7015436.70122        16.000           1.688
  21213885.401   -15874813.737 5 -12189548.84721        10.750           0.563
  19381831.112   -24546755.929 6 -18747866.29922        19.250           2.156
 91  5 21 19 53 29.9910000  0  5G 2G11G19G16G 6
  18211629.612   -32418223.774 8 -25090538.25724        28.750           3.500
  20883567.355   -19038067.946 6 -14692608.46021        13.250           0.625
  19052559.136    -9084664.327 6  -7019896.55022        15.500           1.656
  21212714.847   -15880950.779 5 -12194331.03921        11.000           0.500
  19370642.792   -24605557.780 6 -18793685.89822        19.750           2.063
 91  5 21 19 53 44.9910000  0  5G 2G11G19G16G 6
  18202736.284   -32464962.602 8 -25126958.10424        29.250           3.594
  20882839.886   -19041885.329 6 -14695583.07921        12.750           0.625
  19051486.870    -9090312.706 6  -7024297.92122        16.000           1.625
  21211572.151   -15886980.186 5 -12199029.37621        11.000           0.563
  19359458.894   -24664319.502 6 -18839474.22322        19.500           2.063
 91  5 21 19 53 59.9910000  0  5G 2G11G19G16G 6
  18193860.144   -32511606.796 8 -25163304.21724        29.250           3.531
  20882140.175   -19045558.070 6 -14698444.98621        12.500           0.625
  19050426.105    -9095888.915 6  -7028643.06222        16.250           1.688
  21210444.784   -15892904.944 5 -12203646.16821        10.750           0.500
  19348285.073   -24723043.810 7 -18885233.40122        20.000           2.094
 91  5 21 19 54 14.9910000  0  5G 2G11G19G16G 6
  18185001.214   -32558156.941 8 -25199577.04524        28.750           3.500
  20881468.042   -19049086.919 6 -14701194.77221        12.750           0.594
  19049377.800    -9101393.537 6  -7032932.41522        15.750           1.625
  21209335.636   -15898726.015 5 -12208182.15921        10.250           0.406
  19337118.144   -24781731.161 7 -18930963.77722        20.250           2.156
 91  5 21 19 54 29.9910000  0  5G 2G11G19G16G 6
  18176164.526   -32604599.606 8 -25235766.12123        28.750           3.469
  20880826.886   -19052458.610 6 -14703822.09721        12.250           0.656
  19048345.972    -9106813.200 6  -7037155.58122        16.000           1.719
  21208250.011   -15904430.671 5 -12212627.43221        10.750           0.375
  19325959.175   -24840368.101 7 -18976654.88022        20.250           2.125
 91  5 21 19 54 44.9910000  0  5G 2G11G19G16G 6
  18167343.487   -32650946.779 8 -25271880.79023        28.250           3.438
  20880215.292   -19055685.263 6 -14706336.40921        13.000           0.625
  19047330.401    -9112159.697 6  -7041321.71522        15.750           1.719
  21207186.480   -15910030.967 5 -12216991.37921        11.500           0.531
  19314807.675   -24898966.412 7 -19022315.87022        20.000           2.188
 91  5 21 19 54 59.9910000  0  5G 2G11G19G16G 6
  18158541.784   -32697204.763 8 -25307925.95723        28.250           3.438
  20879624.706   -19058773.321 6 -14708742.71021        13.000           0.750
  19046324.698    -9117439.113 6  -7045435.58722        15.250           1.719
  21206139.128   -15915533.138 5 -12221278.86221        11.000           0.469
  19303662.636   -24957532.166 7 -19067951.49722        20.250           2.063
 91  5 21 19 55 14.9910000  0  5G 2G11G19G16G 6
  18149757.058   -32743368.528 8 -25343897.70823        28.000           3.281
  20879066.058   -19061718.214 6 -14711037.47721        12.750           0.625
  19045333.605    -9122646.687 6  -7049493.48022        15.750           1.656
  21205108.816   -15920933.016 5 -12225486.65221        10.500           0.500
  19292524.901   -25016060.264 7 -19113557.77822        20.250           2.031
 91  5 21 19 55 29.9910000  0  5G 2G11G19G16G 6
  18140989.261   -32789436.821 7 -25379795.06824        27.750           3.563
  20878532.034   -19064518.775 6 -14713219.76021        13.000           0.688
  19044356.550    -9127781.095 6  -7053494.35622        15.500           1.688
  21204104.644   -15926229.243 5 -12229613.70621        11.250           0.313
  19281395.026   -25074549.490 7 -19159133.77722        20.250           2.063
 91  5 21 19 55 44.9910000  0  5G 2G11G19G16G 6
  18132242.761   -32835406.357 8 -25415615.47224        28.250           3.531
  20878028.097   -19067171.951 6 -14715287.20421        12.500           0.594
  19043394.980    -9132838.892 6  -7057435.54122        15.750           1.656
  21203116.448   -15931418.611 5 -12233657.44821        11.500           0.500
  19270272.901   -25132996.378 7 -19204676.78422        20.000           2.063
 91  5 21 19 55 59.9910000  0  5G 2G11G19G16G 6
  18123512.105   -32881281.301 8 -25451362.17024        28.250           3.500
  20877552.534   -19069682.111 6 -14717243.21421        13.000           0.594
  19042449.425    -9137824.247 6                        15.250
  21202148.331   -15936505.950 5                        11.500
  19259157.964   -25191404.850 7 -19250189.85322        20.000           2.031
 91  5 21 19 56 14.9910000  0  5G 2G11G19G16G 6
  18114800.933   -32927061.480 7 -25487035.02724        27.750           3.500
  20877098.597   -19072049.302 6 -14719087.81121        13.000           0.531
  19041511.331    -9142736.886 6                        15.750
  21201201.417   -15941491.351 5                        11.000
  19248051.753   -25249774.859 7 -19295672.95222        20.250           2.094
 91  5 21 19 56 29.9910000  0  5G 2G11G19G16G 6
  18106107.355   -32972747.036 7 -25522634.14624        27.750           3.500
  20876676.526   -19074273.891 6 -14720821.28121        12.750           0.594
  19040589.636    -9147577.056 6                        15.750
  21200272.550   -15946375.142 5                        10.500
  19236951.745   -25308106.312 7 -19341126.00422        20.500           2.031
 91  5 21 19 56 44.9910000  0  5G 2G11G19G16G 6
  18097431.316   -33018339.192 7 -25558160.48923        27.250           3.469
  20876280.628   -19076357.320 6 -14722444.77321        13.250           0.625
  19039683.136    -9152345.804 6                        15.500
  21199361.167   -15951158.935 5                        11.250
  19225857.753   -25366400.463 7 -19386549.99622        20.250           2.031
 91  5 21 19 56 59.9910000  0  5G 2G11G19G16G 6
  18088774.097   -33063836.538 7 -25593612.95824        27.250           3.531
  20875911.089   -19078298.414 6 -14723957.34921        12.750           0.625
  19038787.987    -9157041.566 6                        15.250
  21198469.066   -15955841.345 6                        12.000
  19214771.487   -25424655.389 7 -19431943.42622        20.250           2.031
 91  5 21 19 57 14.9910000  0  5G 2G11G19G16G 6
  18080134.917   -33109233.642 7 -25628987.30724        27.500           3.594
  20875569.597   -19080091.876 6 -14725354.88021        13.000           0.656
  19037911.292    -9161658.833 6                        15.500
  21197598.753   -15960417.461 5                        11.750
  19203694.987   -25482865.678 7 -19477302.06222        20.000           2.063
 91  5 21 19 57 29.9910000  0  5G 2G11G19G16G 6
  18071513.394   -33154536.136 7 -25664287.93924        27.000           3.625
  20875255.980   -19081743.729 6 -14726642.08121        13.250           0.656
  19037045.941    -9166203.210 6                        15.500
  21196745.659   -15964893.358 5                        10.250
  19192626.097   -25541036.928 7 -19522630.28122        20.500           2.219
 91  5 21 19 57 44.9900000  0  5G 2G11G19G16G 6
  18062912.522   -33199736.493 7 -25699508.98524        27.250           3.594
  20874968.600   -19083249.678 6 -14727815.58521        12.750           0.688
  19036197.170    -9170670.149 6  -7086916.75422        15.750           1.719
  21195909.928   -15969264.494 5 -12263148.94521         9.750           0.438
  19181565.053   -25599160.888 7 -19567921.65722        20.500           2.188
 91  5 21 19 57 59.9900000  0  5G 2G11G19G16G 6
  18054328.006   -33244845.648 7 -25734658.96324        27.500           3.531
  20874709.272   -19084614.746 6 -14728879.30921        13.000           0.656
  19035359.076    -9175064.734 6  -7090341.14022        15.750           1.719
  21195102.373   -15973536.563 5 -12266477.93421        11.000           0.438
  19170510.506   -25657249.811 7 -19613185.73222        20.250           2.094
 91  5 21 19 58 14.9900000  0  5G 2G11G19G16G 6
  18045762.662   -33289855.706 7 -25769731.72324        26.750           3.531
  20874477.654   -19085834.185 6 -14729829.54321        12.500           0.531
  19034538.928    -9179381.721 6  -7093705.06522        15.500           1.719
  21194310.029   -15977704.403 5 -12269725.68221        11.250           0.438
  19159464.498   -25715294.630 7 -19658415.43622        20.250           2.188
 91  5 21 19 58 29.9900000  0  5G 2G11G19G16G 6
  18037214.803   -33334775.463 7 -25804734.11524        27.000           3.625
  20874270.084   -19086917.099 6 -14730673.42321        12.500           0.594
  19033728.912    -9183630.059 6  -7097015.50122        15.250           1.594
  21193535.600   -15981777.336 5 -12272899.49521        11.250           0.344
  19148426.178   -25773304.194 7 -19703617.66822        20.250           2.219
 91  5 21 19 58 44.9900000  0  5G 2G11G19G16G 6
  18028686.967   -33379596.743 7 -25839659.77624        27.500           3.656
  20874090.537   -19087855.684 6 -14731404.82621        12.250           0.625
  19032935.779    -9187801.533 6  -7100266.04622        15.250           1.625
  21192774.998   -15985747.553 5 -12275993.23621        10.250           0.406
  19137395.740   -25831270.292 7 -19748786.03222        20.750           2.219
 91  5 21 19 58 59.9900000  0  5G 2G11G19G16G 6
  18020175.498   -33424322.403 7 -25874510.92824        27.250           3.563
  20873939.498   -19088653.034 6 -14732026.16421        12.000           0.594
  19032154.787    -9191898.853 6  -7103458.80322        15.250           1.625
  21192040.451   -15989618.222 5 -12279009.44521        10.750           0.313
  19126373.404   -25889195.758 7 -19793922.73722        21.000           2.188
 91  5 21 19 59 14.9900000  0  5G 2G11G19G16G 6
  18011681.834   -33468961.119 7 -25909294.33124        27.250           3.594
  20873813.717   -19089317.888 6 -14732544.27721        12.000           0.594
  19031388.693    -9195930.692 6  -7106600.54022        15.250           1.688
  21191323.576   -15993398.070 5 -12281954.85321        11.500           0.406
  19115356.201   -25947088.895 7 -19839034.25022        20.750           2.219
 91  5 21 19 59 29.9900000  0  5G 2G11G19G16G 6
  18003204.795   -33513503.860 7 -25944002.94724        27.000           3.594
  20873713.022   -19089841.541 6 -14732952.36021        12.000           0.750
  19030636.506    -9199888.061 6  -7109684.24122        15.750           1.656
  21190619.592   -15997078.643 5 -12284822.91821        10.250           0.344
  19104347.318   -26004940.737 7 -19884113.58722        21.250           2.281
 91  5 21 19 59 44.9900000  0  5G 2G11G19G16G 6
  17994745.678   -33557955.727 7 -25978640.75524        27.000           3.750
  20873641.092   -19090229.172 6 -14733254.45021        12.000           0.656
  19029896.951    -9203775.924 6  -7112713.78422        15.750           1.688
  21189935.217   -16000665.023 5 -12287617.60221        10.000           0.500
  19093345.600   -26062755.969 7 -19929164.39422        21.250           2.281
 91  5 21 19 59 59.9900000  0  5G 2G11G19G16G 6
  17986306.357   -33602308.252 7 -26013201.15024        27.250           3.750
  20873595.420   -19090472.605 6 -14733444.17121        12.500           0.563
  19029171.623    -9207585.669 6  -7115682.46122        15.750           1.625
  21189274.162   -16004149.172 5 -12290332.62521        10.000           0.313
  19082351.686   -26120526.186 7 -19974180.12722        21.250           2.219
 91  5 21 20  0 14.9900000  0  5G 2G11G19G16G 6
  17977883.264   -33646570.007 7 -26047690.82024        27.250           3.594
  20873575.647   -19090580.687 6                        12.000
  19028455.873    -9211325.932 6  -7118596.99322        16.000           1.625
  21188635.334   -16007540.189 5 -12292975.06721        11.750           0.313
  19071366.772   -26178259.949 7 -20019167.45222        21.500           2.156
 91  5 21 20  0 29.9900000  0  5G 2G11G19G16G 6
  17969478.428   -33690736.608 7 -26082106.33724        27.250           3.594
  20873581.006   -19090549.158 5                        11.750
  19027761.123    -9214992.175 6  -7121453.84722        15.250           1.594
  21188006.006   -16010833.883 5 -12295541.66521        11.750           0.375
  19060387.373   -26235952.554 7 -20064122.71122        21.500           2.156
 91  5 21 20  0 44.9900000  0  5G 2G11G19G16G 6
  17961091.717   -33734809.298 7 -26116448.68324        27.500           3.625
  20873613.732   -19090379.472 6                        12.500
  19027077.232    -9218585.551 6  -7124253.92522        15.750           1.531
  21187391.357   -16014031.855 5 -12298033.70221        10.000           0.406
  19049417.084   -26293604.941 7 -20109046.62922        21.750           2.219
 91  5 21 20  0 59.9900000  0  5G 2G11G19G16G 6
  17952722.436   -33778788.606 7 -26150718.26324        27.000           3.500
  20873668.248   -19090072.523 5                        11.750
  19026405.584    -9222106.551 6  -7126997.60622        15.750           1.594
  21186807.631   -16017134.773 5 -12300451.66221        10.500           0.313
  19038451.897   -26351217.757 7 -20153939.71522        21.750           2.281
 91  5 21 20  1 14.9900000  0  5G 2G11G19G16G 6
  17944371.678   -33822676.459 7 -26184916.57424        27.000           3.563
  20873753.725   -19089630.331 5 -14732788.06021        11.750           0.563
  19025749.045    -9225557.082 6  -7129686.37922        15.750           1.500
  21186231.990   -16020144.745 5 -12302797.19921        10.500           0.344
  19027496.842   -26408792.731 7 -20198803.31122        22.000           2.219
 91  5 21 20  1 29.9900000  0  5G 2G11G19G16G 6
  17936037.475   -33866469.811 7 -26219041.25124        26.500           3.531
  20873865.568   -19089050.203 6 -14732336.06121        12.000           0.625
  19025109.686    -9228933.985 6  -7132317.77722        15.500           1.625
  21185679.842   -16023059.154 5 -12305068.27421        11.500           0.281
  19016548.600   -26466326.635 7 -20243634.89922        22.250           2.188
 91  5 21 20  1 44.9900000  0  5G 2G11G19G16G 6
  17927722.248   -33910167.337 7 -26253091.26124        26.500           3.531
  20874001.318   -19088331.100 5 -14731775.76021        11.500           0.500
  19024479.873    -9232235.979 6  -7134890.80522        16.000           1.531
  21185140.576   -16025877.054 5 -12307264.12521        10.750           0.313
  19005608.397   -26523818.171 7 -20288433.48222        22.000           2.125
 91  5 21 20  1 59.9900000  0  5G 2G11G19G16G 6
  17919425.225   -33953770.518 7 -26287067.75324        26.500           3.656
  20874166.576   -19087474.778 6 -14731108.55221        12.500           0.625
  19023866.092    -9235464.513 6  -7137406.59522        15.750           1.563
  21184621.897   -16028600.196 5 -12309386.17721         9.500           0.188
  18994675.318   -26581268.594 7 -20333200.02422        21.750           2.156
 91  5 21 20  2 14.9900000  0  5G 2G11G19G16G 6
  17911145.100   -33997283.677 7 -26320974.10024        26.750           3.656
  20874352.912   -19086485.922 6 -14730338.04321        12.250           0.563
  19023262.576    -9238623.849 6  -7139868.46922        15.750           1.594
  21184123.561   -16031233.194 5 -12311437.97621        10.000           0.313
  18983750.334   -26638682.261 7 -20377937.92722        22.250           2.156
 91  5 21 20  2 29.9900000  0  5G 2G11G19G16G 6
  17902881.100   -34040704.269 7 -26354808.31324        26.250           3.563
  20874567.600   -19085362.083 6 -14729462.37421        12.000           0.594
  19022678.537    -9241711.374 6  -7142274.37422        14.750           1.625
  21183640.928   -16033773.697 5 -12313417.67521        10.500           0.281
  18972831.818   -26696056.454 7 -20422645.07622        22.000           2.063
 91  5 21 20  2 44.9900000  0  5G 2G11G19G16G 6
  17894636.006   -34084034.057 7 -26388571.78024        26.000           3.594
  20874806.928   -19084105.066 6 -14728482.92121        12.250           0.594
  19022100.490    -9244728.743 6  -7144625.62422        15.500           1.625
  21183178.662   -16036223.838 5 -12315326.98521        10.750           0.406
  18961921.232   -26753392.555 7 -20467322.53522        22.250           2.156
 91  5 21 20  2 59.9900000  0  5G 2G11G19G16G 6
  17886408.045   -34127269.187 7 -26422261.48023        26.250           3.438
  20875071.904   -19082711.387 6 -14727396.99621        12.500           0.563
  19021542.490    -9247671.948 6  -7146919.08822        15.500           1.500
  21182718.568   -16038580.084 5 -12317163.11821         8.500           0.313
  18951019.045   -26810686.527 7 -20511967.17322        22.250           2.156
 91  5 21 20  3 14.9900000  0  5G 2G11G19G16G 6
  17878198.678   -34170412.506 7 -26455879.63924        26.250           3.500
  20875361.459   -19081184.220 6 -14726207.04821        12.250           0.531
  19020994.787    -9250544.040 6  -7149157.12621        15.750           1.469
  21182294.990   -16040845.731 5 -12318928.67821         9.000           0.219
  18940124.342   -26867941.332 7 -20556581.27922        22.250           2.125
 91  5 21 20  3 29.9900000  0  5G 2G11G19G16G 6
  17870007.553   -34213460.718 7 -26489423.68624        26.250           3.531
  20875678.678   -19079520.301 6 -14724910.53221        12.500           0.563
  19020467.670    -9253341.490 6  -7151337.01622        14.500           1.563
  21181882.389   -16043017.672 5 -12320621.20921         9.500           0.313
  18929236.482   -26925153.403 7 -20601162.09622        22.000           2.156
 91  5 21 20  3 44.9900000  0  5G 2G11G19G16G 6
  17861832.881   -34256417.005 7 -26522896.10624        25.750           3.531
  20876019.795   -19077723.288 6 -14723510.31421        12.250           0.625
  19019945.428    -9256067.474 6  -7153461.19822        15.750           1.531
  21181482.170   -16045099.330 5 -12322243.35921         9.250           0.250
  18918355.443   -26982325.859 7 -20645712.04222        21.750           2.125
 91  5 21 20  3 59.9900000  0  5G 2G11G19G16G 6
  17853675.936   -34299279.339 7 -26556295.31524        25.750           3.563
  20876389.397   -19075791.144 6 -14722004.81121        12.250           0.500
  19019444.287    -9258719.715 6  -7155527.94021        15.000           1.469
  21181107.490   -16047088.832 5 -12323793.73821         9.250           0.313
  18907485.506   -27039456.335 7 -20690229.27422        22.250           2.063
 91  5 21 20  4 14.9900000  0  5G 2G11G19G16G 6
  17845536.514   -34342050.344 7 -26589623.35924        25.750           3.563
  20876782.264   -19073726.723 6 -14720396.21421        12.500           0.563
  19018948.936    -9261300.925 6  -7157539.31422        15.500           1.563
  21180742.772   -16048989.073 5 -12325274.56821         8.000           0.219
  18896622.193   -27096547.357 7 -20734715.76822        22.500           2.219
 91  5 21 20  4 29.9900000  0  5G 2G11G19G16G 6
  17837413.084   -34384739.564 7 -26622887.67324        26.250           3.500
  20877197.490   -19071540.078 6 -14718692.38621        12.250           0.625
  19018471.787    -9263820.854 6  -7159502.95822        14.250           1.531
  21180394.482   -16050809.990 5 -12326693.60521         8.250           0.250
  18885762.943   -27153608.533 7 -20779178.99822        22.250           2.250
 91  5 21 20  4 44.9900000  0  5G 2G11G19G16G 6
  17829306.647   -34427342.469 7 -26656084.73224        26.250           3.531
  20877636.287   -19069226.788 6 -14716889.88721        12.500           0.563
  19018001.834    -9266274.669 6  -7161415.06322        15.000           1.500
  21180070.193   -16052547.533 5 -12328047.63921         9.250           0.188
  18874911.022   -27210635.019 7 -20823615.20422        22.000           2.313
 91  5 21 20  4 59.9900000  0  5G 2G11G19G16G 6
  17821217.318   -34469850.879 7 -26689208.15924        26.500           3.625
  20878104.162   -19066778.849 6 -14714982.44521        12.500           0.563
  19017552.147    -9268654.183 6  -7163269.78922        14.250           1.563
  21179761.037   -16054193.902 5 -12329330.58121         9.500           0.281
  18864068.615   -27267618.579 7 -20868017.95522        22.000           2.344
 91  5 21 20  5 14.9900000  0  5G 2G11G19G16G 6
  17813147.272   -34512264.599 7 -26722257.80124        26.500           3.594
  20878595.264   -19064196.316 6 -14712970.13421        12.250           0.719
  19017110.014    -9270959.216 6  -7165065.96822        15.250           1.500
  21179458.232   -16055748.768 5 -12330542.29921         8.250           0.344
  18853232.256   -27324558.763 7 -20912386.91622        22.250           2.281
 91  5 21 20  5 29.9900000  0  5G 2G11G19G16G 6
  17805092.350   -34554587.587 7 -26755236.74324        26.750           3.531
  20879112.779   -19061483.544 6 -14710856.34321        12.500           0.656
  19016687.264    -9273193.561 6  -7166807.07122        14.500           1.563
  21179174.537   -16057216.564 5 -12331686.19621         8.250           0.344
  18842403.865   -27381459.467 7 -20956725.11022        22.000           2.250
 91  5 21 20  5 44.9900000  0  5G 2G11G19G16G 6
  17797056.037   -34596820.772 7 -26788145.71224        27.000           3.531
  20879652.334   -19058641.727 6 -14708642.00321        12.500           0.563
  19016272.615    -9275358.200 6  -7168493.85421        15.250           1.469
  21178913.889   -16058598.852 5 -12332763.41521         8.500           0.219
  18831582.326   -27438321.533 7 -21001033.19522        22.000           2.344
 91  5 21 20  5 59.9900000  0  5G 2G11G19G16G 6
  17789037.186   -34638960.915 7 -26820982.17824        26.750           3.563
  20880218.436   -19055667.610 6 -14706324.55621        12.250           0.594
  19015877.615    -9277449.489 6  -7170123.48022        14.750           1.563
  21178674.600   -16059892.409 5 -12333771.45121         9.000           0.281
  18820771.498   -27495141.234 7 -21045308.27522        22.000           2.406
 91  5 21 20  6 14.9900000  0  5G 2G11G19G16G 6
  17781035.334   -34681008.531 7 -26853746.54724        27.000           3.531
  20880809.053   -19052562.255 6 -14703904.87121        12.500           0.531
  19015490.654    -9279468.190 6  -7171696.54322        14.750           1.531
  21178444.725   -16061098.311 5 -12334711.27121         8.500           0.219
  18809965.764   -27551919.245 7 -21089550.86222        21.500           2.438
 91  5 21 20  6 29.9900000  0  5G 2G11G19G16G 6
  17773052.881   -34722965.817 7 -26886440.52724        27.250           3.531
  20881427.623   -19049328.175 6 -14701384.84921        12.250           0.594
  19015121.334    -9281416.384 6  -7173214.66921        14.250           1.469
  21178226.029   -16062218.949 5 -12335584.59521         7.750           0.438
  18799167.061   -27608657.757 7 -21133762.67422        21.500           2.406
 91  5 21 20  6 44.9900000  0  5G 2G11G19G16G 6
  17765083.131   -34764834.753 7 -26919065.66324        27.000           3.531
  20882064.209   -19045967.314 6 -14698766.07421        12.250           0.563
  19014762.107    -9283296.002 6  -7174679.36221        14.750           1.438
  21178028.967   -16063256.438 5 -12336393.18121         8.250           0.281
  18788378.951   -27665358.167 7 -21177944.78922        21.750           2.375
 91  5 21 20  6 59.9900000  0  5G 2G11G19G16G 6
  17757134.404   -34806612.752 7 -26951619.93924        27.250           3.531
  20882728.006   -19042477.249 6 -14696046.59321        12.250           0.531
  19014420.326    -9285104.257 6  -7176088.43221        14.500           1.406
  21177843.553   -16064208.440 5 -12337135.11821         8.500           0.313
  18777598.295   -27722017.816 7 -21222095.13623        22.250           2.500
 91  5 21 20  7 14.9900000  0  5G 2G11G19G16G 6
  17749200.686   -34848300.451 7 -26984103.85424        27.000           3.500
  20883417.428   -19038858.965 6 -14693227.20221        12.500           0.594
  19014088.803    -9286841.819 6  -7177442.43521        14.750           1.406
  21177684.600   -16065076.042 5 -12337811.28021         9.000           0.219
  18766823.873   -27778637.308 7 -21266214.20222        22.250           2.438
 91  5 21 20  7 29.9900000  0  5G 2G11G19G16G 6
  17741286.115   -34889894.488 7 -27016514.77924        27.250           3.594
  20884132.850   -19035109.465 6 -14690305.57621        12.250           0.469
  19013773.053    -9288505.428 6  -7178738.80121        14.500           1.375
  21177537.147   -16065856.169 5 -12338419.29821         8.000           0.250
  18756058.295   -27835213.191 7 -21310299.28322        22.500           2.469
 91  5 21 20  7 44.9900000  0  5G 2G11G19G16G 6
  17733386.959   -34931397.520 7 -27048854.79423        27.250           3.469
  20884868.287   -19031231.656 6 -14687283.97521        12.250           0.563
  19013469.357    -9290097.654 6  -7179979.55221        15.000           1.313
  21177403.240   -16066551.957 5 -12338961.62121         8.250           0.313
  18745300.029   -27891748.124 7 -21354352.45722        22.500           2.438
 91  5 21 20  7 59.9900000  0  5G 2G11G19G16G 6
  17725507.264   -34972809.235 7 -27081123.65323        27.000           3.469
  20885631.436   -19027225.454 6 -14684162.31021        12.250           0.563
  19013180.904    -9291618.127 6  -7181164.38921        14.500           1.438
  21177288.201   -16067163.108 5 -12339437.97621         8.750           0.438
  18734548.951   -27948241.290 7 -21398373.08623        22.750           2.531
 91  5 21 20  8 14.9900000  0  5G 2G11G19G16G 6
  17717644.693   -35014131.720 7 -27113322.98124        27.000           3.656
  20886418.006   -19023093.180 5 -14680942.42021        11.750           0.531
  19012902.490    -9293068.801 6  -7182294.82922        15.000           1.531
  21177189.936   -16067692.022 5 -12339850.23521         9.000           0.375
  18723807.115   -28004694.754 7 -21442362.78322        22.500           2.438
 91  5 21 20  8 29.9900000  0  5G 2G11G19G16G 6
  17709797.209   -35055363.877 7 -27145451.92024        27.000           3.500
  20887228.686   -19018833.997 6 -14677623.63821        12.250           0.688
  19012645.850    -9294448.472 6  -7183369.94521        13.750           1.406
  21177100.647   -16068137.873 5 -12340197.80221         8.000           0.281
  18713070.529   -28061107.216 7 -21486320.52222        22.500           2.438
 91  5 21 20  8 44.9900000  0  5G 2G11G19G16G 6
  17701969.029   -35096502.776 7 -27177508.19624        27.000           3.594
  20888064.873   -19014445.207 6 -14674203.85621        12.000           0.594
  19012390.607    -9295754.131 6  -7184387.39121        14.750           1.438
  21177034.006   -16068498.271 5 -12340478.77321         8.250           0.281
  18702346.193   -28117475.605 7 -21530243.92823        22.750           2.500
 91  5 21 20  8 59.9900000  0  4G 2G11G19G 6
  17694156.678   -35137553.764 7 -27209495.97224        27.000           3.563
  20888922.123   -19009932.447 6 -14670687.47921        12.000           0.531
  19012157.154    -9296991.256 6  -7185351.43721        14.750           1.438
  18691625.959   -28173805.205 7 -21574137.10522        22.750           2.438
 91  5 21 20  9 14.9900000  0  4G 2G11G19G 6
  17686362.561   -35178510.747 7 -27241410.49524        27.000           3.625
  20889806.170   -19005289.709 6 -14667069.82321        12.000           0.469
  19011936.561    -9298153.546 6  -7186257.16122        14.750           1.500
  18680914.279   -28230089.504 7 -21617994.98523        22.000           2.500
 91  5 21 20  9 29.9900000  0  4G 2G11G19G 6
  17678586.529   -35219375.506 7 -27273253.15224        27.000           3.563
  20890713.061   -19000519.061 5 -14663352.49121        11.750           0.531
  19011730.592    -9299242.855 6  -7187106.02422        14.750           1.500
  18670213.092   -28286330.268 7 -21661818.93923        22.250           2.563
 91  5 21 20  9 44.9900000  0  4G 2G11G19G 6
  17670828.107   -35260150.632 7 -27305025.96924        27.000           3.563
  20891643.920   -18995623.307 5 -14659537.68821        11.250           0.563
  19011535.779    -9300261.438 6  -7187899.77721        15.250           1.438
  18659519.686   -28342529.786 7 -21705610.75123        22.750           2.594
 91  5 21 20  9 59.9900000  0  4G 2G11G19G 6
  17663085.037   -35300836.969 7 -27336729.59624        27.250           3.719
  20892599.873   -18990603.545 5 -14655626.23821        11.500           0.531
  19011356.639    -9301210.161 6  -7188639.09021        15.000           1.406
  18648830.811   -28398688.777 7 -21749370.98523        22.250           2.594
 91  5 21 20 10 14.9890000  0  4G 2G11G19G 6
  17655361.181   -35341430.453 7 -27368360.86824        27.250           3.719
  20893579.681   -18985459.223 5 -14651617.73621        11.750           0.531
  19011185.478    -9302087.757 6  -7189322.97921        15.000           1.281
  18638153.923   -28454802.143 7 -21793095.66923        22.500           2.531
 91  5 21 20 10 29.9890000  0  4G 2G11G19G 6
  17647652.306   -35381937.558 7 -27399924.83524        27.250           3.719
  20894582.540   -18980190.892 5 -14647512.59921        11.750           0.469
  19011034.040    -9302895.378 6  -7189952.34321        14.500           1.375
  18627482.548   -28510878.188 7 -21836791.27023        22.000           2.500
 91  5 21 20 10 44.9890000  0  4G 2G11G19G 6
  17639961.720   -35422355.855 7 -27431419.60124        27.250           3.750
  20895607.603   -18974799.337 5 -14643311.44321        11.500           0.469
  19010892.204    -9303633.158 6  -7190527.27821        14.750           1.469
  18616818.939   -28566913.323 7 -21880454.99223        22.000           2.594
 91  5 21 20 10 59.9890000  0  4G 2G11G19G 6
  17632289.556   -35462680.001 7 -27462841.00123        27.500           3.469
  20896659.071   -18969279.729 6 -14639010.51021        12.000           0.563
  19010768.548    -9304295.854 6  -7191043.71121        14.500           1.406
  18606164.446   -28622902.163 7 -21924082.64323        22.000           2.625
 91  5 21 20 11 14.9890000  0  4G 2G11G19G 6
  17624633.360   -35502912.394 7 -27494190.90624        27.500           3.625
  20897734.212   -18963634.593 5 -14634611.75421        11.250           0.563
  19010655.579    -9304885.405 6  -7191503.14221        14.500           1.406
  18595519.329   -28678846.769 7 -21967675.82023        22.000           2.563
 91  5 21 20 11 29.9890000  0  4G 2G11G19G 6
  17616992.868   -35543056.625 7 -27525472.11824        27.250           3.688
  20898832.509   -18957867.707 6 -14630118.15021        12.000           0.656
  19010557.282    -9305405.421 6  -7191908.39921        14.500           1.438
  18584881.212   -28734750.564 7 -22011237.19923        22.250           2.594
 91  5 21 20 11 44.9890000  0  4G 2G11G19G 6
  17609372.696   -35583105.869 7 -27556679.31324        27.250           3.500
  20899953.876   -18951972.549 5 -14625524.56521        11.750           0.531
  19010473.001    -9305849.032 6  -7192254.12321        15.000           1.406
  18574252.368   -28790606.461 7 -22054761.25723        22.250           2.531
 91  5 21 20 11 59.9890000  0  4G 2G11G19G 6
  17601768.126   -35623068.130 7 -27587818.73024        27.000           3.594
  20901096.571   -18945957.285 5 -14620837.41021        11.000           0.594
  19010404.509    -9306224.186 6  -7192546.49321        14.750           1.469
  18563629.860   -28846422.376 7 -22098254.16023        22.500           2.531
 91  5 21 20 12 14.9890000  0  4G 2G11G19G 6
  17594180.579   -35662942.067 7 -27618889.32224        27.000           3.563
  20902265.564   -18939820.742 5 -14616055.75421        11.500           0.563
  19010343.126    -9306529.508 6  -7192784.45821        14.750           1.313
  18553016.946   -28902196.737 7 -22141714.68423        22.500           2.531
 91  5 21 20 12 29.9890000  0  4G 2G11G19G 6
  17586609.556   -35702722.680 7 -27649887.19524        27.000           3.531
  20903456.446   -18933558.201 5 -14611175.91721        11.250           0.656
  19010300.556    -9306759.802 6  -7192963.95021        14.250           1.313
  18542412.798   -28957924.317 7 -22185138.75423        22.500           2.563
 91  5 21 20 12 44.9890000  0  4G 2G11G19G 6
  17579057.212   -35742414.055 7 -27680815.53424        27.000           3.531
  20904671.321   -18927174.136 5 -14606201.37021        11.000           0.531
  19010268.548    -9306919.196 6                        14.500
  18531815.720   -29013609.197 7 -22228529.55123        22.750           2.500
 91  5 21 20 12 59.9890000  0  4G 2G11G19G 6
  17571521.056   -35782017.260 7 -27711675.16623        27.500           3.469
  20905909.978   -18920669.940 5 -14601133.22121        11.250           0.531
  19010253.829    -9307008.952 6                        14.250
  18521228.579   -29069252.264 7 -22271887.76123        22.750           2.500
 91  5 21 20 13 14.9890000  0  4G 2G11G19G 6
  17564001.946   -35821532.826 7 -27742466.50924        27.500           3.500
  20907169.446   -18914046.172 5 -14595971.90121        11.000           0.656
  19010247.923    -9307029.211 6                        14.500
  18510647.071   -29124853.623 7 -22315213.47923        23.250           2.500
 91  5 21 20 13 29.9890000  0  4G 2G11G19G 6
  17556498.064   -35860957.034 7 -27773186.66824        27.500           3.500
  20908454.407   -18907299.566 5 -14590714.87721        11.000           0.594
  19010259.337    -9306976.381 6                        14.750
  18500075.587   -29180409.649 7 -22358503.87123        23.250           2.500
 91  5 21 20 13 44.9890000  0  4G 2G11G19G 6
  17549014.517   -35900291.146 7 -27803836.61723        27.500           3.469
  20909760.860   -18900431.690 5 -14585363.32621        11.000           0.594
  19010282.603    -9306851.761 6                        14.500
  18489510.626   -29235921.383 7 -22401759.75523        23.250           2.563
 91  5 21 20 13 59.9890000  0  4G 2G11G19G 6
  17541546.165   -35939535.495 7 -27834416.62524        27.750           3.531
  20911091.228   -18893443.233 5 -14579917.83321        10.750           0.469
  19010320.228    -9306655.705 6                        14.500
  18478956.720   -29291389.121 7 -22444981.36023        23.250           2.563
 91  5 21 20 14 14.9890000  0  4G 2G11G19G 6
  17534095.173   -35978689.312 7 -27864926.08523        27.250           3.469
  20912443.157   -18886333.560 5 -14574377.89821        10.750           0.656
  19010372.204    -9306387.271 6                        14.750
  18468410.478   -29346811.813 7 -22488167.86023        23.500           2.594
 91  5 21 20 14 29.9890000  0  4G 2G11G19G 6
  17526660.353   -36017756.111 7 -27895367.74124        27.750           3.500
  20913819.056   -18879106.364 5 -14568746.38121        10.750           0.625
  19010435.212    -9306049.710 6  -7192412.49021        14.250           1.313
  18457871.892   -29402192.741 7 -22531321.81823        23.500           2.625
 91  5 21 20 14 44.9890000  0  4G 2G11G19G 6
  17519245.079   -36056730.638 7 -27925737.49623        27.750           3.438
  20915216.774   -18871756.577 5 -14563019.32521        11.000           0.531
  19010513.970    -9305637.705 6  -7192091.50421        14.250           1.313
  18447341.024   -29457526.314 7 -22574438.87823        23.000           2.625
 91  5 21 20 14 59.9890000  0  4G 2G11G19G 6
  17511845.439   -36095616.914 8 -27956038.48324        28.000           3.625
  20916639.110   -18864288.550 5 -14557200.12421        10.500           0.563
  19010608.071    -9305155.321 6  -7191715.66621        14.000           1.250
  18436819.954   -29512816.445 7 -22617522.08623        23.250           2.656
 91  5 21 20 15 14.9890000  0  4G 2G11G19G 6
  17504461.493   -36134416.394 8 -27986271.83824        28.000           3.531
  20918081.673   -18856704.143 5 -14551290.27821        10.500           0.531
  19010708.376    -9304603.981 6  -7191286.09221        14.250           1.281
  18426307.399   -29568064.515 7 -22660572.51423        23.250           2.750
 91  5 21 20 15 29.9890000  0  4G 2G11G19G 6
  17497096.095   -36173126.303 8 -28016435.39324        28.250           3.500
  20919548.439   -18849000.801 5 -14545287.72321        10.500           0.563
  19010829.610    -9303980.708 6  -7190800.48521        14.000           1.344
  18415801.407   -29623267.458 7 -22703587.78523        23.000           2.813
 91  5 21 20 15 44.9890000  0  4G 2G11G19G 6
  17489745.110   -36211749.522 8 -28046531.41024        28.000           3.531
  20921036.728   -18841181.572 5 -14539194.88321        10.500           0.469
  19010959.649    -9303288.544 6  -7190261.18521        14.250           1.313
  18405305.579   -29678428.022 7 -22746570.03023        23.000           2.688
 91  5 21 20 15 59.9890000  0  4G 2G11G19G 6
  17482413.821   -36250279.246 8 -28076554.56823        28.500           3.438
  20922547.501   -18833239.954 5 -14533006.66521        10.750           0.563
  19011113.571    -9302520.648 6  -7189662.87221        13.000           1.281
  18394817.915   -29733539.181 7 -22789513.77523        22.750           2.625
 91  5 21 20 16 14.9890000  0  4G 2G11G19G 6
  17475098.173   -36288720.674 8 -28106508.92123        28.500           3.438
  20924079.720   -18825181.529 5 -14526727.42921        10.500           0.625
  19011265.657    -9301682.146 6  -7189009.54121        14.000           1.375
  18384339.892   -29788606.027 7 -22832422.99623        23.250           2.813
 91  5 21 20 16 29.9890000  0  4G 2G11G19G 6
  17467798.220   -36327082.457 8 -28136401.21424        28.500           3.531
  20925634.462   -18817015.147 5 -14520364.07321        10.750           0.531
  19011442.931    -9300781.563 6  -7188307.84921        12.750           1.406
  18373868.181   -29843637.022 7 -22875304.27623        23.000           2.844
 91  5 21 20 16 44.9890000  0  4G 2G11G19G 6
  17460514.126   -36365355.881 8 -28166224.65723        28.000           3.438
  20927212.056   -18808732.376 5 -14513910.02421        10.500           0.469
  19011622.728    -9299810.303 6  -7187551.07221        14.000           1.406
  18363404.423   -29898623.360 7 -22918150.75823        23.000           2.781
 91  5 21 20 16 59.9890000  0  4G 2G11G19G 6
  17453247.915   -36403542.819 8 -28195980.70923        28.250           3.344
  20928809.610   -18800335.203 5 -14507366.83321        10.500           0.469
  19011826.540    -9298770.049 6  -7186740.53321        12.750           1.250
  18352948.712   -29953566.468 7 -22960963.55623        23.000           2.656
 91  5 21 20 17 14.9890000  0  4G 2G11G19G 6
  17445998.595   -36441643.163 8 -28225669.28223        28.750           3.406
  20930428.353   -18791823.898 5 -14500734.69721        10.500           0.438
  19012030.321    -9297660.443 6  -7185875.95821        13.750           1.375
  18342500.939   -30008466.202 7 -23003742.55723        23.000           2.688
 91  5 21 20 17 29.9890000  0  4G 2G11G19G 6
  17438764.735   -36479653.425 8 -28255287.66323        28.250           3.469
  20932071.524   -18783195.331 5 -14494011.20221        11.000           0.438
  19012261.759    -9296478.112 6  -7184954.70921        13.000           1.375
  18332063.040   -30063318.872 7 -23046484.88323        23.000           2.688
 91  5 21 20 17 44.9890000  0  4G 2G11G19G 6
  17431548.524   -36517577.324 8 -28284838.74723        28.500           3.406
  20933734.728   -18774453.508 5 -14487199.45121        11.000           0.406
  19012495.751    -9295226.867 6  -7183979.76921        14.000           1.281
  18321632.634   -30118128.100 7 -23089193.36123        23.000           2.656
 91  5 21 20 17 59.9890000  0  4G 2G11G19G 6
  17424346.985   -36555418.155 8 -28314325.10323        28.500           3.375
  20935418.415   -18765601.869 5 -14480302.12021        11.250           0.344
  19012750.860    -9293909.675 6  -7182953.44021        13.000           1.281
  18311210.985   -30172896.901 7 -23131870.33723        23.000           2.563
 91  5 21 20 18 14.9890000  0  4G 2G11G19G 6
  17417163.712   -36593171.167 8 -28343743.02823        28.500           3.438
  20937123.415   -18756635.809 5 -14473315.62021        11.250           0.344
  19013008.939    -9292521.578 6  -7181871.86021        13.750           1.313
  18300796.337   -30227620.150 7 -23174511.81823        22.750           2.656
 91  5 21 20 18 29.9890000  0  4G 2G11G19G 6
  17409996.235   -36630837.126 8 -28373093.11823        28.500           3.469
  20938851.478   -18747556.330 5 -14466240.76721        10.750           0.531
  19013288.173    -9291063.611 6  -7180735.83821        13.000           1.250
  18290391.657   -30282298.578 7 -23217118.37923        23.000           2.563
 91  5 21 20 18 44.9890000  0  4G 2G11G19G 6
  17402845.165   -36668416.504 8 -28402375.74023        28.250           3.438
  20940601.165   -18738364.377 5 -14459078.25121        10.750           0.469
  19013577.665    -9289536.325 6  -7179545.79021        13.750           1.219
  18279995.134   -30336932.524 7 -23259690.27123        23.250           2.531
 91  5 21 20 18 59.9890000  0  4G 2G11G19G 6
  17395710.056   -36705907.912 8 -28431589.81723        28.250           3.375
  20942370.649   -18729058.716 5 -14451827.13721        10.750           0.406
  19013883.689    -9287938.003 6  -7178300.40721        13.250           1.281
  18269608.103   -30391520.284 7 -23302226.17823        23.250           2.563
 91  5 21 20 19 14.9890000  0  4G 2G11G19G 6
  17388590.790   -36743312.832 8 -28460736.50223        28.000           3.406
  20944164.024   -18719641.231 5 -14444488.89521        10.500           0.406
  19014199.149    -9286270.282 6  -7177000.94121        13.500           1.344
  18259229.181   -30446063.200 7 -23344727.14523        23.250           2.531
 91  5 21 20 19 29.9890000  0  4G 2G11G19G 6
  17381489.915   -36780634.667 8 -28489818.44023        28.250           3.375
  20945976.868   -18710115.557 5 -14437066.33821        11.250           0.469
  19014531.259    -9284536.522 6  -7175650.00721        13.000           1.281
  18248859.274   -30500564.470 7 -23387195.66122        23.000           2.469
 91  5 21 20 19 44.9890000  0  4G 2G11G19G 6
  17374404.142   -36817871.867 8 -28518834.43323        28.250           3.438
  20947811.196   -18700480.407 5 -14429558.48121        10.750           0.406
  19014872.610    -9282735.108 6  -7174246.36221        13.500           1.344
  18238493.923   -30555022.436 7 -23429630.43022        22.750           2.406
 91  5 21 20 19 59.9890000  0  4G 2G11G19G 6
  17367333.790   -36855027.091 8 -28547786.54923        28.250           3.313
  20949665.189   -18690738.660 5 -14421967.55221        10.500           0.375
  19015228.970    -9280868.487 6  -7172791.90321        13.000           1.281
  18228139.814   -30609439.405 7 -23472033.24823        23.250           2.500
 91  5 21 20 20 14.9890000  0  4G 2G11G19G 6
  17360279.587   -36892096.080 8 -28576671.46523        28.000           3.313
  20951539.454   -18680886.329 5 -14414290.46821        10.750           0.313
  19015595.673    -9278932.366 6  -7171283.30021        13.500           1.313
  18217792.743   -30663810.986 7 -23514400.70822        23.000           2.406
 91  5 21 20 20 29.9890000  0  4G 2G11G19G 6
  17353242.368   -36929073.715 8 -28605485.20023        28.000           3.469
  20953436.282   -18670918.631 5 -14406523.47521        10.750           0.344
  19015979.610    -9276921.517 6  -7169716.45421        13.250           1.219
  18207456.345   -30718131.824 7 -23556728.62222        23.000           2.438
 91  5 21 20 20 44.9890000  0  4G 2G11G19G 6
  17346223.118   -36965962.330 8 -28634229.56723        28.000           3.375
  20955353.876   -18660838.233 5 -14398668.67321        10.000           0.406
  19016374.579    -9274838.225 6  -7168093.16421        13.750           1.125
  18197129.329   -30772404.125 7 -23599018.71223        23.250           2.531
 91  5 21 20 20 59.9890000  0  4G 2G11G19G 6
  17339219.689   -37002770.774 8 -28662911.46324        28.250           3.500
  20957291.868   -18650654.095 5 -14390733.03121        10.250           0.313
  19016788.884    -9272691.378 6  -7166420.35421        12.500           1.188
  18186808.532   -30826636.416 7 -23641277.62823        23.000           2.500
 91  5 21 20 21 14.9890000  0  4G 2G11G19G 6
  17332231.407   -37039490.749 8 -28691524.42223        28.000           3.375
  20959251.423   -18640358.403 5 -14382710.46521        10.250           0.344
  19017205.524    -9270472.880 6  -7164691.70721        13.250           1.250
  18176497.470   -30880820.447 7 -23683498.93923        23.000           2.656
